<?xml version="1.0" encoding="UTF-8" standalone="no" ?>
<gpx xmlns="http://www.topografix.com/GPX/1/1" xmlns:xsi="http://www.w3.org/2001/XMLSchema-instance" xsi:schemaLocation="http://www.topografix.com/GPX/1/1 http://www.topografix.com/GPX/1/1/gpx.xsd" version="1.1" creator="VisuGPX - https://www.visugpx.com">
  <metadata>
    <name>CURRENT TRACK- 13 AUG 2020 CANADEL 2</name>
    <desc><![CDATA[Trace Randonnée en boucle au départ Camping de la Plage (CDLP) à Grimaud en passant par le col du Canadel, retour par la piste cyclable de la Croix-Valmer.
HW R 2020
]]></desc>
  </metadata>
  <trk>
    <name><![CDATA[CURRENT TRACK- 13 AUG 2020 CANADEL 2]]></name>
    <trkseg>
      <trkpt lat="43.28185" lon="6.58726">
        <ele>2.90375</ele>
        <time>2020-08-11T14:40:00Z</time>
      </trkpt>
      <trkpt lat="43.28178" lon="6.58733">
        <ele>2.49375</ele>
        <time>2020-08-11T14:41:14Z</time>
      </trkpt>
      <trkpt lat="43.28181" lon="6.58718">
        <ele>2.84125</ele>
        <time>2020-08-11T14:41:57Z</time>
      </trkpt>
      <trkpt lat="43.2818" lon="6.58735">
        <ele>2.5245</ele>
        <time>2020-08-11T14:43:21Z</time>
      </trkpt>
      <trkpt lat="43.28236" lon="6.58632">
        <ele>6.15</ele>
        <time>2020-08-13T06:43:40Z</time>
      </trkpt>
      <trkpt lat="43.28169" lon="6.58743">
        <ele>1.905109</ele>
        <time>2020-08-13T06:53:20Z</time>
      </trkpt>
      <trkpt lat="43.28172" lon="6.58767">
        <ele>1.622012</ele>
        <time>2020-08-13T06:53:31Z</time>
      </trkpt>
      <trkpt lat="43.28175" lon="6.5876">
        <ele>1.867188</ele>
        <time>2020-08-13T06:54:14Z</time>
      </trkpt>
      <trkpt lat="43.28167" lon="6.58746">
        <ele>1.806047</ele>
        <time>2020-08-13T06:54:23Z</time>
      </trkpt>
      <trkpt lat="43.28174" lon="6.58723">
        <ele>2.4375</ele>
        <time>2020-08-13T06:54:32Z</time>
      </trkpt>
      <trkpt lat="43.28171" lon="6.58717">
        <ele>2.40625</ele>
        <time>2020-08-13T07:04:12Z</time>
      </trkpt>
      <trkpt lat="43.28177" lon="6.58692">
        <ele>3.035</ele>
        <time>2020-08-13T07:04:21Z</time>
      </trkpt>
      <trkpt lat="43.28183" lon="6.58666">
        <ele>3.745581</ele>
        <time>2020-08-13T07:04:29Z</time>
      </trkpt>
      <trkpt lat="43.28189" lon="6.58642">
        <ele>4.57695</ele>
        <time>2020-08-13T07:04:36Z</time>
      </trkpt>
      <trkpt lat="43.28197" lon="6.58619">
        <ele>5.386203</ele>
        <time>2020-08-13T07:04:43Z</time>
      </trkpt>
      <trkpt lat="43.28206" lon="6.58601">
        <ele>5.7475</ele>
        <time>2020-08-13T07:04:53Z</time>
      </trkpt>
      <trkpt lat="43.28199" lon="6.58571">
        <ele>5.5525</ele>
        <time>2020-08-13T07:05:00Z</time>
      </trkpt>
      <trkpt lat="43.2819" lon="6.58543">
        <ele>5.42625</ele>
        <time>2020-08-13T07:05:06Z</time>
      </trkpt>
      <trkpt lat="43.28184" lon="6.58518">
        <ele>5.67375</ele>
        <time>2020-08-13T07:05:11Z</time>
      </trkpt>
      <trkpt lat="43.28181" lon="6.58494">
        <ele>5.9775</ele>
        <time>2020-08-13T07:05:17Z</time>
      </trkpt>
      <trkpt lat="43.28174" lon="6.58464">
        <ele>5.9075</ele>
        <time>2020-08-13T07:05:26Z</time>
      </trkpt>
      <trkpt lat="43.28164" lon="6.58431">
        <ele>5.655</ele>
        <time>2020-08-13T07:05:33Z</time>
      </trkpt>
      <trkpt lat="43.28154" lon="6.58401">
        <ele>5.41</ele>
        <time>2020-08-13T07:05:39Z</time>
      </trkpt>
      <trkpt lat="43.28145" lon="6.58372">
        <ele>5.195</ele>
        <time>2020-08-13T07:05:44Z</time>
      </trkpt>
      <trkpt lat="43.28138" lon="6.58344">
        <ele>5.270578</ele>
        <time>2020-08-13T07:05:49Z</time>
      </trkpt>
      <trkpt lat="43.28132" lon="6.58317">
        <ele>5.604209</ele>
        <time>2020-08-13T07:05:53Z</time>
      </trkpt>
      <trkpt lat="43.28124" lon="6.58286">
        <ele>5.6325</ele>
        <time>2020-08-13T07:05:58Z</time>
      </trkpt>
      <trkpt lat="43.28116" lon="6.58261">
        <ele>5.435</ele>
        <time>2020-08-13T07:06:03Z</time>
      </trkpt>
      <trkpt lat="43.28109" lon="6.58236">
        <ele>5.26</ele>
        <time>2020-08-13T07:06:08Z</time>
      </trkpt>
      <trkpt lat="43.28104" lon="6.5821">
        <ele>5.1325</ele>
        <time>2020-08-13T07:06:13Z</time>
      </trkpt>
      <trkpt lat="43.28097" lon="6.58185">
        <ele>4.99225</ele>
        <time>2020-08-13T07:06:18Z</time>
      </trkpt>
      <trkpt lat="43.28091" lon="6.5816">
        <ele>5.161494</ele>
        <time>2020-08-13T07:06:23Z</time>
      </trkpt>
      <trkpt lat="43.28085" lon="6.58133">
        <ele>5.398475</ele>
        <time>2020-08-13T07:06:29Z</time>
      </trkpt>
      <trkpt lat="43.28076" lon="6.58102">
        <ele>5.499031</ele>
        <time>2020-08-13T07:06:36Z</time>
      </trkpt>
      <trkpt lat="43.28068" lon="6.58074">
        <ele>5.659225</ele>
        <time>2020-08-13T07:06:41Z</time>
      </trkpt>
      <trkpt lat="43.28062" lon="6.58043">
        <ele>6.0625</ele>
        <time>2020-08-13T07:06:47Z</time>
      </trkpt>
      <trkpt lat="43.28052" lon="6.58014">
        <ele>6.52375</ele>
        <time>2020-08-13T07:06:52Z</time>
      </trkpt>
      <trkpt lat="43.28043" lon="6.57993">
        <ele>6.86375</ele>
        <time>2020-08-13T07:06:58Z</time>
      </trkpt>
      <trkpt lat="43.28033" lon="6.57968">
        <ele>7</ele>
        <time>2020-08-13T07:07:07Z</time>
      </trkpt>
      <trkpt lat="43.28023" lon="6.57944">
        <ele>7</ele>
        <time>2020-08-13T07:07:13Z</time>
      </trkpt>
      <trkpt lat="43.28013" lon="6.57922">
        <ele>7.146062</ele>
        <time>2020-08-13T07:07:18Z</time>
      </trkpt>
      <trkpt lat="43.28001" lon="6.57899">
        <ele>7.619775</ele>
        <time>2020-08-13T07:07:23Z</time>
      </trkpt>
      <trkpt lat="43.27988" lon="6.57875">
        <ele>7.924925</ele>
        <time>2020-08-13T07:07:28Z</time>
      </trkpt>
      <trkpt lat="43.27975" lon="6.57853">
        <ele>8.002494</ele>
        <time>2020-08-13T07:07:33Z</time>
      </trkpt>
      <trkpt lat="43.27963" lon="6.57832">
        <ele>8.128138</ele>
        <time>2020-08-13T07:07:38Z</time>
      </trkpt>
      <trkpt lat="43.27954" lon="6.57809">
        <ele>8.410007</ele>
        <time>2020-08-13T07:07:43Z</time>
      </trkpt>
      <trkpt lat="43.27946" lon="6.57784">
        <ele>8.797606</ele>
        <time>2020-08-13T07:07:49Z</time>
      </trkpt>
      <trkpt lat="43.27933" lon="6.57755">
        <ele>9</ele>
        <time>2020-08-13T07:07:55Z</time>
      </trkpt>
      <trkpt lat="43.27921" lon="6.57731">
        <ele>9</ele>
        <time>2020-08-13T07:08:00Z</time>
      </trkpt>
      <trkpt lat="43.27909" lon="6.57705">
        <ele>8.757759</ele>
        <time>2020-08-13T07:08:05Z</time>
      </trkpt>
      <trkpt lat="43.27895" lon="6.5768">
        <ele>8.252213</ele>
        <time>2020-08-13T07:08:10Z</time>
      </trkpt>
      <trkpt lat="43.27879" lon="6.57661">
        <ele>8</ele>
        <time>2020-08-13T07:08:15Z</time>
      </trkpt>
      <trkpt lat="43.27861" lon="6.57643">
        <ele>8</ele>
        <time>2020-08-13T07:08:20Z</time>
      </trkpt>
      <trkpt lat="43.27843" lon="6.57625">
        <ele>7.892675</ele>
        <time>2020-08-13T07:08:25Z</time>
      </trkpt>
      <trkpt lat="43.27828" lon="6.57611">
        <ele>7.568656</ele>
        <time>2020-08-13T07:08:29Z</time>
      </trkpt>
      <trkpt lat="43.27809" lon="6.57602">
        <ele>7.1191</ele>
        <time>2020-08-13T07:08:33Z</time>
      </trkpt>
      <trkpt lat="43.27791" lon="6.57597">
        <ele>7.0075</ele>
        <time>2020-08-13T07:08:37Z</time>
      </trkpt>
      <trkpt lat="43.27773" lon="6.57589">
        <ele>6.928081</ele>
        <time>2020-08-13T07:08:42Z</time>
      </trkpt>
      <trkpt lat="43.27754" lon="6.57582">
        <ele>6.8225</ele>
        <time>2020-08-13T07:08:47Z</time>
      </trkpt>
      <trkpt lat="43.27733" lon="6.57573">
        <ele>6.6925</ele>
        <time>2020-08-13T07:08:52Z</time>
      </trkpt>
      <trkpt lat="43.27712" lon="6.57563">
        <ele>6.55375</ele>
        <time>2020-08-13T07:08:57Z</time>
      </trkpt>
      <trkpt lat="43.27691" lon="6.57555">
        <ele>6.45375</ele>
        <time>2020-08-13T07:09:02Z</time>
      </trkpt>
      <trkpt lat="43.2767" lon="6.57548">
        <ele>6.321081</ele>
        <time>2020-08-13T07:09:07Z</time>
      </trkpt>
      <trkpt lat="43.27649" lon="6.57539">
        <ele>6.104656</ele>
        <time>2020-08-13T07:09:12Z</time>
      </trkpt>
      <trkpt lat="43.27629" lon="6.57531">
        <ele>5.976213</ele>
        <time>2020-08-13T07:09:17Z</time>
      </trkpt>
      <trkpt lat="43.27609" lon="6.57524">
        <ele>5.552953</ele>
        <time>2020-08-13T07:09:22Z</time>
      </trkpt>
      <trkpt lat="43.27589" lon="6.57519">
        <ele>5.0825</ele>
        <time>2020-08-13T07:09:27Z</time>
      </trkpt>
      <trkpt lat="43.2757" lon="6.57516">
        <ele>4.96625</ele>
        <time>2020-08-13T07:09:33Z</time>
      </trkpt>
      <trkpt lat="43.2755" lon="6.57506">
        <ele>4.81875</ele>
        <time>2020-08-13T07:09:38Z</time>
      </trkpt>
      <trkpt lat="43.27533" lon="6.57497">
        <ele>4.566259</ele>
        <time>2020-08-13T07:09:42Z</time>
      </trkpt>
      <trkpt lat="43.27515" lon="6.5749">
        <ele>4.242003</ele>
        <time>2020-08-13T07:09:46Z</time>
      </trkpt>
      <trkpt lat="43.27496" lon="6.57485">
        <ele>3.994538</ele>
        <time>2020-08-13T07:09:50Z</time>
      </trkpt>
      <trkpt lat="43.27474" lon="6.5748">
        <ele>3.749378</ele>
        <time>2020-08-13T07:09:55Z</time>
      </trkpt>
      <trkpt lat="43.27454" lon="6.57478">
        <ele>3.526</ele>
        <time>2020-08-13T07:10:00Z</time>
      </trkpt>
      <trkpt lat="43.27437" lon="6.57484">
        <ele>3.262406</ele>
        <time>2020-08-13T07:10:07Z</time>
      </trkpt>
      <trkpt lat="43.27419" lon="6.57484">
        <ele>3.096141</ele>
        <time>2020-08-13T07:10:14Z</time>
      </trkpt>
      <trkpt lat="43.27401" lon="6.57466">
        <ele>3</ele>
        <time>2020-08-13T07:10:20Z</time>
      </trkpt>
      <trkpt lat="43.2738" lon="6.57452">
        <ele>3</ele>
        <time>2020-08-13T07:10:25Z</time>
      </trkpt>
      <trkpt lat="43.27363" lon="6.57445">
        <ele>3.018775</ele>
        <time>2020-08-13T07:10:29Z</time>
      </trkpt>
      <trkpt lat="43.27342" lon="6.57436">
        <ele>3.506238</ele>
        <time>2020-08-13T07:10:34Z</time>
      </trkpt>
      <trkpt lat="43.27322" lon="6.57429">
        <ele>3.953181</ele>
        <time>2020-08-13T07:10:39Z</time>
      </trkpt>
      <trkpt lat="43.27301" lon="6.5742">
        <ele>4</ele>
        <time>2020-08-13T07:10:44Z</time>
      </trkpt>
      <trkpt lat="43.27283" lon="6.5741">
        <ele>4</ele>
        <time>2020-08-13T07:10:49Z</time>
      </trkpt>
      <trkpt lat="43.27265" lon="6.57399">
        <ele>4</ele>
        <time>2020-08-13T07:10:54Z</time>
      </trkpt>
      <trkpt lat="43.27247" lon="6.5739">
        <ele>4</ele>
        <time>2020-08-13T07:10:59Z</time>
      </trkpt>
      <trkpt lat="43.27227" lon="6.57384">
        <ele>4</ele>
        <time>2020-08-13T07:11:04Z</time>
      </trkpt>
      <trkpt lat="43.27207" lon="6.57377">
        <ele>4</ele>
        <time>2020-08-13T07:11:09Z</time>
      </trkpt>
      <trkpt lat="43.27187" lon="6.57368">
        <ele>4</ele>
        <time>2020-08-13T07:11:14Z</time>
      </trkpt>
      <trkpt lat="43.27167" lon="6.57361">
        <ele>4</ele>
        <time>2020-08-13T07:11:19Z</time>
      </trkpt>
      <trkpt lat="43.27149" lon="6.57354">
        <ele>4</ele>
        <time>2020-08-13T07:11:24Z</time>
      </trkpt>
      <trkpt lat="43.27131" lon="6.57348">
        <ele>4</ele>
        <time>2020-08-13T07:11:29Z</time>
      </trkpt>
      <trkpt lat="43.27112" lon="6.5734">
        <ele>4</ele>
        <time>2020-08-13T07:11:34Z</time>
      </trkpt>
      <trkpt lat="43.27093" lon="6.57333">
        <ele>4</ele>
        <time>2020-08-13T07:11:39Z</time>
      </trkpt>
      <trkpt lat="43.27072" lon="6.57327">
        <ele>4</ele>
        <time>2020-08-13T07:11:44Z</time>
      </trkpt>
      <trkpt lat="43.27051" lon="6.57326">
        <ele>4</ele>
        <time>2020-08-13T07:11:49Z</time>
      </trkpt>
      <trkpt lat="43.27032" lon="6.57328">
        <ele>4</ele>
        <time>2020-08-13T07:11:54Z</time>
      </trkpt>
      <trkpt lat="43.27012" lon="6.57334">
        <ele>4</ele>
        <time>2020-08-13T07:11:59Z</time>
      </trkpt>
      <trkpt lat="43.26991" lon="6.57342">
        <ele>4</ele>
        <time>2020-08-13T07:12:04Z</time>
      </trkpt>
      <trkpt lat="43.2697" lon="6.5735">
        <ele>4</ele>
        <time>2020-08-13T07:12:09Z</time>
      </trkpt>
      <trkpt lat="43.26949" lon="6.57357">
        <ele>4</ele>
        <time>2020-08-13T07:12:15Z</time>
      </trkpt>
      <trkpt lat="43.26929" lon="6.57365">
        <ele>4</ele>
        <time>2020-08-13T07:12:20Z</time>
      </trkpt>
      <trkpt lat="43.26909" lon="6.57373">
        <ele>4</ele>
        <time>2020-08-13T07:12:25Z</time>
      </trkpt>
      <trkpt lat="43.26888" lon="6.5738">
        <ele>4</ele>
        <time>2020-08-13T07:12:30Z</time>
      </trkpt>
      <trkpt lat="43.26868" lon="6.57386">
        <ele>4</ele>
        <time>2020-08-13T07:12:35Z</time>
      </trkpt>
      <trkpt lat="43.26853" lon="6.57404">
        <ele>4</ele>
        <time>2020-08-13T07:12:41Z</time>
      </trkpt>
      <trkpt lat="43.26832" lon="6.57408">
        <ele>4</ele>
        <time>2020-08-13T07:12:47Z</time>
      </trkpt>
      <trkpt lat="43.26814" lon="6.57411">
        <ele>4</ele>
        <time>2020-08-13T07:12:52Z</time>
      </trkpt>
      <trkpt lat="43.26795" lon="6.57418">
        <ele>4</ele>
        <time>2020-08-13T07:12:57Z</time>
      </trkpt>
      <trkpt lat="43.26777" lon="6.57425">
        <ele>4</ele>
        <time>2020-08-13T07:13:02Z</time>
      </trkpt>
      <trkpt lat="43.26759" lon="6.57433">
        <ele>4</ele>
        <time>2020-08-13T07:13:07Z</time>
      </trkpt>
      <trkpt lat="43.26741" lon="6.57443">
        <ele>4</ele>
        <time>2020-08-13T07:13:12Z</time>
      </trkpt>
      <trkpt lat="43.26722" lon="6.5745">
        <ele>4.26</ele>
        <time>2020-08-13T07:13:18Z</time>
      </trkpt>
      <trkpt lat="43.26704" lon="6.57458">
        <ele>4.6525</ele>
        <time>2020-08-13T07:13:23Z</time>
      </trkpt>
      <trkpt lat="43.26683" lon="6.57464">
        <ele>5</ele>
        <time>2020-08-13T07:13:28Z</time>
      </trkpt>
      <trkpt lat="43.26664" lon="6.57478">
        <ele>5</ele>
        <time>2020-08-13T07:13:33Z</time>
      </trkpt>
      <trkpt lat="43.26648" lon="6.57497">
        <ele>5</ele>
        <time>2020-08-13T07:13:38Z</time>
      </trkpt>
      <trkpt lat="43.26633" lon="6.57518">
        <ele>5</ele>
        <time>2020-08-13T07:13:43Z</time>
      </trkpt>
      <trkpt lat="43.26618" lon="6.57538">
        <ele>5</ele>
        <time>2020-08-13T07:13:48Z</time>
      </trkpt>
      <trkpt lat="43.26604" lon="6.57557">
        <ele>5</ele>
        <time>2020-08-13T07:13:53Z</time>
      </trkpt>
      <trkpt lat="43.2659" lon="6.57576">
        <ele>5.0775</ele>
        <time>2020-08-13T07:13:58Z</time>
      </trkpt>
      <trkpt lat="43.26574" lon="6.57596">
        <ele>5.405</ele>
        <time>2020-08-13T07:14:03Z</time>
      </trkpt>
      <trkpt lat="43.26562" lon="6.57614">
        <ele>5.675</ele>
        <time>2020-08-13T07:14:07Z</time>
      </trkpt>
      <trkpt lat="43.26547" lon="6.57635">
        <ele>5.99</ele>
        <time>2020-08-13T07:14:12Z</time>
      </trkpt>
      <trkpt lat="43.26538" lon="6.57661">
        <ele>6</ele>
        <time>2020-08-13T07:14:16Z</time>
      </trkpt>
      <trkpt lat="43.26528" lon="6.57687">
        <ele>6</ele>
        <time>2020-08-13T07:14:21Z</time>
      </trkpt>
      <trkpt lat="43.26518" lon="6.57707">
        <ele>6</ele>
        <time>2020-08-13T07:14:26Z</time>
      </trkpt>
      <trkpt lat="43.265" lon="6.57721">
        <ele>6</ele>
        <time>2020-08-13T07:14:32Z</time>
      </trkpt>
      <trkpt lat="43.26494" lon="6.57747">
        <ele>6</ele>
        <time>2020-08-13T07:14:37Z</time>
      </trkpt>
      <trkpt lat="43.26498" lon="6.57772">
        <ele>6</ele>
        <time>2020-08-13T07:14:41Z</time>
      </trkpt>
      <trkpt lat="43.26495" lon="6.57799">
        <ele>6</ele>
        <time>2020-08-13T07:14:46Z</time>
      </trkpt>
      <trkpt lat="43.26489" lon="6.57826">
        <ele>6</ele>
        <time>2020-08-13T07:14:52Z</time>
      </trkpt>
      <trkpt lat="43.26486" lon="6.57857">
        <ele>6</ele>
        <time>2020-08-13T07:14:58Z</time>
      </trkpt>
      <trkpt lat="43.26479" lon="6.57887">
        <ele>5.782081</ele>
        <time>2020-08-13T07:15:03Z</time>
      </trkpt>
      <trkpt lat="43.26474" lon="6.57918">
        <ele>5.475181</ele>
        <time>2020-08-13T07:15:08Z</time>
      </trkpt>
      <trkpt lat="43.26469" lon="6.57943">
        <ele>5.340156</ele>
        <time>2020-08-13T07:15:13Z</time>
      </trkpt>
      <trkpt lat="43.26464" lon="6.57971">
        <ele>5.168656</ele>
        <time>2020-08-13T07:15:19Z</time>
      </trkpt>
      <trkpt lat="43.2646" lon="6.58">
        <ele>5</ele>
        <time>2020-08-13T07:15:25Z</time>
      </trkpt>
      <trkpt lat="43.26455" lon="6.58026">
        <ele>5</ele>
        <time>2020-08-13T07:15:30Z</time>
      </trkpt>
      <trkpt lat="43.26453" lon="6.5805">
        <ele>5</ele>
        <time>2020-08-13T07:15:35Z</time>
      </trkpt>
      <trkpt lat="43.26447" lon="6.58076">
        <ele>5</ele>
        <time>2020-08-13T07:15:40Z</time>
      </trkpt>
      <trkpt lat="43.26435" lon="6.58095">
        <ele>5</ele>
        <time>2020-08-13T07:15:46Z</time>
      </trkpt>
      <trkpt lat="43.26414" lon="6.58088">
        <ele>5</ele>
        <time>2020-08-13T07:15:52Z</time>
      </trkpt>
      <trkpt lat="43.26392" lon="6.5808">
        <ele>5.0187</ele>
        <time>2020-08-13T07:15:57Z</time>
      </trkpt>
      <trkpt lat="43.26373" lon="6.58073">
        <ele>5.2646</ele>
        <time>2020-08-13T07:16:01Z</time>
      </trkpt>
      <trkpt lat="43.26352" lon="6.58065">
        <ele>5.608187</ele>
        <time>2020-08-13T07:16:06Z</time>
      </trkpt>
      <trkpt lat="43.26337" lon="6.58066">
        <ele>5.61625</ele>
        <time>2020-08-13T07:16:17Z</time>
      </trkpt>
      <trkpt lat="43.26332" lon="6.58092">
        <ele>5.1975</ele>
        <time>2020-08-13T07:16:25Z</time>
      </trkpt>
      <trkpt lat="43.26328" lon="6.5812">
        <ele>5</ele>
        <time>2020-08-13T07:16:31Z</time>
      </trkpt>
      <trkpt lat="43.2632" lon="6.58145">
        <ele>5</ele>
        <time>2020-08-13T07:16:38Z</time>
      </trkpt>
      <trkpt lat="43.26316" lon="6.58173">
        <ele>5</ele>
        <time>2020-08-13T07:16:44Z</time>
      </trkpt>
      <trkpt lat="43.26313" lon="6.58202">
        <ele>5</ele>
        <time>2020-08-13T07:16:49Z</time>
      </trkpt>
      <trkpt lat="43.26308" lon="6.5823">
        <ele>4.92375</ele>
        <time>2020-08-13T07:16:56Z</time>
      </trkpt>
      <trkpt lat="43.26298" lon="6.58252">
        <ele>4.55125</ele>
        <time>2020-08-13T07:17:18Z</time>
      </trkpt>
      <trkpt lat="43.26288" lon="6.58272">
        <ele>4.366437</ele>
        <time>2020-08-13T07:17:33Z</time>
      </trkpt>
      <trkpt lat="43.26284" lon="6.58303">
        <ele>4.1692</ele>
        <time>2020-08-13T07:17:39Z</time>
      </trkpt>
      <trkpt lat="43.26278" lon="6.58328">
        <ele>4.101775</ele>
        <time>2020-08-13T07:17:43Z</time>
      </trkpt>
      <trkpt lat="43.2627" lon="6.58356">
        <ele>4</ele>
        <time>2020-08-13T07:17:49Z</time>
      </trkpt>
      <trkpt lat="43.26262" lon="6.58381">
        <ele>4</ele>
        <time>2020-08-13T07:17:54Z</time>
      </trkpt>
      <trkpt lat="43.26241" lon="6.58379">
        <ele>4.13</ele>
        <time>2020-08-13T07:18:00Z</time>
      </trkpt>
      <trkpt lat="43.26222" lon="6.58368">
        <ele>4.5475</ele>
        <time>2020-08-13T07:18:04Z</time>
      </trkpt>
      <trkpt lat="43.26205" lon="6.58359">
        <ele>4.9475</ele>
        <time>2020-08-13T07:18:08Z</time>
      </trkpt>
      <trkpt lat="43.26184" lon="6.58349">
        <ele>5</ele>
        <time>2020-08-13T07:18:13Z</time>
      </trkpt>
      <trkpt lat="43.26166" lon="6.5834">
        <ele>5</ele>
        <time>2020-08-13T07:18:17Z</time>
      </trkpt>
      <trkpt lat="43.26147" lon="6.5833">
        <ele>5</ele>
        <time>2020-08-13T07:18:22Z</time>
      </trkpt>
      <trkpt lat="43.26127" lon="6.5832">
        <ele>5</ele>
        <time>2020-08-13T07:18:27Z</time>
      </trkpt>
      <trkpt lat="43.26108" lon="6.5831">
        <ele>5</ele>
        <time>2020-08-13T07:18:32Z</time>
      </trkpt>
      <trkpt lat="43.26089" lon="6.58301">
        <ele>5</ele>
        <time>2020-08-13T07:18:37Z</time>
      </trkpt>
      <trkpt lat="43.2607" lon="6.58293">
        <ele>5</ele>
        <time>2020-08-13T07:18:42Z</time>
      </trkpt>
      <trkpt lat="43.26052" lon="6.58283">
        <ele>5</ele>
        <time>2020-08-13T07:18:47Z</time>
      </trkpt>
      <trkpt lat="43.26033" lon="6.58273">
        <ele>5</ele>
        <time>2020-08-13T07:18:52Z</time>
      </trkpt>
      <trkpt lat="43.26014" lon="6.58264">
        <ele>5</ele>
        <time>2020-08-13T07:18:57Z</time>
      </trkpt>
      <trkpt lat="43.25995" lon="6.58252">
        <ele>5</ele>
        <time>2020-08-13T07:19:02Z</time>
      </trkpt>
      <trkpt lat="43.25982" lon="6.58234">
        <ele>5.005906</ele>
        <time>2020-08-13T07:19:07Z</time>
      </trkpt>
      <trkpt lat="43.25969" lon="6.58211">
        <ele>5.2573</ele>
        <time>2020-08-13T07:19:12Z</time>
      </trkpt>
      <trkpt lat="43.25955" lon="6.5819">
        <ele>5.702938</ele>
        <time>2020-08-13T07:19:17Z</time>
      </trkpt>
      <trkpt lat="43.25937" lon="6.58175">
        <ele>6</ele>
        <time>2020-08-13T07:19:22Z</time>
      </trkpt>
      <trkpt lat="43.25916" lon="6.58165">
        <ele>6</ele>
        <time>2020-08-13T07:19:27Z</time>
      </trkpt>
      <trkpt lat="43.25898" lon="6.58154">
        <ele>6</ele>
        <time>2020-08-13T07:19:32Z</time>
      </trkpt>
      <trkpt lat="43.25882" lon="6.58145">
        <ele>6</ele>
        <time>2020-08-13T07:19:37Z</time>
      </trkpt>
      <trkpt lat="43.25871" lon="6.58163">
        <ele>6</ele>
        <time>2020-08-13T07:19:47Z</time>
      </trkpt>
      <trkpt lat="43.25864" lon="6.58189">
        <ele>6</ele>
        <time>2020-08-13T07:19:59Z</time>
      </trkpt>
      <trkpt lat="43.25852" lon="6.5821">
        <ele>5.70375</ele>
        <time>2020-08-13T07:20:09Z</time>
      </trkpt>
      <trkpt lat="43.25831" lon="6.58207">
        <ele>5.7225</ele>
        <time>2020-08-13T07:20:14Z</time>
      </trkpt>
      <trkpt lat="43.25814" lon="6.58195">
        <ele>5.9025</ele>
        <time>2020-08-13T07:20:19Z</time>
      </trkpt>
      <trkpt lat="43.25796" lon="6.58184">
        <ele>6</ele>
        <time>2020-08-13T07:20:24Z</time>
      </trkpt>
      <trkpt lat="43.2578" lon="6.58168">
        <ele>6</ele>
        <time>2020-08-13T07:20:30Z</time>
      </trkpt>
      <trkpt lat="43.25761" lon="6.58164">
        <ele>6</ele>
        <time>2020-08-13T07:20:35Z</time>
      </trkpt>
      <trkpt lat="43.25742" lon="6.58173">
        <ele>6</ele>
        <time>2020-08-13T07:20:40Z</time>
      </trkpt>
      <trkpt lat="43.25725" lon="6.5819">
        <ele>5.86625</ele>
        <time>2020-08-13T07:20:45Z</time>
      </trkpt>
      <trkpt lat="43.25709" lon="6.58205">
        <ele>5.60875</ele>
        <time>2020-08-13T07:20:49Z</time>
      </trkpt>
      <trkpt lat="43.25692" lon="6.58221">
        <ele>5.33375</ele>
        <time>2020-08-13T07:20:53Z</time>
      </trkpt>
      <trkpt lat="43.25677" lon="6.58234">
        <ele>5.09375</ele>
        <time>2020-08-13T07:20:57Z</time>
      </trkpt>
      <trkpt lat="43.25659" lon="6.5825">
        <ele>5.150334</ele>
        <time>2020-08-13T07:21:02Z</time>
      </trkpt>
      <trkpt lat="43.25642" lon="6.58263">
        <ele>5.312306</ele>
        <time>2020-08-13T07:21:06Z</time>
      </trkpt>
      <trkpt lat="43.25624" lon="6.58278">
        <ele>5.309025</ele>
        <time>2020-08-13T07:21:11Z</time>
      </trkpt>
      <trkpt lat="43.25605" lon="6.58292">
        <ele>5.395762</ele>
        <time>2020-08-13T07:21:16Z</time>
      </trkpt>
      <trkpt lat="43.25586" lon="6.58305">
        <ele>5.785631</ele>
        <time>2020-08-13T07:21:21Z</time>
      </trkpt>
      <trkpt lat="43.2557" lon="6.58321">
        <ele>6</ele>
        <time>2020-08-13T07:21:25Z</time>
      </trkpt>
      <trkpt lat="43.25554" lon="6.58342">
        <ele>6</ele>
        <time>2020-08-13T07:21:29Z</time>
      </trkpt>
      <trkpt lat="43.2554" lon="6.58365">
        <ele>6</ele>
        <time>2020-08-13T07:21:33Z</time>
      </trkpt>
      <trkpt lat="43.25528" lon="6.58384">
        <ele>6</ele>
        <time>2020-08-13T07:21:37Z</time>
      </trkpt>
      <trkpt lat="43.25516" lon="6.58403">
        <ele>6.180331</ele>
        <time>2020-08-13T07:21:42Z</time>
      </trkpt>
      <trkpt lat="43.25504" lon="6.58423">
        <ele>6.570156</ele>
        <time>2020-08-13T07:21:48Z</time>
      </trkpt>
      <trkpt lat="43.25495" lon="6.58445">
        <ele>6.84785</ele>
        <time>2020-08-13T07:22:52Z</time>
      </trkpt>
      <trkpt lat="43.25501" lon="6.5847">
        <ele>6.974625</ele>
        <time>2020-08-13T07:22:57Z</time>
      </trkpt>
      <trkpt lat="43.25512" lon="6.58496">
        <ele>7.35875</ele>
        <time>2020-08-13T07:23:01Z</time>
      </trkpt>
      <trkpt lat="43.25527" lon="6.58521">
        <ele>7.7475</ele>
        <time>2020-08-13T07:23:05Z</time>
      </trkpt>
      <trkpt lat="43.25541" lon="6.58544">
        <ele>8.09375</ele>
        <time>2020-08-13T07:23:09Z</time>
      </trkpt>
      <trkpt lat="43.25558" lon="6.58564">
        <ele>8.40375</ele>
        <time>2020-08-13T07:23:14Z</time>
      </trkpt>
      <trkpt lat="43.25576" lon="6.58578">
        <ele>8.6125</ele>
        <time>2020-08-13T07:23:20Z</time>
      </trkpt>
      <trkpt lat="43.2557" lon="6.586">
        <ele>8.97875</ele>
        <time>2020-08-13T07:23:27Z</time>
      </trkpt>
      <trkpt lat="43.25549" lon="6.58615">
        <ele>9</ele>
        <time>2020-08-13T07:23:32Z</time>
      </trkpt>
      <trkpt lat="43.25532" lon="6.58628">
        <ele>9</ele>
        <time>2020-08-13T07:23:36Z</time>
      </trkpt>
      <trkpt lat="43.25516" lon="6.58645">
        <ele>9</ele>
        <time>2020-08-13T07:23:41Z</time>
      </trkpt>
      <trkpt lat="43.25507" lon="6.58634">
        <ele>9</ele>
        <time>2020-08-13T07:23:55Z</time>
      </trkpt>
      <trkpt lat="43.25492" lon="6.5861">
        <ele>9</ele>
        <time>2020-08-13T07:24:01Z</time>
      </trkpt>
      <trkpt lat="43.25477" lon="6.58591">
        <ele>8.93125</ele>
        <time>2020-08-13T07:24:06Z</time>
      </trkpt>
      <trkpt lat="43.25461" lon="6.5857">
        <ele>8.728497</ele>
        <time>2020-08-13T07:24:11Z</time>
      </trkpt>
      <trkpt lat="43.25446" lon="6.58555">
        <ele>8.787619</ele>
        <time>2020-08-13T07:24:18Z</time>
      </trkpt>
      <trkpt lat="43.25432" lon="6.58536">
        <ele>8.975147</ele>
        <time>2020-08-13T07:24:24Z</time>
      </trkpt>
      <trkpt lat="43.25421" lon="6.58514">
        <ele>8.97875</ele>
        <time>2020-08-13T07:24:30Z</time>
      </trkpt>
      <trkpt lat="43.25406" lon="6.5849">
        <ele>8.9675</ele>
        <time>2020-08-13T07:24:36Z</time>
      </trkpt>
      <trkpt lat="43.2539" lon="6.58471">
        <ele>9.05125</ele>
        <time>2020-08-13T07:24:41Z</time>
      </trkpt>
      <trkpt lat="43.25372" lon="6.58454">
        <ele>8.7412</ele>
        <time>2020-08-13T07:24:46Z</time>
      </trkpt>
      <trkpt lat="43.25352" lon="6.58438">
        <ele>8.531943</ele>
        <time>2020-08-13T07:24:51Z</time>
      </trkpt>
      <trkpt lat="43.25336" lon="6.58425">
        <ele>8.497063</ele>
        <time>2020-08-13T07:24:55Z</time>
      </trkpt>
      <trkpt lat="43.25319" lon="6.58416">
        <ele>8.4452</ele>
        <time>2020-08-13T07:24:59Z</time>
      </trkpt>
      <trkpt lat="43.253" lon="6.58407">
        <ele>8.365</ele>
        <time>2020-08-13T07:25:03Z</time>
      </trkpt>
      <trkpt lat="43.2528" lon="6.58393">
        <ele>8.883637</ele>
        <time>2020-08-13T07:25:08Z</time>
      </trkpt>
      <trkpt lat="43.25263" lon="6.58379">
        <ele>9.286525</ele>
        <time>2020-08-13T07:25:13Z</time>
      </trkpt>
      <trkpt lat="43.25244" lon="6.58362">
        <ele>9.5975</ele>
        <time>2020-08-13T07:25:18Z</time>
      </trkpt>
      <trkpt lat="43.2523" lon="6.58343">
        <ele>9.67</ele>
        <time>2020-08-13T07:25:22Z</time>
      </trkpt>
      <trkpt lat="43.25217" lon="6.58322">
        <ele>9.635076</ele>
        <time>2020-08-13T07:25:26Z</time>
      </trkpt>
      <trkpt lat="43.25203" lon="6.58301">
        <ele>9.675</ele>
        <time>2020-08-13T07:25:30Z</time>
      </trkpt>
      <trkpt lat="43.25187" lon="6.58282">
        <ele>9.815</ele>
        <time>2020-08-13T07:25:34Z</time>
      </trkpt>
      <trkpt lat="43.25171" lon="6.58265">
        <ele>10.08024</ele>
        <time>2020-08-13T07:25:38Z</time>
      </trkpt>
      <trkpt lat="43.25154" lon="6.58249">
        <ele>10.5525</ele>
        <time>2020-08-13T07:25:42Z</time>
      </trkpt>
      <trkpt lat="43.25137" lon="6.58233">
        <ele>10.665025</ele>
        <time>2020-08-13T07:25:46Z</time>
      </trkpt>
      <trkpt lat="43.25121" lon="6.58216">
        <ele>10.73</ele>
        <time>2020-08-13T07:25:50Z</time>
      </trkpt>
      <trkpt lat="43.25105" lon="6.58199">
        <ele>11.25</ele>
        <time>2020-08-13T07:25:54Z</time>
      </trkpt>
      <trkpt lat="43.25088" lon="6.58182">
        <ele>11.800625</ele>
        <time>2020-08-13T07:25:58Z</time>
      </trkpt>
      <trkpt lat="43.25069" lon="6.58165">
        <ele>12.110432</ele>
        <time>2020-08-13T07:26:02Z</time>
      </trkpt>
      <trkpt lat="43.2505" lon="6.58154">
        <ele>12.581437</ele>
        <time>2020-08-13T07:26:06Z</time>
      </trkpt>
      <trkpt lat="43.25032" lon="6.58148">
        <ele>13.159175</ele>
        <time>2020-08-13T07:26:10Z</time>
      </trkpt>
      <trkpt lat="43.25014" lon="6.5814">
        <ele>13.719704</ele>
        <time>2020-08-13T07:26:15Z</time>
      </trkpt>
      <trkpt lat="43.24995" lon="6.58129">
        <ele>14.212969</ele>
        <time>2020-08-13T07:26:20Z</time>
      </trkpt>
      <trkpt lat="43.24974" lon="6.58117">
        <ele>14.9952</ele>
        <time>2020-08-13T07:26:25Z</time>
      </trkpt>
      <trkpt lat="43.24957" lon="6.58109">
        <ele>15.599563</ele>
        <time>2020-08-13T07:26:29Z</time>
      </trkpt>
      <trkpt lat="43.24939" lon="6.58101">
        <ele>15.555688</ele>
        <time>2020-08-13T07:26:33Z</time>
      </trkpt>
      <trkpt lat="43.24918" lon="6.58093">
        <ele>15.389953</ele>
        <time>2020-08-13T07:26:38Z</time>
      </trkpt>
      <trkpt lat="43.24897" lon="6.58087">
        <ele>15.713493</ele>
        <time>2020-08-13T07:26:43Z</time>
      </trkpt>
      <trkpt lat="43.24876" lon="6.58082">
        <ele>16.512438</ele>
        <time>2020-08-13T07:26:48Z</time>
      </trkpt>
      <trkpt lat="43.24855" lon="6.5807">
        <ele>16.03385</ele>
        <time>2020-08-13T07:26:53Z</time>
      </trkpt>
      <trkpt lat="43.24838" lon="6.58057">
        <ele>15.158281</ele>
        <time>2020-08-13T07:26:57Z</time>
      </trkpt>
      <trkpt lat="43.2482" lon="6.58043">
        <ele>15.087513</ele>
        <time>2020-08-13T07:27:01Z</time>
      </trkpt>
      <trkpt lat="43.24803" lon="6.5803">
        <ele>15.986913</ele>
        <time>2020-08-13T07:27:05Z</time>
      </trkpt>
      <trkpt lat="43.24786" lon="6.58012">
        <ele>15.891119</ele>
        <time>2020-08-13T07:27:10Z</time>
      </trkpt>
      <trkpt lat="43.24773" lon="6.57987">
        <ele>14.263912</ele>
        <time>2020-08-13T07:27:15Z</time>
      </trkpt>
      <trkpt lat="43.24762" lon="6.57961">
        <ele>13.605988</ele>
        <time>2020-08-13T07:27:20Z</time>
      </trkpt>
      <trkpt lat="43.24756" lon="6.57937">
        <ele>12.641768</ele>
        <time>2020-08-13T07:27:24Z</time>
      </trkpt>
      <trkpt lat="43.24752" lon="6.57911">
        <ele>12.02125</ele>
        <time>2020-08-13T07:27:28Z</time>
      </trkpt>
      <trkpt lat="43.24748" lon="6.57886">
        <ele>11.86375</ele>
        <time>2020-08-13T07:27:32Z</time>
      </trkpt>
      <trkpt lat="43.24741" lon="6.57863">
        <ele>11.820675</ele>
        <time>2020-08-13T07:27:36Z</time>
      </trkpt>
      <trkpt lat="43.24732" lon="6.57842">
        <ele>12.046234</ele>
        <time>2020-08-13T07:27:40Z</time>
      </trkpt>
      <trkpt lat="43.24718" lon="6.57824">
        <ele>12.275275</ele>
        <time>2020-08-13T07:27:44Z</time>
      </trkpt>
      <trkpt lat="43.24701" lon="6.57812">
        <ele>12.665575</ele>
        <time>2020-08-13T07:27:48Z</time>
      </trkpt>
      <trkpt lat="43.24685" lon="6.578">
        <ele>12.967825</ele>
        <time>2020-08-13T07:27:52Z</time>
      </trkpt>
      <trkpt lat="43.24665" lon="6.57786">
        <ele>13.11475</ele>
        <time>2020-08-13T07:27:57Z</time>
      </trkpt>
      <trkpt lat="43.24649" lon="6.57774">
        <ele>13.39</ele>
        <time>2020-08-13T07:28:01Z</time>
      </trkpt>
      <trkpt lat="43.24629" lon="6.57759">
        <ele>14.0575</ele>
        <time>2020-08-13T07:28:06Z</time>
      </trkpt>
      <trkpt lat="43.24612" lon="6.57743">
        <ele>14.69375</ele>
        <time>2020-08-13T07:28:11Z</time>
      </trkpt>
      <trkpt lat="43.24595" lon="6.57726">
        <ele>15.318141</ele>
        <time>2020-08-13T07:28:16Z</time>
      </trkpt>
      <trkpt lat="43.24582" lon="6.57706">
        <ele>15.7465</ele>
        <time>2020-08-13T07:28:21Z</time>
      </trkpt>
      <trkpt lat="43.2457" lon="6.57682">
        <ele>15.96955</ele>
        <time>2020-08-13T07:28:26Z</time>
      </trkpt>
      <trkpt lat="43.24558" lon="6.57658">
        <ele>16</ele>
        <time>2020-08-13T07:28:30Z</time>
      </trkpt>
      <trkpt lat="43.24546" lon="6.57632">
        <ele>16</ele>
        <time>2020-08-13T07:28:34Z</time>
      </trkpt>
      <trkpt lat="43.24532" lon="6.57606">
        <ele>16</ele>
        <time>2020-08-13T07:28:38Z</time>
      </trkpt>
      <trkpt lat="43.24519" lon="6.57585">
        <ele>16</ele>
        <time>2020-08-13T07:28:42Z</time>
      </trkpt>
      <trkpt lat="43.245" lon="6.57568">
        <ele>16</ele>
        <time>2020-08-13T07:28:47Z</time>
      </trkpt>
      <trkpt lat="43.24483" lon="6.57557">
        <ele>16</ele>
        <time>2020-08-13T07:28:51Z</time>
      </trkpt>
      <trkpt lat="43.24462" lon="6.57542">
        <ele>16.0485</ele>
        <time>2020-08-13T07:28:55Z</time>
      </trkpt>
      <trkpt lat="43.24448" lon="6.57525">
        <ele>15.96115</ele>
        <time>2020-08-13T07:28:58Z</time>
      </trkpt>
      <trkpt lat="43.2444" lon="6.57504">
        <ele>15.965653</ele>
        <time>2020-08-13T07:29:01Z</time>
      </trkpt>
      <trkpt lat="43.24432" lon="6.57477">
        <ele>16.145584</ele>
        <time>2020-08-13T07:29:05Z</time>
      </trkpt>
      <trkpt lat="43.24426" lon="6.57454">
        <ele>16.094234</ele>
        <time>2020-08-13T07:29:09Z</time>
      </trkpt>
      <trkpt lat="43.24418" lon="6.57427">
        <ele>16.111437</ele>
        <time>2020-08-13T07:29:14Z</time>
      </trkpt>
      <trkpt lat="43.24411" lon="6.57401">
        <ele>16.325001</ele>
        <time>2020-08-13T07:29:19Z</time>
      </trkpt>
      <trkpt lat="43.24404" lon="6.57378">
        <ele>16.65</ele>
        <time>2020-08-13T07:29:23Z</time>
      </trkpt>
      <trkpt lat="43.24397" lon="6.57352">
        <ele>17.015312</ele>
        <time>2020-08-13T07:29:27Z</time>
      </trkpt>
      <trkpt lat="43.24389" lon="6.57328">
        <ele>16.940001</ele>
        <time>2020-08-13T07:29:31Z</time>
      </trkpt>
      <trkpt lat="43.2439" lon="6.57303">
        <ele>16.533751</ele>
        <time>2020-08-13T07:29:36Z</time>
      </trkpt>
      <trkpt lat="43.24411" lon="6.57302">
        <ele>15.956615</ele>
        <time>2020-08-13T07:29:41Z</time>
      </trkpt>
      <trkpt lat="43.24435" lon="6.57304">
        <ele>15.2592</ele>
        <time>2020-08-13T07:29:46Z</time>
      </trkpt>
      <trkpt lat="43.24456" lon="6.57301">
        <ele>14.7525</ele>
        <time>2020-08-13T07:29:50Z</time>
      </trkpt>
      <trkpt lat="43.24474" lon="6.57292">
        <ele>14.35</ele>
        <time>2020-08-13T07:29:54Z</time>
      </trkpt>
      <trkpt lat="43.24491" lon="6.57278">
        <ele>14</ele>
        <time>2020-08-13T07:29:58Z</time>
      </trkpt>
      <trkpt lat="43.24503" lon="6.57257">
        <ele>14</ele>
        <time>2020-08-13T07:30:02Z</time>
      </trkpt>
      <trkpt lat="43.24514" lon="6.57233">
        <ele>14</ele>
        <time>2020-08-13T07:30:06Z</time>
      </trkpt>
      <trkpt lat="43.24525" lon="6.57207">
        <ele>14.4025</ele>
        <time>2020-08-13T07:30:10Z</time>
      </trkpt>
      <trkpt lat="43.24535" lon="6.57183">
        <ele>14.80875</ele>
        <time>2020-08-13T07:30:14Z</time>
      </trkpt>
      <trkpt lat="43.24544" lon="6.57161">
        <ele>15.4225</ele>
        <time>2020-08-13T07:30:18Z</time>
      </trkpt>
      <trkpt lat="43.24553" lon="6.5714">
        <ele>16.3125</ele>
        <time>2020-08-13T07:30:40Z</time>
      </trkpt>
      <trkpt lat="43.24563" lon="6.57113">
        <ele>17.4375</ele>
        <time>2020-08-13T07:30:46Z</time>
      </trkpt>
      <trkpt lat="43.2457" lon="6.57088">
        <ele>18.778749</ele>
        <time>2020-08-13T07:30:50Z</time>
      </trkpt>
      <trkpt lat="43.24553" lon="6.57076">
        <ele>18.914999</ele>
        <time>2020-08-13T07:30:56Z</time>
      </trkpt>
      <trkpt lat="43.24532" lon="6.57066">
        <ele>18.929937</ele>
        <time>2020-08-13T07:31:01Z</time>
      </trkpt>
      <trkpt lat="43.24515" lon="6.57054">
        <ele>19.069456</ele>
        <time>2020-08-13T07:31:06Z</time>
      </trkpt>
      <trkpt lat="43.24497" lon="6.57044">
        <ele>18.967501</ele>
        <time>2020-08-13T07:31:11Z</time>
      </trkpt>
      <trkpt lat="43.24478" lon="6.57035">
        <ele>18.799999</ele>
        <time>2020-08-13T07:31:16Z</time>
      </trkpt>
      <trkpt lat="43.24457" lon="6.5702">
        <ele>18.745001</ele>
        <time>2020-08-13T07:31:21Z</time>
      </trkpt>
      <trkpt lat="43.24439" lon="6.57003">
        <ele>18.852501</ele>
        <time>2020-08-13T07:31:25Z</time>
      </trkpt>
      <trkpt lat="43.24422" lon="6.56987">
        <ele>18.942499</ele>
        <time>2020-08-13T07:31:30Z</time>
      </trkpt>
      <trkpt lat="43.24405" lon="6.56975">
        <ele>18.9098</ele>
        <time>2020-08-13T07:31:36Z</time>
      </trkpt>
      <trkpt lat="43.24402" lon="6.56954">
        <ele>19.682482</ele>
        <time>2020-08-13T07:31:44Z</time>
      </trkpt>
      <trkpt lat="43.24403" lon="6.56926">
        <ele>20.802362</ele>
        <time>2020-08-13T07:31:50Z</time>
      </trkpt>
      <trkpt lat="43.244" lon="6.569">
        <ele>21.411249</ele>
        <time>2020-08-13T07:31:56Z</time>
      </trkpt>
      <trkpt lat="43.24401" lon="6.56873">
        <ele>22.124235</ele>
        <time>2020-08-13T07:32:01Z</time>
      </trkpt>
      <trkpt lat="43.24407" lon="6.56848">
        <ele>23.168062</ele>
        <time>2020-08-13T07:32:06Z</time>
      </trkpt>
      <trkpt lat="43.24414" lon="6.56823">
        <ele>24.157787</ele>
        <time>2020-08-13T07:32:13Z</time>
      </trkpt>
      <trkpt lat="43.24419" lon="6.56799">
        <ele>24.861113</ele>
        <time>2020-08-13T07:32:21Z</time>
      </trkpt>
      <trkpt lat="43.2443" lon="6.56777">
        <ele>26.0319</ele>
        <time>2020-08-13T07:32:28Z</time>
      </trkpt>
      <trkpt lat="43.24438" lon="6.56754">
        <ele>26.645893</ele>
        <time>2020-08-13T07:32:36Z</time>
      </trkpt>
      <trkpt lat="43.24446" lon="6.56729">
        <ele>27.172087</ele>
        <time>2020-08-13T07:32:46Z</time>
      </trkpt>
      <trkpt lat="43.24456" lon="6.56703">
        <ele>28.108219</ele>
        <time>2020-08-13T07:32:55Z</time>
      </trkpt>
      <trkpt lat="43.24462" lon="6.56677">
        <ele>28.786751</ele>
        <time>2020-08-13T07:33:05Z</time>
      </trkpt>
      <trkpt lat="43.24471" lon="6.56654">
        <ele>30.014357</ele>
        <time>2020-08-13T07:33:14Z</time>
      </trkpt>
      <trkpt lat="43.24479" lon="6.56632">
        <ele>31.514944</ele>
        <time>2020-08-13T07:33:24Z</time>
      </trkpt>
      <trkpt lat="43.24487" lon="6.56607">
        <ele>33.203751</ele>
        <time>2020-08-13T07:33:34Z</time>
      </trkpt>
      <trkpt lat="43.24491" lon="6.5658">
        <ele>35.598751</ele>
        <time>2020-08-13T07:33:46Z</time>
      </trkpt>
      <trkpt lat="43.24492" lon="6.56552">
        <ele>37.83102</ele>
        <time>2020-08-13T07:33:58Z</time>
      </trkpt>
      <trkpt lat="43.24491" lon="6.56527">
        <ele>40.291451</ele>
        <time>2020-08-13T07:34:12Z</time>
      </trkpt>
      <trkpt lat="43.2449" lon="6.56495">
        <ele>43.440975</ele>
        <time>2020-08-13T07:34:27Z</time>
      </trkpt>
      <trkpt lat="43.24485" lon="6.56468">
        <ele>46.162899</ele>
        <time>2020-08-13T07:34:40Z</time>
      </trkpt>
      <trkpt lat="43.24483" lon="6.5644">
        <ele>49.048351</ele>
        <time>2020-08-13T07:34:51Z</time>
      </trkpt>
      <trkpt lat="43.24477" lon="6.56414">
        <ele>51.212337</ele>
        <time>2020-08-13T07:35:03Z</time>
      </trkpt>
      <trkpt lat="43.24475" lon="6.56385">
        <ele>53.77808</ele>
        <time>2020-08-13T07:35:17Z</time>
      </trkpt>
      <trkpt lat="43.24473" lon="6.56356">
        <ele>56.205002</ele>
        <time>2020-08-13T07:35:32Z</time>
      </trkpt>
      <trkpt lat="43.24467" lon="6.56333">
        <ele>57.596249</ele>
        <time>2020-08-13T07:35:44Z</time>
      </trkpt>
      <trkpt lat="43.24457" lon="6.5631">
        <ele>58.685001</ele>
        <time>2020-08-13T07:35:56Z</time>
      </trkpt>
      <trkpt lat="43.2445" lon="6.56285">
        <ele>60.147202</ele>
        <time>2020-08-13T07:36:09Z</time>
      </trkpt>
      <trkpt lat="43.2444" lon="6.56256">
        <ele>61.744976</ele>
        <time>2020-08-13T07:36:23Z</time>
      </trkpt>
      <trkpt lat="43.24435" lon="6.56226">
        <ele>64.309998</ele>
        <time>2020-08-13T07:36:39Z</time>
      </trkpt>
      <trkpt lat="43.24428" lon="6.56196">
        <ele>66.919998</ele>
        <time>2020-08-13T07:36:54Z</time>
      </trkpt>
      <trkpt lat="43.24424" lon="6.56169">
        <ele>68.739998</ele>
        <time>2020-08-13T07:37:06Z</time>
      </trkpt>
      <trkpt lat="43.24427" lon="6.56141">
        <ele>69.6175</ele>
        <time>2020-08-13T07:37:19Z</time>
      </trkpt>
      <trkpt lat="43.2442" lon="6.56118">
        <ele>70.527496</ele>
        <time>2020-08-13T07:37:29Z</time>
      </trkpt>
      <trkpt lat="43.24407" lon="6.56102">
        <ele>70.938126</ele>
        <time>2020-08-13T07:37:40Z</time>
      </trkpt>
      <trkpt lat="43.24388" lon="6.56101">
        <ele>71.240234</ele>
        <time>2020-08-13T07:38:40Z</time>
      </trkpt>
      <trkpt lat="43.24368" lon="6.56108">
        <ele>71.67942</ele>
        <time>2020-08-13T07:38:50Z</time>
      </trkpt>
      <trkpt lat="43.24348" lon="6.56105">
        <ele>72.105003</ele>
        <time>2020-08-13T07:38:58Z</time>
      </trkpt>
      <trkpt lat="43.24327" lon="6.56101">
        <ele>72.542503</ele>
        <time>2020-08-13T07:39:05Z</time>
      </trkpt>
      <trkpt lat="43.24308" lon="6.56097">
        <ele>72.955276</ele>
        <time>2020-08-13T07:39:12Z</time>
      </trkpt>
      <trkpt lat="43.24288" lon="6.56098">
        <ele>73.538399</ele>
        <time>2020-08-13T07:39:19Z</time>
      </trkpt>
      <trkpt lat="43.2427" lon="6.56091">
        <ele>74.151375</ele>
        <time>2020-08-13T07:39:25Z</time>
      </trkpt>
      <trkpt lat="43.24251" lon="6.56079">
        <ele>75.656334</ele>
        <time>2020-08-13T07:39:33Z</time>
      </trkpt>
      <trkpt lat="43.24233" lon="6.56069">
        <ele>77.294571</ele>
        <time>2020-08-13T07:39:42Z</time>
      </trkpt>
      <trkpt lat="43.24215" lon="6.56063">
        <ele>79.823776</ele>
        <time>2020-08-13T07:39:51Z</time>
      </trkpt>
      <trkpt lat="43.24197" lon="6.56063">
        <ele>83.211609</ele>
        <time>2020-08-13T07:40:04Z</time>
      </trkpt>
      <trkpt lat="43.24183" lon="6.56081">
        <ele>84.919327</ele>
        <time>2020-08-13T07:40:17Z</time>
      </trkpt>
      <trkpt lat="43.2417" lon="6.56101">
        <ele>85.888252</ele>
        <time>2020-08-13T07:40:29Z</time>
      </trkpt>
      <trkpt lat="43.24154" lon="6.56112">
        <ele>87.376854</ele>
        <time>2020-08-13T07:40:42Z</time>
      </trkpt>
      <trkpt lat="43.24135" lon="6.56117">
        <ele>89.508858</ele>
        <time>2020-08-13T07:40:56Z</time>
      </trkpt>
      <trkpt lat="43.24124" lon="6.56098">
        <ele>92.763672</ele>
        <time>2020-08-13T07:41:11Z</time>
      </trkpt>
      <trkpt lat="43.24114" lon="6.56075">
        <ele>95.447472</ele>
        <time>2020-08-13T07:41:26Z</time>
      </trkpt>
      <trkpt lat="43.24103" lon="6.56054">
        <ele>98.283569</ele>
        <time>2020-08-13T07:41:42Z</time>
      </trkpt>
      <trkpt lat="43.24093" lon="6.56032">
        <ele>101.564003</ele>
        <time>2020-08-13T07:41:57Z</time>
      </trkpt>
      <trkpt lat="43.24083" lon="6.5601">
        <ele>102.791222</ele>
        <time>2020-08-13T07:42:13Z</time>
      </trkpt>
      <trkpt lat="43.24072" lon="6.5599">
        <ele>103.831093</ele>
        <time>2020-08-13T07:42:27Z</time>
      </trkpt>
      <trkpt lat="43.24057" lon="6.55974">
        <ele>105.154167</ele>
        <time>2020-08-13T07:43:13Z</time>
      </trkpt>
      <trkpt lat="43.24042" lon="6.55958">
        <ele>106.474998</ele>
        <time>2020-08-13T07:43:19Z</time>
      </trkpt>
      <trkpt lat="43.24025" lon="6.55943">
        <ele>107.720001</ele>
        <time>2020-08-13T07:43:25Z</time>
      </trkpt>
      <trkpt lat="43.24007" lon="6.55938">
        <ele>108.635002</ele>
        <time>2020-08-13T07:43:32Z</time>
      </trkpt>
      <trkpt lat="43.23987" lon="6.5594">
        <ele>109.293999</ele>
        <time>2020-08-13T07:43:40Z</time>
      </trkpt>
      <trkpt lat="43.23969" lon="6.55942">
        <ele>109.885063</ele>
        <time>2020-08-13T07:43:49Z</time>
      </trkpt>
      <trkpt lat="43.2395" lon="6.55946">
        <ele>110.524002</ele>
        <time>2020-08-13T07:43:58Z</time>
      </trkpt>
      <trkpt lat="43.23931" lon="6.55947">
        <ele>111.245087</ele>
        <time>2020-08-13T07:44:07Z</time>
      </trkpt>
      <trkpt lat="43.23913" lon="6.55945">
        <ele>112.050003</ele>
        <time>2020-08-13T07:44:13Z</time>
      </trkpt>
      <trkpt lat="43.23894" lon="6.55938">
        <ele>114.175003</ele>
        <time>2020-08-13T07:44:18Z</time>
      </trkpt>
      <trkpt lat="43.23875" lon="6.55936">
        <ele>116.262497</ele>
        <time>2020-08-13T07:44:24Z</time>
      </trkpt>
      <trkpt lat="43.23855" lon="6.55932">
        <ele>118.785004</ele>
        <time>2020-08-13T07:44:32Z</time>
      </trkpt>
      <trkpt lat="43.23837" lon="6.55927">
        <ele>121.290001</ele>
        <time>2020-08-13T07:44:40Z</time>
      </trkpt>
      <trkpt lat="43.23816" lon="6.55922">
        <ele>123.774559</ele>
        <time>2020-08-13T07:44:47Z</time>
      </trkpt>
      <trkpt lat="43.23798" lon="6.5591">
        <ele>125.549828</ele>
        <time>2020-08-13T07:44:55Z</time>
      </trkpt>
      <trkpt lat="43.23779" lon="6.55915">
        <ele>127.495003</ele>
        <time>2020-08-13T07:45:04Z</time>
      </trkpt>
      <trkpt lat="43.23761" lon="6.55928">
        <ele>128.605759</ele>
        <time>2020-08-13T07:45:13Z</time>
      </trkpt>
      <trkpt lat="43.23741" lon="6.55933">
        <ele>129.905975</ele>
        <time>2020-08-13T07:45:20Z</time>
      </trkpt>
      <trkpt lat="43.2372" lon="6.55934">
        <ele>129.960892</ele>
        <time>2020-08-13T07:45:26Z</time>
      </trkpt>
      <trkpt lat="43.23702" lon="6.5593">
        <ele>128.995132</ele>
        <time>2020-08-13T07:45:30Z</time>
      </trkpt>
      <trkpt lat="43.2368" lon="6.5592">
        <ele>127.749977</ele>
        <time>2020-08-13T07:45:34Z</time>
      </trkpt>
      <trkpt lat="43.23662" lon="6.5591">
        <ele>126.724228</ele>
        <time>2020-08-13T07:45:37Z</time>
      </trkpt>
      <trkpt lat="43.23645" lon="6.55897">
        <ele>125.702499</ele>
        <time>2020-08-13T07:45:40Z</time>
      </trkpt>
      <trkpt lat="43.23628" lon="6.55882">
        <ele>124.120003</ele>
        <time>2020-08-13T07:45:43Z</time>
      </trkpt>
      <trkpt lat="43.23611" lon="6.55869">
        <ele>122.322502</ele>
        <time>2020-08-13T07:45:47Z</time>
      </trkpt>
      <trkpt lat="43.23598" lon="6.55851">
        <ele>119.462326</ele>
        <time>2020-08-13T07:45:51Z</time>
      </trkpt>
      <trkpt lat="43.23583" lon="6.55834">
        <ele>115.697342</ele>
        <time>2020-08-13T07:45:55Z</time>
      </trkpt>
      <trkpt lat="43.23565" lon="6.55822">
        <ele>112.116692</ele>
        <time>2020-08-13T07:45:58Z</time>
      </trkpt>
      <trkpt lat="43.23539" lon="6.55807">
        <ele>107.860748</ele>
        <time>2020-08-13T07:46:01Z</time>
      </trkpt>
      <trkpt lat="43.23522" lon="6.55794">
        <ele>105.638199</ele>
        <time>2020-08-13T07:46:03Z</time>
      </trkpt>
      <trkpt lat="43.23504" lon="6.55774">
        <ele>104.147499</ele>
        <time>2020-08-13T07:46:06Z</time>
      </trkpt>
      <trkpt lat="43.23484" lon="6.55758">
        <ele>103.376999</ele>
        <time>2020-08-13T07:46:09Z</time>
      </trkpt>
      <trkpt lat="43.2346" lon="6.55747">
        <ele>102.929298</ele>
        <time>2020-08-13T07:46:12Z</time>
      </trkpt>
      <trkpt lat="43.23437" lon="6.55735">
        <ele>102.902496</ele>
        <time>2020-08-13T07:46:15Z</time>
      </trkpt>
      <trkpt lat="43.23417" lon="6.55724">
        <ele>101.598358</ele>
        <time>2020-08-13T07:46:18Z</time>
      </trkpt>
      <trkpt lat="43.23402" lon="6.55707">
        <ele>99.487251</ele>
        <time>2020-08-13T07:46:22Z</time>
      </trkpt>
      <trkpt lat="43.23387" lon="6.5569">
        <ele>97.603996</ele>
        <time>2020-08-13T07:46:26Z</time>
      </trkpt>
      <trkpt lat="43.23374" lon="6.55672">
        <ele>95.679558</ele>
        <time>2020-08-13T07:46:29Z</time>
      </trkpt>
      <trkpt lat="43.2336" lon="6.55647">
        <ele>92.967949</ele>
        <time>2020-08-13T07:46:32Z</time>
      </trkpt>
      <trkpt lat="43.23346" lon="6.55631">
        <ele>91.175003</ele>
        <time>2020-08-13T07:46:34Z</time>
      </trkpt>
      <trkpt lat="43.2333" lon="6.55616">
        <ele>89.478485</ele>
        <time>2020-08-13T07:46:36Z</time>
      </trkpt>
      <trkpt lat="43.23314" lon="6.55601">
        <ele>88.223747</ele>
        <time>2020-08-13T07:46:38Z</time>
      </trkpt>
      <trkpt lat="43.23299" lon="6.55585">
        <ele>87.432114</ele>
        <time>2020-08-13T07:46:40Z</time>
      </trkpt>
      <trkpt lat="43.23281" lon="6.55565">
        <ele>87.485306</ele>
        <time>2020-08-13T07:46:43Z</time>
      </trkpt>
      <trkpt lat="43.23265" lon="6.5555">
        <ele>88.193871</ele>
        <time>2020-08-13T07:46:46Z</time>
      </trkpt>
      <trkpt lat="43.23248" lon="6.55536">
        <ele>89.236366</ele>
        <time>2020-08-13T07:46:51Z</time>
      </trkpt>
      <trkpt lat="43.23232" lon="6.55522">
        <ele>90.116875</ele>
        <time>2020-08-13T07:46:59Z</time>
      </trkpt>
      <trkpt lat="43.23214" lon="6.55511">
        <ele>91.516281</ele>
        <time>2020-08-13T07:47:08Z</time>
      </trkpt>
      <trkpt lat="43.23197" lon="6.55501">
        <ele>92.357498</ele>
        <time>2020-08-13T07:47:17Z</time>
      </trkpt>
      <trkpt lat="43.23178" lon="6.55494">
        <ele>92.9925</ele>
        <time>2020-08-13T07:47:25Z</time>
      </trkpt>
      <trkpt lat="43.23161" lon="6.55486">
        <ele>93.442184</ele>
        <time>2020-08-13T07:47:33Z</time>
      </trkpt>
      <trkpt lat="43.23143" lon="6.55483">
        <ele>93.427589</ele>
        <time>2020-08-13T07:47:40Z</time>
      </trkpt>
      <trkpt lat="43.23123" lon="6.55471">
        <ele>93.81778</ele>
        <time>2020-08-13T07:47:47Z</time>
      </trkpt>
      <trkpt lat="43.2311" lon="6.55448">
        <ele>93.019623</ele>
        <time>2020-08-13T07:47:51Z</time>
      </trkpt>
      <trkpt lat="43.23098" lon="6.55427">
        <ele>92.391953</ele>
        <time>2020-08-13T07:47:54Z</time>
      </trkpt>
      <trkpt lat="43.23082" lon="6.55405">
        <ele>92.02594</ele>
        <time>2020-08-13T07:47:57Z</time>
      </trkpt>
      <trkpt lat="43.23065" lon="6.55381">
        <ele>88.908066</ele>
        <time>2020-08-13T07:48:00Z</time>
      </trkpt>
      <trkpt lat="43.23047" lon="6.55357">
        <ele>86.236</ele>
        <time>2020-08-13T07:48:03Z</time>
      </trkpt>
      <trkpt lat="43.23028" lon="6.55332">
        <ele>84.171684</ele>
        <time>2020-08-13T07:48:06Z</time>
      </trkpt>
      <trkpt lat="43.23008" lon="6.55309">
        <ele>82.857948</ele>
        <time>2020-08-13T07:48:09Z</time>
      </trkpt>
      <trkpt lat="43.22991" lon="6.55292">
        <ele>82.639473</ele>
        <time>2020-08-13T07:48:12Z</time>
      </trkpt>
      <trkpt lat="43.22973" lon="6.55276">
        <ele>82.846832</ele>
        <time>2020-08-13T07:48:16Z</time>
      </trkpt>
      <trkpt lat="43.22959" lon="6.55262">
        <ele>83.317955</ele>
        <time>2020-08-13T07:48:21Z</time>
      </trkpt>
      <trkpt lat="43.22945" lon="6.55242">
        <ele>84.373482</ele>
        <time>2020-08-13T07:48:27Z</time>
      </trkpt>
      <trkpt lat="43.22934" lon="6.55219">
        <ele>86.012161</ele>
        <time>2020-08-13T07:48:32Z</time>
      </trkpt>
      <trkpt lat="43.22923" lon="6.55196">
        <ele>87.62056</ele>
        <time>2020-08-13T07:48:38Z</time>
      </trkpt>
      <trkpt lat="43.22912" lon="6.55177">
        <ele>88.763611</ele>
        <time>2020-08-13T07:48:45Z</time>
      </trkpt>
      <trkpt lat="43.22899" lon="6.55159">
        <ele>89.037498</ele>
        <time>2020-08-13T07:48:51Z</time>
      </trkpt>
      <trkpt lat="43.22884" lon="6.55145">
        <ele>88.732498</ele>
        <time>2020-08-13T07:48:56Z</time>
      </trkpt>
      <trkpt lat="43.22875" lon="6.55122">
        <ele>86.709389</ele>
        <time>2020-08-13T07:49:01Z</time>
      </trkpt>
      <trkpt lat="43.22872" lon="6.5509">
        <ele>83.924431</ele>
        <time>2020-08-13T07:49:05Z</time>
      </trkpt>
      <trkpt lat="43.22876" lon="6.55067">
        <ele>82.277199</ele>
        <time>2020-08-13T07:49:10Z</time>
      </trkpt>
      <trkpt lat="43.22897" lon="6.55062">
        <ele>81.424576</ele>
        <time>2020-08-13T07:49:16Z</time>
      </trkpt>
      <trkpt lat="43.22919" lon="6.55061">
        <ele>80.723595</ele>
        <time>2020-08-13T07:49:21Z</time>
      </trkpt>
      <trkpt lat="43.22938" lon="6.5506">
        <ele>79.830002</ele>
        <time>2020-08-13T07:49:25Z</time>
      </trkpt>
      <trkpt lat="43.22955" lon="6.5505">
        <ele>78.057014</ele>
        <time>2020-08-13T07:49:31Z</time>
      </trkpt>
      <trkpt lat="43.2294" lon="6.55033">
        <ele>76.85891</ele>
        <time>2020-08-13T07:49:39Z</time>
      </trkpt>
      <trkpt lat="43.22921" lon="6.55019">
        <ele>77.024811</ele>
        <time>2020-08-13T07:49:44Z</time>
      </trkpt>
      <trkpt lat="43.22902" lon="6.55022">
        <ele>77.977913</ele>
        <time>2020-08-13T07:49:51Z</time>
      </trkpt>
      <trkpt lat="43.22883" lon="6.55029">
        <ele>79.745659</ele>
        <time>2020-08-13T07:49:59Z</time>
      </trkpt>
      <trkpt lat="43.22865" lon="6.55037">
        <ele>80.773804</ele>
        <time>2020-08-13T07:50:07Z</time>
      </trkpt>
      <trkpt lat="43.22845" lon="6.55037">
        <ele>79.946106</ele>
        <time>2020-08-13T07:50:14Z</time>
      </trkpt>
      <trkpt lat="43.22828" lon="6.55024">
        <ele>79.121338</ele>
        <time>2020-08-13T07:50:20Z</time>
      </trkpt>
      <trkpt lat="43.2281" lon="6.55013">
        <ele>78.81572</ele>
        <time>2020-08-13T07:51:13Z</time>
      </trkpt>
      <trkpt lat="43.22793" lon="6.54999">
        <ele>80.914124</ele>
        <time>2020-08-13T07:51:18Z</time>
      </trkpt>
      <trkpt lat="43.22773" lon="6.54986">
        <ele>82.919998</ele>
        <time>2020-08-13T07:51:24Z</time>
      </trkpt>
      <trkpt lat="43.22754" lon="6.54975">
        <ele>84.629997</ele>
        <time>2020-08-13T07:51:28Z</time>
      </trkpt>
      <trkpt lat="43.22736" lon="6.54973">
        <ele>84.900002</ele>
        <time>2020-08-13T07:51:32Z</time>
      </trkpt>
      <trkpt lat="43.22715" lon="6.54974">
        <ele>84.434998</ele>
        <time>2020-08-13T07:51:38Z</time>
      </trkpt>
      <trkpt lat="43.22696" lon="6.54975">
        <ele>83.940002</ele>
        <time>2020-08-13T07:51:43Z</time>
      </trkpt>
      <trkpt lat="43.22674" lon="6.54971">
        <ele>82.746948</ele>
        <time>2020-08-13T07:51:48Z</time>
      </trkpt>
      <trkpt lat="43.22659" lon="6.54959">
        <ele>83.262352</ele>
        <time>2020-08-13T07:51:52Z</time>
      </trkpt>
      <trkpt lat="43.22645" lon="6.54941">
        <ele>84.374565</ele>
        <time>2020-08-13T07:51:56Z</time>
      </trkpt>
      <trkpt lat="43.2263" lon="6.5492">
        <ele>85.781898</ele>
        <time>2020-08-13T07:52:01Z</time>
      </trkpt>
      <trkpt lat="43.22615" lon="6.54901">
        <ele>86.918602</ele>
        <time>2020-08-13T07:52:06Z</time>
      </trkpt>
      <trkpt lat="43.226" lon="6.54882">
        <ele>87.116241</ele>
        <time>2020-08-13T07:52:12Z</time>
      </trkpt>
      <trkpt lat="43.22587" lon="6.54863">
        <ele>87.404282</ele>
        <time>2020-08-13T07:52:19Z</time>
      </trkpt>
      <trkpt lat="43.22578" lon="6.54842">
        <ele>89.730179</ele>
        <time>2020-08-13T07:52:26Z</time>
      </trkpt>
      <trkpt lat="43.22571" lon="6.54818">
        <ele>92.755325</ele>
        <time>2020-08-13T07:52:32Z</time>
      </trkpt>
      <trkpt lat="43.22558" lon="6.54802">
        <ele>92.488007</ele>
        <time>2020-08-13T07:52:40Z</time>
      </trkpt>
      <trkpt lat="43.22544" lon="6.54782">
        <ele>92.472557</ele>
        <time>2020-08-13T07:52:49Z</time>
      </trkpt>
      <trkpt lat="43.22532" lon="6.54761">
        <ele>93.481888</ele>
        <time>2020-08-13T07:52:57Z</time>
      </trkpt>
      <trkpt lat="43.22525" lon="6.54737">
        <ele>95.492416</ele>
        <time>2020-08-13T07:53:06Z</time>
      </trkpt>
      <trkpt lat="43.22523" lon="6.54712">
        <ele>97.23085</ele>
        <time>2020-08-13T07:53:15Z</time>
      </trkpt>
      <trkpt lat="43.22525" lon="6.54686">
        <ele>100.940498</ele>
        <time>2020-08-13T07:53:24Z</time>
      </trkpt>
      <trkpt lat="43.22529" lon="6.54659">
        <ele>105.932503</ele>
        <time>2020-08-13T07:53:34Z</time>
      </trkpt>
      <trkpt lat="43.22524" lon="6.54636">
        <ele>106.039124</ele>
        <time>2020-08-13T07:53:43Z</time>
      </trkpt>
      <trkpt lat="43.2251" lon="6.54617">
        <ele>104.358398</ele>
        <time>2020-08-13T07:53:54Z</time>
      </trkpt>
      <trkpt lat="43.22498" lon="6.54599">
        <ele>104.068474</ele>
        <time>2020-08-13T07:54:04Z</time>
      </trkpt>
      <trkpt lat="43.22494" lon="6.54573">
        <ele>107.397186</ele>
        <time>2020-08-13T07:54:14Z</time>
      </trkpt>
      <trkpt lat="43.22491" lon="6.54549">
        <ele>110.510376</ele>
        <time>2020-08-13T07:54:24Z</time>
      </trkpt>
      <trkpt lat="43.22488" lon="6.54524">
        <ele>112.409851</ele>
        <time>2020-08-13T07:54:33Z</time>
      </trkpt>
      <trkpt lat="43.22477" lon="6.54504">
        <ele>111.730469</ele>
        <time>2020-08-13T07:54:44Z</time>
      </trkpt>
      <trkpt lat="43.22465" lon="6.54484">
        <ele>112.352501</ele>
        <time>2020-08-13T07:54:55Z</time>
      </trkpt>
      <trkpt lat="43.22455" lon="6.54463">
        <ele>113.802498</ele>
        <time>2020-08-13T07:55:07Z</time>
      </trkpt>
      <trkpt lat="43.22445" lon="6.54442">
        <ele>115.849998</ele>
        <time>2020-08-13T07:55:18Z</time>
      </trkpt>
      <trkpt lat="43.22438" lon="6.54418">
        <ele>118.370399</ele>
        <time>2020-08-13T07:55:29Z</time>
      </trkpt>
      <trkpt lat="43.22431" lon="6.54394">
        <ele>120.593872</ele>
        <time>2020-08-13T07:55:41Z</time>
      </trkpt>
      <trkpt lat="43.22419" lon="6.54373">
        <ele>121.075562</ele>
        <time>2020-08-13T07:55:52Z</time>
      </trkpt>
      <trkpt lat="43.22406" lon="6.54354">
        <ele>121.986984</ele>
        <time>2020-08-13T07:56:04Z</time>
      </trkpt>
      <trkpt lat="43.22394" lon="6.54334">
        <ele>123.409828</ele>
        <time>2020-08-13T07:56:14Z</time>
      </trkpt>
      <trkpt lat="43.22382" lon="6.54313">
        <ele>124.465202</ele>
        <time>2020-08-13T07:56:24Z</time>
      </trkpt>
      <trkpt lat="43.22372" lon="6.54291">
        <ele>126.882751</ele>
        <time>2020-08-13T07:56:35Z</time>
      </trkpt>
      <trkpt lat="43.22359" lon="6.5427">
        <ele>128.295639</ele>
        <time>2020-08-13T07:56:45Z</time>
      </trkpt>
      <trkpt lat="43.22349" lon="6.54248">
        <ele>129.815308</ele>
        <time>2020-08-13T07:56:55Z</time>
      </trkpt>
      <trkpt lat="43.22338" lon="6.54227">
        <ele>130.343216</ele>
        <time>2020-08-13T07:57:05Z</time>
      </trkpt>
      <trkpt lat="43.22329" lon="6.54203">
        <ele>132.300552</ele>
        <time>2020-08-13T07:57:15Z</time>
      </trkpt>
      <trkpt lat="43.22322" lon="6.5418">
        <ele>134.382553</ele>
        <time>2020-08-13T07:57:25Z</time>
      </trkpt>
      <trkpt lat="43.22314" lon="6.54156">
        <ele>137.257248</ele>
        <time>2020-08-13T07:57:35Z</time>
      </trkpt>
      <trkpt lat="43.22309" lon="6.54131">
        <ele>141.732834</ele>
        <time>2020-08-13T07:57:45Z</time>
      </trkpt>
      <trkpt lat="43.22298" lon="6.54109">
        <ele>142.665878</ele>
        <time>2020-08-13T07:57:57Z</time>
      </trkpt>
      <trkpt lat="43.22284" lon="6.54093">
        <ele>140.862198</ele>
        <time>2020-08-13T07:58:08Z</time>
      </trkpt>
      <trkpt lat="43.22271" lon="6.54073">
        <ele>140.132599</ele>
        <time>2020-08-13T07:58:19Z</time>
      </trkpt>
      <trkpt lat="43.22266" lon="6.54049">
        <ele>143.445938</ele>
        <time>2020-08-13T07:58:30Z</time>
      </trkpt>
      <trkpt lat="43.2226" lon="6.54024">
        <ele>147.204941</ele>
        <time>2020-08-13T07:58:41Z</time>
      </trkpt>
      <trkpt lat="43.22255" lon="6.54">
        <ele>150.131714</ele>
        <time>2020-08-13T07:58:52Z</time>
      </trkpt>
      <trkpt lat="43.2225" lon="6.53977">
        <ele>153.040024</ele>
        <time>2020-08-13T07:59:02Z</time>
      </trkpt>
      <trkpt lat="43.22244" lon="6.53953">
        <ele>156.291595</ele>
        <time>2020-08-13T07:59:13Z</time>
      </trkpt>
      <trkpt lat="43.22233" lon="6.53932">
        <ele>157.087494</ele>
        <time>2020-08-13T07:59:23Z</time>
      </trkpt>
      <trkpt lat="43.2222" lon="6.53915">
        <ele>157.682968</ele>
        <time>2020-08-13T07:59:33Z</time>
      </trkpt>
      <trkpt lat="43.22204" lon="6.53904">
        <ele>155.721619</ele>
        <time>2020-08-13T07:59:43Z</time>
      </trkpt>
      <trkpt lat="43.22187" lon="6.53895">
        <ele>155.058304</ele>
        <time>2020-08-13T07:59:54Z</time>
      </trkpt>
      <trkpt lat="43.2217" lon="6.53884">
        <ele>157.834763</ele>
        <time>2020-08-13T08:00:04Z</time>
      </trkpt>
      <trkpt lat="43.22152" lon="6.53874">
        <ele>159.546906</ele>
        <time>2020-08-13T08:00:14Z</time>
      </trkpt>
      <trkpt lat="43.22135" lon="6.53867">
        <ele>162.170181</ele>
        <time>2020-08-13T08:00:24Z</time>
      </trkpt>
      <trkpt lat="43.22118" lon="6.53861">
        <ele>163.810608</ele>
        <time>2020-08-13T08:00:35Z</time>
      </trkpt>
      <trkpt lat="43.221" lon="6.53854">
        <ele>164.644104</ele>
        <time>2020-08-13T08:00:46Z</time>
      </trkpt>
      <trkpt lat="43.22081" lon="6.53845">
        <ele>167.289383</ele>
        <time>2020-08-13T08:00:58Z</time>
      </trkpt>
      <trkpt lat="43.22065" lon="6.53836">
        <ele>169.692123</ele>
        <time>2020-08-13T08:01:08Z</time>
      </trkpt>
      <trkpt lat="43.22047" lon="6.53828">
        <ele>172.796722</ele>
        <time>2020-08-13T08:01:19Z</time>
      </trkpt>
      <trkpt lat="43.22029" lon="6.53823">
        <ele>175.065506</ele>
        <time>2020-08-13T08:01:29Z</time>
      </trkpt>
      <trkpt lat="43.22011" lon="6.53825">
        <ele>175.272507</ele>
        <time>2020-08-13T08:01:40Z</time>
      </trkpt>
      <trkpt lat="43.21993" lon="6.53832">
        <ele>175.483749</ele>
        <time>2020-08-13T08:01:52Z</time>
      </trkpt>
      <trkpt lat="43.21974" lon="6.53835">
        <ele>177.298752</ele>
        <time>2020-08-13T08:02:03Z</time>
      </trkpt>
      <trkpt lat="43.21955" lon="6.5384">
        <ele>183.168976</ele>
        <time>2020-08-13T08:02:15Z</time>
      </trkpt>
      <trkpt lat="43.21946" lon="6.53863">
        <ele>183.826767</ele>
        <time>2020-08-13T08:02:26Z</time>
      </trkpt>
      <trkpt lat="43.21938" lon="6.53887">
        <ele>184.213516</ele>
        <time>2020-08-13T08:02:38Z</time>
      </trkpt>
      <trkpt lat="43.21936" lon="6.53912">
        <ele>182.804794</ele>
        <time>2020-08-13T08:02:48Z</time>
      </trkpt>
      <trkpt lat="43.2193" lon="6.53937">
        <ele>182.914902</ele>
        <time>2020-08-13T08:02:59Z</time>
      </trkpt>
      <trkpt lat="43.21921" lon="6.53959">
        <ele>183.118378</ele>
        <time>2020-08-13T08:03:10Z</time>
      </trkpt>
      <trkpt lat="43.21909" lon="6.53977">
        <ele>186.046539</ele>
        <time>2020-08-13T08:03:19Z</time>
      </trkpt>
      <trkpt lat="43.21893" lon="6.53993">
        <ele>188.252136</ele>
        <time>2020-08-13T08:03:29Z</time>
      </trkpt>
      <trkpt lat="43.21878" lon="6.54008">
        <ele>187.134064</ele>
        <time>2020-08-13T08:03:40Z</time>
      </trkpt>
      <trkpt lat="43.21862" lon="6.54023">
        <ele>187.215851</ele>
        <time>2020-08-13T08:03:52Z</time>
      </trkpt>
      <trkpt lat="43.21845" lon="6.54032">
        <ele>192.956985</ele>
        <time>2020-08-13T08:04:03Z</time>
      </trkpt>
      <trkpt lat="43.21827" lon="6.54038">
        <ele>197.338669</ele>
        <time>2020-08-13T08:04:13Z</time>
      </trkpt>
      <trkpt lat="43.21809" lon="6.5404">
        <ele>200.428604</ele>
        <time>2020-08-13T08:04:24Z</time>
      </trkpt>
      <trkpt lat="43.2179" lon="6.54042">
        <ele>203.256317</ele>
        <time>2020-08-13T08:04:34Z</time>
      </trkpt>
      <trkpt lat="43.21773" lon="6.54047">
        <ele>203.899796</ele>
        <time>2020-08-13T08:04:44Z</time>
      </trkpt>
      <trkpt lat="43.21753" lon="6.54045">
        <ele>205.349121</ele>
        <time>2020-08-13T08:04:55Z</time>
      </trkpt>
      <trkpt lat="43.21734" lon="6.54042">
        <ele>207.178894</ele>
        <time>2020-08-13T08:05:05Z</time>
      </trkpt>
      <trkpt lat="43.21716" lon="6.54038">
        <ele>210.190628</ele>
        <time>2020-08-13T08:05:14Z</time>
      </trkpt>
      <trkpt lat="43.21712" lon="6.54058">
        <ele>208.31813</ele>
        <time>2020-08-13T08:05:23Z</time>
      </trkpt>
      <trkpt lat="43.21727" lon="6.54074">
        <ele>203.606232</ele>
        <time>2020-08-13T08:05:33Z</time>
      </trkpt>
      <trkpt lat="43.2174" lon="6.54094">
        <ele>204.632874</ele>
        <time>2020-08-13T08:05:43Z</time>
      </trkpt>
      <trkpt lat="43.21752" lon="6.54116">
        <ele>208.554901</ele>
        <time>2020-08-13T08:05:53Z</time>
      </trkpt>
      <trkpt lat="43.21769" lon="6.54121">
        <ele>208.920395</ele>
        <time>2020-08-13T08:06:02Z</time>
      </trkpt>
      <trkpt lat="43.21788" lon="6.54116">
        <ele>207.209793</ele>
        <time>2020-08-13T08:06:12Z</time>
      </trkpt>
      <trkpt lat="43.21806" lon="6.54118">
        <ele>207.541031</ele>
        <time>2020-08-13T08:06:21Z</time>
      </trkpt>
      <trkpt lat="43.21824" lon="6.54124">
        <ele>209.489716</ele>
        <time>2020-08-13T08:06:31Z</time>
      </trkpt>
      <trkpt lat="43.21843" lon="6.54131">
        <ele>210.624374</ele>
        <time>2020-08-13T08:06:41Z</time>
      </trkpt>
      <trkpt lat="43.2186" lon="6.54138">
        <ele>211.634567</ele>
        <time>2020-08-13T08:06:52Z</time>
      </trkpt>
      <trkpt lat="43.21879" lon="6.54144">
        <ele>213.403748</ele>
        <time>2020-08-13T08:07:03Z</time>
      </trkpt>
      <trkpt lat="43.21897" lon="6.54147">
        <ele>215.495819</ele>
        <time>2020-08-13T08:07:14Z</time>
      </trkpt>
      <trkpt lat="43.21916" lon="6.54151">
        <ele>217.418961</ele>
        <time>2020-08-13T08:07:26Z</time>
      </trkpt>
      <trkpt lat="43.21934" lon="6.54156">
        <ele>216.590683</ele>
        <time>2020-08-13T08:07:37Z</time>
      </trkpt>
      <trkpt lat="43.21951" lon="6.54167">
        <ele>216.481445</ele>
        <time>2020-08-13T08:07:48Z</time>
      </trkpt>
      <trkpt lat="43.21963" lon="6.54185">
        <ele>216.435562</ele>
        <time>2020-08-13T08:08:00Z</time>
      </trkpt>
      <trkpt lat="43.21972" lon="6.54207">
        <ele>216.688553</ele>
        <time>2020-08-13T08:08:11Z</time>
      </trkpt>
      <trkpt lat="43.21972" lon="6.54232">
        <ele>216.331558</ele>
        <time>2020-08-13T08:08:21Z</time>
      </trkpt>
      <trkpt lat="43.21962" lon="6.54254">
        <ele>217.318466</ele>
        <time>2020-08-13T08:08:32Z</time>
      </trkpt>
      <trkpt lat="43.2195" lon="6.54272">
        <ele>219.027206</ele>
        <time>2020-08-13T08:08:43Z</time>
      </trkpt>
      <trkpt lat="43.21932" lon="6.54284">
        <ele>221.613754</ele>
        <time>2020-08-13T08:08:54Z</time>
      </trkpt>
      <trkpt lat="43.21915" lon="6.54294">
        <ele>223.860001</ele>
        <time>2020-08-13T08:09:05Z</time>
      </trkpt>
      <trkpt lat="43.21896" lon="6.54298">
        <ele>226.686188</ele>
        <time>2020-08-13T08:09:16Z</time>
      </trkpt>
      <trkpt lat="43.21878" lon="6.54297">
        <ele>229.699905</ele>
        <time>2020-08-13T08:09:25Z</time>
      </trkpt>
      <trkpt lat="43.21861" lon="6.54286">
        <ele>233.010254</ele>
        <time>2020-08-13T08:09:35Z</time>
      </trkpt>
      <trkpt lat="43.21845" lon="6.54269">
        <ele>235.185944</ele>
        <time>2020-08-13T08:09:47Z</time>
      </trkpt>
      <trkpt lat="43.21828" lon="6.54258">
        <ele>235.766922</ele>
        <time>2020-08-13T08:09:58Z</time>
      </trkpt>
      <trkpt lat="43.2181" lon="6.54256">
        <ele>235.889328</ele>
        <time>2020-08-13T08:10:08Z</time>
      </trkpt>
      <trkpt lat="43.2179" lon="6.54261">
        <ele>236.244812</ele>
        <time>2020-08-13T08:10:18Z</time>
      </trkpt>
      <trkpt lat="43.21773" lon="6.5427">
        <ele>237.389374</ele>
        <time>2020-08-13T08:10:27Z</time>
      </trkpt>
      <trkpt lat="43.21755" lon="6.54275">
        <ele>239.114304</ele>
        <time>2020-08-13T08:10:36Z</time>
      </trkpt>
      <trkpt lat="43.21734" lon="6.54276">
        <ele>240.240463</ele>
        <time>2020-08-13T08:10:44Z</time>
      </trkpt>
      <trkpt lat="43.21717" lon="6.5427">
        <ele>242.926712</ele>
        <time>2020-08-13T08:10:50Z</time>
      </trkpt>
      <trkpt lat="43.21704" lon="6.54249">
        <ele>243.72644</ele>
        <time>2020-08-13T08:10:58Z</time>
      </trkpt>
      <trkpt lat="43.21702" lon="6.54222">
        <ele>241.086121</ele>
        <time>2020-08-13T08:11:06Z</time>
      </trkpt>
      <trkpt lat="43.21701" lon="6.54195">
        <ele>238.454544</ele>
        <time>2020-08-13T08:11:12Z</time>
      </trkpt>
      <trkpt lat="43.21692" lon="6.54168">
        <ele>236.844559</ele>
        <time>2020-08-13T08:11:20Z</time>
      </trkpt>
      <trkpt lat="43.21677" lon="6.54154">
        <ele>238.595627</ele>
        <time>2020-08-13T08:11:28Z</time>
      </trkpt>
      <trkpt lat="43.21657" lon="6.54148">
        <ele>242.784439</ele>
        <time>2020-08-13T08:11:35Z</time>
      </trkpt>
      <trkpt lat="43.21639" lon="6.54144">
        <ele>246.354996</ele>
        <time>2020-08-13T08:11:42Z</time>
      </trkpt>
      <trkpt lat="43.21621" lon="6.54139">
        <ele>248.307495</ele>
        <time>2020-08-13T08:11:49Z</time>
      </trkpt>
      <trkpt lat="43.21604" lon="6.54129">
        <ele>248.619995</ele>
        <time>2020-08-13T08:11:56Z</time>
      </trkpt>
      <trkpt lat="43.21588" lon="6.54116">
        <ele>248.496231</ele>
        <time>2020-08-13T08:12:03Z</time>
      </trkpt>
      <trkpt lat="43.21571" lon="6.54101">
        <ele>248.750198</ele>
        <time>2020-08-13T08:12:10Z</time>
      </trkpt>
      <trkpt lat="43.21557" lon="6.54084">
        <ele>248.362503</ele>
        <time>2020-08-13T08:12:16Z</time>
      </trkpt>
      <trkpt lat="43.21543" lon="6.54064">
        <ele>245.414276</ele>
        <time>2020-08-13T08:12:23Z</time>
      </trkpt>
      <trkpt lat="43.21528" lon="6.54047">
        <ele>244.641357</ele>
        <time>2020-08-13T08:12:30Z</time>
      </trkpt>
      <trkpt lat="43.2151" lon="6.54049">
        <ele>248.709351</ele>
        <time>2020-08-13T08:12:38Z</time>
      </trkpt>
      <trkpt lat="43.21494" lon="6.54063">
        <ele>252.590897</ele>
        <time>2020-08-13T08:12:46Z</time>
      </trkpt>
      <trkpt lat="43.21476" lon="6.5407">
        <ele>255.442505</ele>
        <time>2020-08-13T08:12:56Z</time>
      </trkpt>
      <trkpt lat="43.21458" lon="6.54066">
        <ele>255.521896</ele>
        <time>2020-08-13T08:13:07Z</time>
      </trkpt>
      <trkpt lat="43.21439" lon="6.54065">
        <ele>256.651184</ele>
        <time>2020-08-13T08:13:19Z</time>
      </trkpt>
      <trkpt lat="43.21421" lon="6.54076">
        <ele>259.656738</ele>
        <time>2020-08-13T08:13:31Z</time>
      </trkpt>
      <trkpt lat="43.21407" lon="6.54093">
        <ele>264.875854</ele>
        <time>2020-08-13T08:13:42Z</time>
      </trkpt>
      <trkpt lat="43.21391" lon="6.54084">
        <ele>265.922394</ele>
        <time>2020-08-13T08:13:53Z</time>
      </trkpt>
      <trkpt lat="43.21387" lon="6.54057">
        <ele>263.301758</ele>
        <time>2020-08-13T08:14:06Z</time>
      </trkpt>
      <trkpt lat="43.21377" lon="6.54034">
        <ele>263.1474</ele>
        <time>2020-08-13T08:14:18Z</time>
      </trkpt>
      <trkpt lat="43.21362" lon="6.54022">
        <ele>266.304596</ele>
        <time>2020-08-13T08:14:30Z</time>
      </trkpt>
      <trkpt lat="43.21345" lon="6.54012">
        <ele>268.91861</ele>
        <time>2020-08-13T08:14:43Z</time>
      </trkpt>
      <trkpt lat="43.21328" lon="6.54001">
        <ele>270.471191</ele>
        <time>2020-08-13T08:14:56Z</time>
      </trkpt>
      <trkpt lat="43.21309" lon="6.53998">
        <ele>273.052338</ele>
        <time>2020-08-13T08:15:08Z</time>
      </trkpt>
      <trkpt lat="43.2129" lon="6.53999">
        <ele>276.494751</ele>
        <time>2020-08-13T08:15:21Z</time>
      </trkpt>
      <trkpt lat="43.21272" lon="6.54002">
        <ele>279.288269</ele>
        <time>2020-08-13T08:15:33Z</time>
      </trkpt>
      <trkpt lat="43.21256" lon="6.53993">
        <ele>280.30481</ele>
        <time>2020-08-13T08:15:46Z</time>
      </trkpt>
      <trkpt lat="43.21262" lon="6.53969">
        <ele>278.338409</ele>
        <time>2020-08-13T08:16:01Z</time>
      </trkpt>
      <trkpt lat="43.2127" lon="6.53945">
        <ele>277.410614</ele>
        <time>2020-08-13T08:16:16Z</time>
      </trkpt>
      <trkpt lat="43.21267" lon="6.53919">
        <ele>279.038086</ele>
        <time>2020-08-13T08:16:29Z</time>
      </trkpt>
      <trkpt lat="43.21256" lon="6.53898">
        <ele>281.947998</ele>
        <time>2020-08-13T08:16:41Z</time>
      </trkpt>
      <trkpt lat="43.21246" lon="6.53876">
        <ele>283.377502</ele>
        <time>2020-08-13T08:16:53Z</time>
      </trkpt>
      <trkpt lat="43.21237" lon="6.53852">
        <ele>285.51001</ele>
        <time>2020-08-13T08:17:06Z</time>
      </trkpt>
      <trkpt lat="43.21227" lon="6.53831">
        <ele>288.251953</ele>
        <time>2020-08-13T08:17:18Z</time>
      </trkpt>
      <trkpt lat="43.21216" lon="6.53811">
        <ele>288.992554</ele>
        <time>2020-08-13T08:17:30Z</time>
      </trkpt>
      <trkpt lat="43.21201" lon="6.53798">
        <ele>290.479858</ele>
        <time>2020-08-13T08:17:42Z</time>
      </trkpt>
      <trkpt lat="43.21184" lon="6.53789">
        <ele>293.758789</ele>
        <time>2020-08-13T08:17:54Z</time>
      </trkpt>
      <trkpt lat="43.21167" lon="6.53777">
        <ele>297.813171</ele>
        <time>2020-08-13T08:18:07Z</time>
      </trkpt>
      <trkpt lat="43.21149" lon="6.53767">
        <ele>300.398132</ele>
        <time>2020-08-13T08:18:20Z</time>
      </trkpt>
      <trkpt lat="43.21132" lon="6.53756">
        <ele>301.959686</ele>
        <time>2020-08-13T08:18:34Z</time>
      </trkpt>
      <trkpt lat="43.21113" lon="6.53746">
        <ele>303.034119</ele>
        <time>2020-08-13T08:18:46Z</time>
      </trkpt>
      <trkpt lat="43.21096" lon="6.53736">
        <ele>303.702515</ele>
        <time>2020-08-13T08:18:58Z</time>
      </trkpt>
      <trkpt lat="43.21079" lon="6.53725">
        <ele>303.827484</ele>
        <time>2020-08-13T08:19:09Z</time>
      </trkpt>
      <trkpt lat="43.21061" lon="6.53721">
        <ele>304.678833</ele>
        <time>2020-08-13T08:19:20Z</time>
      </trkpt>
      <trkpt lat="43.21043" lon="6.53718">
        <ele>305.575409</ele>
        <time>2020-08-13T08:19:31Z</time>
      </trkpt>
      <trkpt lat="43.21038" lon="6.53696">
        <ele>307.44751</ele>
        <time>2020-08-13T08:19:43Z</time>
      </trkpt>
      <trkpt lat="43.21047" lon="6.53674">
        <ele>309.119995</ele>
        <time>2020-08-13T08:19:54Z</time>
      </trkpt>
      <trkpt lat="43.21059" lon="6.53651">
        <ele>310.693542</ele>
        <time>2020-08-13T08:20:06Z</time>
      </trkpt>
      <trkpt lat="43.21068" lon="6.5363">
        <ele>312.463745</ele>
        <time>2020-08-13T08:20:18Z</time>
      </trkpt>
      <trkpt lat="43.21078" lon="6.53608">
        <ele>314.540619</ele>
        <time>2020-08-13T08:20:29Z</time>
      </trkpt>
      <trkpt lat="43.21087" lon="6.53587">
        <ele>316.741394</ele>
        <time>2020-08-13T08:20:41Z</time>
      </trkpt>
      <trkpt lat="43.21091" lon="6.53561">
        <ele>319.262024</ele>
        <time>2020-08-13T08:20:54Z</time>
      </trkpt>
      <trkpt lat="43.21082" lon="6.53538">
        <ele>321.549988</ele>
        <time>2020-08-13T08:21:07Z</time>
      </trkpt>
      <trkpt lat="43.21071" lon="6.53516">
        <ele>323.682495</ele>
        <time>2020-08-13T08:21:34Z</time>
      </trkpt>
      <trkpt lat="43.2106" lon="6.53494">
        <ele>325.668762</ele>
        <time>2020-08-13T08:21:46Z</time>
      </trkpt>
      <trkpt lat="43.21047" lon="6.53475">
        <ele>327.362518</ele>
        <time>2020-08-13T08:21:57Z</time>
      </trkpt>
      <trkpt lat="43.21041" lon="6.53451">
        <ele>329.18161</ele>
        <time>2020-08-13T08:22:10Z</time>
      </trkpt>
      <trkpt lat="43.21038" lon="6.53425">
        <ele>330.945068</ele>
        <time>2020-08-13T08:22:22Z</time>
      </trkpt>
      <trkpt lat="43.21038" lon="6.53399">
        <ele>332.701385</ele>
        <time>2020-08-13T08:22:36Z</time>
      </trkpt>
      <trkpt lat="43.21038" lon="6.53372">
        <ele>334.540192</ele>
        <time>2020-08-13T08:22:50Z</time>
      </trkpt>
      <trkpt lat="43.21034" lon="6.53345">
        <ele>336.509064</ele>
        <time>2020-08-13T08:23:02Z</time>
      </trkpt>
      <trkpt lat="43.21027" lon="6.53323">
        <ele>338.100128</ele>
        <time>2020-08-13T08:23:14Z</time>
      </trkpt>
      <trkpt lat="43.21021" lon="6.53298">
        <ele>339.924591</ele>
        <time>2020-08-13T08:23:25Z</time>
      </trkpt>
      <trkpt lat="43.21011" lon="6.53276">
        <ele>341.661011</ele>
        <time>2020-08-13T08:23:36Z</time>
      </trkpt>
      <trkpt lat="43.20999" lon="6.53255">
        <ele>343.241882</ele>
        <time>2020-08-13T08:23:46Z</time>
      </trkpt>
      <trkpt lat="43.20989" lon="6.53235">
        <ele>344.837677</ele>
        <time>2020-08-13T08:23:56Z</time>
      </trkpt>
      <trkpt lat="43.20979" lon="6.53211">
        <ele>346.08429</ele>
        <time>2020-08-13T08:24:07Z</time>
      </trkpt>
      <trkpt lat="43.20973" lon="6.53186">
        <ele>346.157349</ele>
        <time>2020-08-13T08:24:23Z</time>
      </trkpt>
      <trkpt lat="43.20965" lon="6.5316">
        <ele>346.832367</ele>
        <time>2020-08-13T08:24:32Z</time>
      </trkpt>
      <trkpt lat="43.20957" lon="6.53135">
        <ele>346.697235</ele>
        <time>2020-08-13T08:24:40Z</time>
      </trkpt>
      <trkpt lat="43.20949" lon="6.53111">
        <ele>347.235992</ele>
        <time>2020-08-13T08:24:46Z</time>
      </trkpt>
      <trkpt lat="43.20941" lon="6.53087">
        <ele>348.199921</ele>
        <time>2020-08-13T08:24:53Z</time>
      </trkpt>
      <trkpt lat="43.20933" lon="6.53058">
        <ele>348.866028</ele>
        <time>2020-08-13T08:24:59Z</time>
      </trkpt>
      <trkpt lat="43.20927" lon="6.53032">
        <ele>349.819611</ele>
        <time>2020-08-13T08:25:06Z</time>
      </trkpt>
      <trkpt lat="43.20922" lon="6.53003">
        <ele>348.84314</ele>
        <time>2020-08-13T08:25:13Z</time>
      </trkpt>
      <trkpt lat="43.20914" lon="6.52978">
        <ele>349.214752</ele>
        <time>2020-08-13T08:25:20Z</time>
      </trkpt>
      <trkpt lat="43.20907" lon="6.52955">
        <ele>350.468781</ele>
        <time>2020-08-13T08:25:25Z</time>
      </trkpt>
      <trkpt lat="43.20896" lon="6.5293">
        <ele>352.85556</ele>
        <time>2020-08-13T08:25:31Z</time>
      </trkpt>
      <trkpt lat="43.20891" lon="6.52903">
        <ele>353.886871</ele>
        <time>2020-08-13T08:25:38Z</time>
      </trkpt>
      <trkpt lat="43.20892" lon="6.52878">
        <ele>352.515564</ele>
        <time>2020-08-13T08:25:44Z</time>
      </trkpt>
      <trkpt lat="43.20893" lon="6.52851">
        <ele>350.881805</ele>
        <time>2020-08-13T08:25:50Z</time>
      </trkpt>
      <trkpt lat="43.20894" lon="6.52824">
        <ele>350.090149</ele>
        <time>2020-08-13T08:25:55Z</time>
      </trkpt>
      <trkpt lat="43.20895" lon="6.52796">
        <ele>349.551117</ele>
        <time>2020-08-13T08:26:00Z</time>
      </trkpt>
      <trkpt lat="43.20897" lon="6.52772">
        <ele>348.46701</ele>
        <time>2020-08-13T08:26:04Z</time>
      </trkpt>
      <trkpt lat="43.209" lon="6.52747">
        <ele>347.540009</ele>
        <time>2020-08-13T08:26:08Z</time>
      </trkpt>
      <trkpt lat="43.20902" lon="6.52721">
        <ele>347.248657</ele>
        <time>2020-08-13T08:26:12Z</time>
      </trkpt>
      <trkpt lat="43.20902" lon="6.52695">
        <ele>347.037506</ele>
        <time>2020-08-13T08:26:16Z</time>
      </trkpt>
      <trkpt lat="43.20902" lon="6.52669">
        <ele>346.8125</ele>
        <time>2020-08-13T08:26:20Z</time>
      </trkpt>
      <trkpt lat="43.20901" lon="6.52642">
        <ele>347.291595</ele>
        <time>2020-08-13T08:26:24Z</time>
      </trkpt>
      <trkpt lat="43.20901" lon="6.52615">
        <ele>347.289063</ele>
        <time>2020-08-13T08:26:28Z</time>
      </trkpt>
      <trkpt lat="43.20904" lon="6.52587">
        <ele>346.113251</ele>
        <time>2020-08-13T08:26:32Z</time>
      </trkpt>
      <trkpt lat="43.20906" lon="6.52561">
        <ele>345.316132</ele>
        <time>2020-08-13T08:26:36Z</time>
      </trkpt>
      <trkpt lat="43.20908" lon="6.52531">
        <ele>344.814941</ele>
        <time>2020-08-13T08:26:40Z</time>
      </trkpt>
      <trkpt lat="43.20914" lon="6.525">
        <ele>345.217651</ele>
        <time>2020-08-13T08:26:44Z</time>
      </trkpt>
      <trkpt lat="43.20922" lon="6.5247">
        <ele>344.131531</ele>
        <time>2020-08-13T08:26:48Z</time>
      </trkpt>
      <trkpt lat="43.20932" lon="6.52449">
        <ele>342.441254</ele>
        <time>2020-08-13T08:26:51Z</time>
      </trkpt>
      <trkpt lat="43.20946" lon="6.52433">
        <ele>340.234772</ele>
        <time>2020-08-13T08:26:54Z</time>
      </trkpt>
      <trkpt lat="43.20963" lon="6.52423">
        <ele>338.36438</ele>
        <time>2020-08-13T08:26:57Z</time>
      </trkpt>
      <trkpt lat="43.20974" lon="6.52402">
        <ele>336.116699</ele>
        <time>2020-08-13T08:27:01Z</time>
      </trkpt>
      <trkpt lat="43.20961" lon="6.52381">
        <ele>337.251373</ele>
        <time>2020-08-13T08:27:06Z</time>
      </trkpt>
      <trkpt lat="43.20944" lon="6.52365">
        <ele>338.495453</ele>
        <time>2020-08-13T08:27:12Z</time>
      </trkpt>
      <trkpt lat="43.20924" lon="6.52354">
        <ele>338.847412</ele>
        <time>2020-08-13T08:27:18Z</time>
      </trkpt>
      <trkpt lat="43.20902" lon="6.52351">
        <ele>339.835693</ele>
        <time>2020-08-13T08:27:22Z</time>
      </trkpt>
      <trkpt lat="43.20883" lon="6.52351">
        <ele>341.15033</ele>
        <time>2020-08-13T08:27:25Z</time>
      </trkpt>
      <trkpt lat="43.20865" lon="6.52342">
        <ele>339.457916</ele>
        <time>2020-08-13T08:27:28Z</time>
      </trkpt>
      <trkpt lat="43.2085" lon="6.52325">
        <ele>336.186096</ele>
        <time>2020-08-13T08:27:31Z</time>
      </trkpt>
      <trkpt lat="43.20835" lon="6.52311">
        <ele>334.723907</ele>
        <time>2020-08-13T08:27:34Z</time>
      </trkpt>
      <trkpt lat="43.20819" lon="6.523">
        <ele>334.615814</ele>
        <time>2020-08-13T08:27:37Z</time>
      </trkpt>
      <trkpt lat="43.20797" lon="6.52288">
        <ele>335.188141</ele>
        <time>2020-08-13T08:27:41Z</time>
      </trkpt>
      <trkpt lat="43.20776" lon="6.5228">
        <ele>336.995514</ele>
        <time>2020-08-13T08:27:45Z</time>
      </trkpt>
      <trkpt lat="43.20754" lon="6.52272">
        <ele>336.458557</ele>
        <time>2020-08-13T08:27:49Z</time>
      </trkpt>
      <trkpt lat="43.20732" lon="6.52261">
        <ele>335.723724</ele>
        <time>2020-08-13T08:27:53Z</time>
      </trkpt>
      <trkpt lat="43.20712" lon="6.52248">
        <ele>333.581207</ele>
        <time>2020-08-13T08:27:57Z</time>
      </trkpt>
      <trkpt lat="43.20698" lon="6.52225">
        <ele>332.053741</ele>
        <time>2020-08-13T08:28:01Z</time>
      </trkpt>
      <trkpt lat="43.20693" lon="6.52199">
        <ele>331.930511</ele>
        <time>2020-08-13T08:28:05Z</time>
      </trkpt>
      <trkpt lat="43.20694" lon="6.52171">
        <ele>331.619751</ele>
        <time>2020-08-13T08:28:11Z</time>
      </trkpt>
      <trkpt lat="43.2069" lon="6.52144">
        <ele>331.646393</ele>
        <time>2020-08-13T08:28:17Z</time>
      </trkpt>
      <trkpt lat="43.20679" lon="6.52123">
        <ele>332.1185</ele>
        <time>2020-08-13T08:28:24Z</time>
      </trkpt>
      <trkpt lat="43.20667" lon="6.52104">
        <ele>335.091614</ele>
        <time>2020-08-13T08:28:31Z</time>
      </trkpt>
      <trkpt lat="43.20661" lon="6.52078">
        <ele>338.255524</ele>
        <time>2020-08-13T08:28:39Z</time>
      </trkpt>
      <trkpt lat="43.2067" lon="6.52053">
        <ele>336.005859</ele>
        <time>2020-08-13T08:28:48Z</time>
      </trkpt>
      <trkpt lat="43.20678" lon="6.52029">
        <ele>332.541534</ele>
        <time>2020-08-13T08:28:57Z</time>
      </trkpt>
      <trkpt lat="43.20678" lon="6.52003">
        <ele>333.906647</ele>
        <time>2020-08-13T08:29:06Z</time>
      </trkpt>
      <trkpt lat="43.20672" lon="6.51978">
        <ele>337.899994</ele>
        <time>2020-08-13T08:29:15Z</time>
      </trkpt>
      <trkpt lat="43.20664" lon="6.51954">
        <ele>342.300842</ele>
        <time>2020-08-13T08:29:23Z</time>
      </trkpt>
      <trkpt lat="43.20662" lon="6.51929">
        <ele>344.986328</ele>
        <time>2020-08-13T08:29:32Z</time>
      </trkpt>
      <trkpt lat="43.20668" lon="6.51905">
        <ele>344.1138</ele>
        <time>2020-08-13T08:29:41Z</time>
      </trkpt>
      <trkpt lat="43.20675" lon="6.51879">
        <ele>343.445007</ele>
        <time>2020-08-13T08:29:51Z</time>
      </trkpt>
      <trkpt lat="43.2068" lon="6.51853">
        <ele>343.327484</ele>
        <time>2020-08-13T08:30:00Z</time>
      </trkpt>
      <trkpt lat="43.20683" lon="6.51826">
        <ele>343.700012</ele>
        <time>2020-08-13T08:30:09Z</time>
      </trkpt>
      <trkpt lat="43.20685" lon="6.51799">
        <ele>344.450012</ele>
        <time>2020-08-13T08:30:17Z</time>
      </trkpt>
      <trkpt lat="43.20687" lon="6.51772">
        <ele>344.440277</ele>
        <time>2020-08-13T08:30:26Z</time>
      </trkpt>
      <trkpt lat="43.20686" lon="6.51747">
        <ele>344.601715</ele>
        <time>2020-08-13T08:30:35Z</time>
      </trkpt>
      <trkpt lat="43.2068" lon="6.5172">
        <ele>347.254089</ele>
        <time>2020-08-13T08:30:43Z</time>
      </trkpt>
      <trkpt lat="43.20672" lon="6.51695">
        <ele>349.406799</ele>
        <time>2020-08-13T08:30:52Z</time>
      </trkpt>
      <trkpt lat="43.2067" lon="6.51666">
        <ele>349.462158</ele>
        <time>2020-08-13T08:31:00Z</time>
      </trkpt>
      <trkpt lat="43.2067" lon="6.51639">
        <ele>349.570709</ele>
        <time>2020-08-13T08:31:09Z</time>
      </trkpt>
      <trkpt lat="43.20671" lon="6.51611">
        <ele>349.589661</ele>
        <time>2020-08-13T08:31:18Z</time>
      </trkpt>
      <trkpt lat="43.20672" lon="6.51582">
        <ele>349.602936</ele>
        <time>2020-08-13T08:31:24Z</time>
      </trkpt>
      <trkpt lat="43.20672" lon="6.51556">
        <ele>349.34201</ele>
        <time>2020-08-13T08:31:30Z</time>
      </trkpt>
      <trkpt lat="43.20668" lon="6.51529">
        <ele>349.938507</ele>
        <time>2020-08-13T08:31:38Z</time>
      </trkpt>
      <trkpt lat="43.20652" lon="6.51511">
        <ele>351.403381</ele>
        <time>2020-08-13T08:31:46Z</time>
      </trkpt>
      <trkpt lat="43.20634" lon="6.51505">
        <ele>353.394043</ele>
        <time>2020-08-13T08:31:53Z</time>
      </trkpt>
      <trkpt lat="43.20617" lon="6.51498">
        <ele>354.491211</ele>
        <time>2020-08-13T08:32:01Z</time>
      </trkpt>
      <trkpt lat="43.20598" lon="6.51494">
        <ele>355.716461</ele>
        <time>2020-08-13T08:32:09Z</time>
      </trkpt>
      <trkpt lat="43.20578" lon="6.51494">
        <ele>358.237488</ele>
        <time>2020-08-13T08:32:18Z</time>
      </trkpt>
      <trkpt lat="43.20558" lon="6.51488">
        <ele>358.693756</ele>
        <time>2020-08-13T08:32:25Z</time>
      </trkpt>
      <trkpt lat="43.20539" lon="6.51486">
        <ele>360.829987</ele>
        <time>2020-08-13T08:32:32Z</time>
      </trkpt>
      <trkpt lat="43.2052" lon="6.51482">
        <ele>366.378174</ele>
        <time>2020-08-13T08:32:40Z</time>
      </trkpt>
      <trkpt lat="43.20516" lon="6.51456">
        <ele>363.469788</ele>
        <time>2020-08-13T08:32:48Z</time>
      </trkpt>
      <trkpt lat="43.2052" lon="6.5143">
        <ele>360.50766</ele>
        <time>2020-08-13T08:32:56Z</time>
      </trkpt>
      <trkpt lat="43.20523" lon="6.51404">
        <ele>357.804047</ele>
        <time>2020-08-13T08:33:04Z</time>
      </trkpt>
      <trkpt lat="43.20528" lon="6.51378">
        <ele>357.037598</ele>
        <time>2020-08-13T08:33:12Z</time>
      </trkpt>
      <trkpt lat="43.20528" lon="6.51352">
        <ele>359.004669</ele>
        <time>2020-08-13T08:33:19Z</time>
      </trkpt>
      <trkpt lat="43.2053" lon="6.51325">
        <ele>360.2677</ele>
        <time>2020-08-13T08:33:27Z</time>
      </trkpt>
      <trkpt lat="43.20532" lon="6.51299">
        <ele>360.574493</ele>
        <time>2020-08-13T08:33:35Z</time>
      </trkpt>
      <trkpt lat="43.20536" lon="6.51271">
        <ele>360.593689</ele>
        <time>2020-08-13T08:33:43Z</time>
      </trkpt>
      <trkpt lat="43.20539" lon="6.51245">
        <ele>360.739838</ele>
        <time>2020-08-13T08:33:51Z</time>
      </trkpt>
      <trkpt lat="43.2054" lon="6.51218">
        <ele>361.696869</ele>
        <time>2020-08-13T08:33:58Z</time>
      </trkpt>
      <trkpt lat="43.20542" lon="6.51191">
        <ele>360.199066</ele>
        <time>2020-08-13T08:34:06Z</time>
      </trkpt>
      <trkpt lat="43.2054" lon="6.51163">
        <ele>360.06842</ele>
        <time>2020-08-13T08:34:13Z</time>
      </trkpt>
      <trkpt lat="43.20528" lon="6.51143">
        <ele>362.275421</ele>
        <time>2020-08-13T08:34:20Z</time>
      </trkpt>
      <trkpt lat="43.20512" lon="6.51126">
        <ele>365.273132</ele>
        <time>2020-08-13T08:34:28Z</time>
      </trkpt>
      <trkpt lat="43.20494" lon="6.51117">
        <ele>366.658386</ele>
        <time>2020-08-13T08:34:37Z</time>
      </trkpt>
      <trkpt lat="43.2048" lon="6.51131">
        <ele>368.037506</ele>
        <time>2020-08-13T08:36:11Z</time>
      </trkpt>
      <trkpt lat="43.20463" lon="6.51148">
        <ele>370.543335</ele>
        <time>2020-08-13T08:36:19Z</time>
      </trkpt>
      <trkpt lat="43.20449" lon="6.51165">
        <ele>373.03537</ele>
        <time>2020-08-13T08:36:27Z</time>
      </trkpt>
      <trkpt lat="43.20434" lon="6.51178">
        <ele>373.783447</ele>
        <time>2020-08-13T08:36:35Z</time>
      </trkpt>
      <trkpt lat="43.20422" lon="6.51197">
        <ele>377.138458</ele>
        <time>2020-08-13T08:36:43Z</time>
      </trkpt>
      <trkpt lat="43.20404" lon="6.51204">
        <ele>377.27655</ele>
        <time>2020-08-13T08:36:50Z</time>
      </trkpt>
      <trkpt lat="43.20384" lon="6.51203">
        <ele>375.63916</ele>
        <time>2020-08-13T08:36:58Z</time>
      </trkpt>
      <trkpt lat="43.20365" lon="6.51205">
        <ele>374.85379</ele>
        <time>2020-08-13T08:37:05Z</time>
      </trkpt>
      <trkpt lat="43.20347" lon="6.5121">
        <ele>374.921997</ele>
        <time>2020-08-13T08:37:12Z</time>
      </trkpt>
      <trkpt lat="43.2033" lon="6.51222">
        <ele>376.758789</ele>
        <time>2020-08-13T08:37:19Z</time>
      </trkpt>
      <trkpt lat="43.20319" lon="6.51243">
        <ele>380.528412</ele>
        <time>2020-08-13T08:37:26Z</time>
      </trkpt>
      <trkpt lat="43.20308" lon="6.51263">
        <ele>381.683899</ele>
        <time>2020-08-13T08:37:33Z</time>
      </trkpt>
      <trkpt lat="43.20294" lon="6.51283">
        <ele>381.662628</ele>
        <time>2020-08-13T08:37:40Z</time>
      </trkpt>
      <trkpt lat="43.20278" lon="6.51302">
        <ele>381.560547</ele>
        <time>2020-08-13T08:37:47Z</time>
      </trkpt>
      <trkpt lat="43.20261" lon="6.51313">
        <ele>380.93219</ele>
        <time>2020-08-13T08:37:51Z</time>
      </trkpt>
      <trkpt lat="43.20239" lon="6.51315">
        <ele>379.093689</ele>
        <time>2020-08-13T08:37:56Z</time>
      </trkpt>
      <trkpt lat="43.2022" lon="6.51311">
        <ele>377.262512</ele>
        <time>2020-08-13T08:38:01Z</time>
      </trkpt>
      <trkpt lat="43.20201" lon="6.51308">
        <ele>377.716248</ele>
        <time>2020-08-13T08:38:06Z</time>
      </trkpt>
      <trkpt lat="43.20183" lon="6.51298">
        <ele>376.497498</ele>
        <time>2020-08-13T08:38:11Z</time>
      </trkpt>
      <trkpt lat="43.20165" lon="6.51286">
        <ele>375.995483</ele>
        <time>2020-08-13T08:38:16Z</time>
      </trkpt>
      <trkpt lat="43.20148" lon="6.51271">
        <ele>375.345886</ele>
        <time>2020-08-13T08:38:21Z</time>
      </trkpt>
      <trkpt lat="43.20139" lon="6.51244">
        <ele>371.765198</ele>
        <time>2020-08-13T08:38:26Z</time>
      </trkpt>
      <trkpt lat="43.20143" lon="6.51218">
        <ele>367.160126</ele>
        <time>2020-08-13T08:38:30Z</time>
      </trkpt>
      <trkpt lat="43.20137" lon="6.51194">
        <ele>365.727875</ele>
        <time>2020-08-13T08:38:34Z</time>
      </trkpt>
      <trkpt lat="43.20125" lon="6.51173">
        <ele>366.228119</ele>
        <time>2020-08-13T08:38:38Z</time>
      </trkpt>
      <trkpt lat="43.20113" lon="6.51153">
        <ele>367.825867</ele>
        <time>2020-08-13T08:38:42Z</time>
      </trkpt>
      <trkpt lat="43.20104" lon="6.51131">
        <ele>368.409729</ele>
        <time>2020-08-13T08:38:46Z</time>
      </trkpt>
      <trkpt lat="43.20098" lon="6.51107">
        <ele>367.486389</ele>
        <time>2020-08-13T08:38:50Z</time>
      </trkpt>
      <trkpt lat="43.20092" lon="6.51081">
        <ele>364.849304</ele>
        <time>2020-08-13T08:38:55Z</time>
      </trkpt>
      <trkpt lat="43.20082" lon="6.51055">
        <ele>363.02124</ele>
        <time>2020-08-13T08:39:00Z</time>
      </trkpt>
      <trkpt lat="43.20066" lon="6.51042">
        <ele>364.149994</ele>
        <time>2020-08-13T08:39:05Z</time>
      </trkpt>
      <trkpt lat="43.20047" lon="6.51051">
        <ele>365.356964</ele>
        <time>2020-08-13T08:39:11Z</time>
      </trkpt>
      <trkpt lat="43.20033" lon="6.51071">
        <ele>365.970123</ele>
        <time>2020-08-13T08:39:15Z</time>
      </trkpt>
      <trkpt lat="43.20021" lon="6.51093">
        <ele>367.482117</ele>
        <time>2020-08-13T08:39:19Z</time>
      </trkpt>
      <trkpt lat="43.2001" lon="6.51115">
        <ele>368.975128</ele>
        <time>2020-08-13T08:39:23Z</time>
      </trkpt>
      <trkpt lat="43.19998" lon="6.51135">
        <ele>370.769989</ele>
        <time>2020-08-13T08:39:27Z</time>
      </trkpt>
      <trkpt lat="43.19981" lon="6.51146">
        <ele>370.096191</ele>
        <time>2020-08-13T08:39:31Z</time>
      </trkpt>
      <trkpt lat="43.19963" lon="6.5115">
        <ele>367.858124</ele>
        <time>2020-08-13T08:39:35Z</time>
      </trkpt>
      <trkpt lat="43.19943" lon="6.51148">
        <ele>366.782715</ele>
        <time>2020-08-13T08:39:39Z</time>
      </trkpt>
      <trkpt lat="43.19921" lon="6.51141">
        <ele>364.438049</ele>
        <time>2020-08-13T08:39:43Z</time>
      </trkpt>
      <trkpt lat="43.19899" lon="6.51132">
        <ele>361.809998</ele>
        <time>2020-08-13T08:39:47Z</time>
      </trkpt>
      <trkpt lat="43.19878" lon="6.51126">
        <ele>360.242493</ele>
        <time>2020-08-13T08:39:51Z</time>
      </trkpt>
      <trkpt lat="43.19858" lon="6.51125">
        <ele>358.309235</ele>
        <time>2020-08-13T08:39:55Z</time>
      </trkpt>
      <trkpt lat="43.19836" lon="6.51137">
        <ele>359.067505</ele>
        <time>2020-08-13T08:39:59Z</time>
      </trkpt>
      <trkpt lat="43.1982" lon="6.5115">
        <ele>359.086578</ele>
        <time>2020-08-13T08:40:02Z</time>
      </trkpt>
      <trkpt lat="43.19804" lon="6.51169">
        <ele>358.822815</ele>
        <time>2020-08-13T08:40:05Z</time>
      </trkpt>
      <trkpt lat="43.1979" lon="6.51191">
        <ele>358.658813</ele>
        <time>2020-08-13T08:40:08Z</time>
      </trkpt>
      <trkpt lat="43.19771" lon="6.51208">
        <ele>356.345032</ele>
        <time>2020-08-13T08:40:11Z</time>
      </trkpt>
      <trkpt lat="43.19752" lon="6.51212">
        <ele>352.308105</ele>
        <time>2020-08-13T08:40:14Z</time>
      </trkpt>
      <trkpt lat="43.19732" lon="6.51207">
        <ele>346.547516</ele>
        <time>2020-08-13T08:40:17Z</time>
      </trkpt>
      <trkpt lat="43.19713" lon="6.51198">
        <ele>344.047729</ele>
        <time>2020-08-13T08:40:20Z</time>
      </trkpt>
      <trkpt lat="43.19693" lon="6.51192">
        <ele>342.51712</ele>
        <time>2020-08-13T08:40:24Z</time>
      </trkpt>
      <trkpt lat="43.19676" lon="6.51175">
        <ele>342.508453</ele>
        <time>2020-08-13T08:40:29Z</time>
      </trkpt>
      <trkpt lat="43.19673" lon="6.5115">
        <ele>342.827789</ele>
        <time>2020-08-13T08:40:37Z</time>
      </trkpt>
      <trkpt lat="43.19664" lon="6.51129">
        <ele>342.431854</ele>
        <time>2020-08-13T08:40:58Z</time>
      </trkpt>
      <trkpt lat="43.19652" lon="6.51105">
        <ele>343.185059</ele>
        <time>2020-08-13T08:41:05Z</time>
      </trkpt>
      <trkpt lat="43.19641" lon="6.51083">
        <ele>344.371429</ele>
        <time>2020-08-13T08:41:11Z</time>
      </trkpt>
      <trkpt lat="43.19629" lon="6.51064">
        <ele>345.137604</ele>
        <time>2020-08-13T08:41:17Z</time>
      </trkpt>
      <trkpt lat="43.19615" lon="6.51043">
        <ele>345.678253</ele>
        <time>2020-08-13T08:41:24Z</time>
      </trkpt>
      <trkpt lat="43.196" lon="6.51024">
        <ele>345.622925</ele>
        <time>2020-08-13T08:41:30Z</time>
      </trkpt>
      <trkpt lat="43.19581" lon="6.51011">
        <ele>347.09671</ele>
        <time>2020-08-13T08:41:37Z</time>
      </trkpt>
      <trkpt lat="43.19561" lon="6.51003">
        <ele>349.706177</ele>
        <time>2020-08-13T08:41:44Z</time>
      </trkpt>
      <trkpt lat="43.19543" lon="6.50996">
        <ele>350.468842</ele>
        <time>2020-08-13T08:41:50Z</time>
      </trkpt>
      <trkpt lat="43.19524" lon="6.50991">
        <ele>352.24118</ele>
        <time>2020-08-13T08:41:57Z</time>
      </trkpt>
      <trkpt lat="43.19506" lon="6.50988">
        <ele>355.767181</ele>
        <time>2020-08-13T08:42:04Z</time>
      </trkpt>
      <trkpt lat="43.1949" lon="6.50976">
        <ele>357.018127</ele>
        <time>2020-08-13T08:42:11Z</time>
      </trkpt>
      <trkpt lat="43.19483" lon="6.50949">
        <ele>352.886566</ele>
        <time>2020-08-13T08:42:19Z</time>
      </trkpt>
      <trkpt lat="43.19477" lon="6.50925">
        <ele>351.223053</ele>
        <time>2020-08-13T08:42:26Z</time>
      </trkpt>
      <trkpt lat="43.19464" lon="6.50907">
        <ele>350.949188</ele>
        <time>2020-08-13T08:42:34Z</time>
      </trkpt>
      <trkpt lat="43.19446" lon="6.50907">
        <ele>353.782257</ele>
        <time>2020-08-13T08:42:41Z</time>
      </trkpt>
      <trkpt lat="43.19426" lon="6.50915">
        <ele>359.545013</ele>
        <time>2020-08-13T08:42:49Z</time>
      </trkpt>
      <trkpt lat="43.19407" lon="6.50922">
        <ele>364.112518</ele>
        <time>2020-08-13T08:42:57Z</time>
      </trkpt>
      <trkpt lat="43.19387" lon="6.50921">
        <ele>366.25</ele>
        <time>2020-08-13T08:43:05Z</time>
      </trkpt>
      <trkpt lat="43.19368" lon="6.50913">
        <ele>370.219147</ele>
        <time>2020-08-13T08:43:13Z</time>
      </trkpt>
      <trkpt lat="43.19357" lon="6.50892">
        <ele>369.409424</ele>
        <time>2020-08-13T08:43:20Z</time>
      </trkpt>
      <trkpt lat="43.19354" lon="6.50866">
        <ele>367.084229</ele>
        <time>2020-08-13T08:43:28Z</time>
      </trkpt>
      <trkpt lat="43.1935" lon="6.5084">
        <ele>366.068848</ele>
        <time>2020-08-13T08:43:36Z</time>
      </trkpt>
      <trkpt lat="43.19338" lon="6.50819">
        <ele>369.368378</ele>
        <time>2020-08-13T08:43:44Z</time>
      </trkpt>
      <trkpt lat="43.19324" lon="6.50801">
        <ele>372.692841</ele>
        <time>2020-08-13T08:43:52Z</time>
      </trkpt>
      <trkpt lat="43.19313" lon="6.5078">
        <ele>374.808411</ele>
        <time>2020-08-13T08:44:00Z</time>
      </trkpt>
      <trkpt lat="43.19305" lon="6.50757">
        <ele>374.937408</ele>
        <time>2020-08-13T08:44:08Z</time>
      </trkpt>
      <trkpt lat="43.19299" lon="6.5073">
        <ele>375.959961</ele>
        <time>2020-08-13T08:44:15Z</time>
      </trkpt>
      <trkpt lat="43.19298" lon="6.50703">
        <ele>374.330139</ele>
        <time>2020-08-13T08:44:23Z</time>
      </trkpt>
      <trkpt lat="43.19305" lon="6.50678">
        <ele>372.899628</ele>
        <time>2020-08-13T08:44:30Z</time>
      </trkpt>
      <trkpt lat="43.19315" lon="6.50654">
        <ele>371.548187</ele>
        <time>2020-08-13T08:44:37Z</time>
      </trkpt>
      <trkpt lat="43.19325" lon="6.50629">
        <ele>367.668121</ele>
        <time>2020-08-13T08:44:45Z</time>
      </trkpt>
      <trkpt lat="43.19323" lon="6.50604">
        <ele>368.41568</ele>
        <time>2020-08-13T08:44:52Z</time>
      </trkpt>
      <trkpt lat="43.19311" lon="6.50583">
        <ele>374.045807</ele>
        <time>2020-08-13T08:44:59Z</time>
      </trkpt>
      <trkpt lat="43.19305" lon="6.5056">
        <ele>378.536774</ele>
        <time>2020-08-13T08:45:07Z</time>
      </trkpt>
      <trkpt lat="43.1931" lon="6.50534">
        <ele>378.17691</ele>
        <time>2020-08-13T08:45:16Z</time>
      </trkpt>
      <trkpt lat="43.19319" lon="6.50512">
        <ele>376.349976</ele>
        <time>2020-08-13T08:45:25Z</time>
      </trkpt>
      <trkpt lat="43.19332" lon="6.50493">
        <ele>375.159332</ele>
        <time>2020-08-13T08:45:33Z</time>
      </trkpt>
      <trkpt lat="43.19341" lon="6.50468">
        <ele>376.188538</ele>
        <time>2020-08-13T08:45:42Z</time>
      </trkpt>
      <trkpt lat="43.19343" lon="6.50442">
        <ele>379.686798</ele>
        <time>2020-08-13T08:45:50Z</time>
      </trkpt>
      <trkpt lat="43.19346" lon="6.50415">
        <ele>382.088623</ele>
        <time>2020-08-13T08:45:59Z</time>
      </trkpt>
      <trkpt lat="43.19353" lon="6.50389">
        <ele>382.035431</ele>
        <time>2020-08-13T08:46:09Z</time>
      </trkpt>
      <trkpt lat="43.19363" lon="6.50367">
        <ele>380.186127</ele>
        <time>2020-08-13T08:46:18Z</time>
      </trkpt>
      <trkpt lat="43.19367" lon="6.5034">
        <ele>382.511353</ele>
        <time>2020-08-13T08:46:27Z</time>
      </trkpt>
      <trkpt lat="43.19367" lon="6.50316">
        <ele>386.350922</ele>
        <time>2020-08-13T08:46:36Z</time>
      </trkpt>
      <trkpt lat="43.19367" lon="6.5029">
        <ele>390.787048</ele>
        <time>2020-08-13T08:46:45Z</time>
      </trkpt>
      <trkpt lat="43.19377" lon="6.50268">
        <ele>393.305206</ele>
        <time>2020-08-13T08:46:54Z</time>
      </trkpt>
      <trkpt lat="43.19396" lon="6.50263">
        <ele>391.105225</ele>
        <time>2020-08-13T08:47:02Z</time>
      </trkpt>
      <trkpt lat="43.19414" lon="6.50255">
        <ele>391.283051</ele>
        <time>2020-08-13T08:47:10Z</time>
      </trkpt>
      <trkpt lat="43.19433" lon="6.50245">
        <ele>393.840149</ele>
        <time>2020-08-13T08:47:18Z</time>
      </trkpt>
      <trkpt lat="43.19452" lon="6.50237">
        <ele>395.874756</ele>
        <time>2020-08-13T08:47:26Z</time>
      </trkpt>
      <trkpt lat="43.19471" lon="6.50231">
        <ele>396.337494</ele>
        <time>2020-08-13T08:47:34Z</time>
      </trkpt>
      <trkpt lat="43.19491" lon="6.50225">
        <ele>396.575012</ele>
        <time>2020-08-13T08:47:42Z</time>
      </trkpt>
      <trkpt lat="43.19508" lon="6.50219">
        <ele>396.10611</ele>
        <time>2020-08-13T08:47:49Z</time>
      </trkpt>
      <trkpt lat="43.19526" lon="6.50209">
        <ele>393.459137</ele>
        <time>2020-08-13T08:47:56Z</time>
      </trkpt>
      <trkpt lat="43.19537" lon="6.50189">
        <ele>392.179749</ele>
        <time>2020-08-13T08:48:03Z</time>
      </trkpt>
      <trkpt lat="43.19528" lon="6.50166">
        <ele>396.560822</ele>
        <time>2020-08-13T08:53:03Z</time>
      </trkpt>
      <trkpt lat="43.19513" lon="6.50149">
        <ele>398.07843</ele>
        <time>2020-08-13T08:53:20Z</time>
      </trkpt>
      <trkpt lat="43.19493" lon="6.50145">
        <ele>402.469788</ele>
        <time>2020-08-13T08:53:30Z</time>
      </trkpt>
      <trkpt lat="43.19475" lon="6.50139">
        <ele>405.781921</ele>
        <time>2020-08-13T08:53:40Z</time>
      </trkpt>
      <trkpt lat="43.19457" lon="6.50134">
        <ele>409.116058</ele>
        <time>2020-08-13T08:53:49Z</time>
      </trkpt>
      <trkpt lat="43.19439" lon="6.5012">
        <ele>411.320496</ele>
        <time>2020-08-13T08:53:58Z</time>
      </trkpt>
      <trkpt lat="43.19423" lon="6.50099">
        <ele>413.038666</ele>
        <time>2020-08-13T08:54:07Z</time>
      </trkpt>
      <trkpt lat="43.19411" lon="6.50077">
        <ele>417.144897</ele>
        <time>2020-08-13T08:54:15Z</time>
      </trkpt>
      <trkpt lat="43.19402" lon="6.50052">
        <ele>422.569397</ele>
        <time>2020-08-13T08:54:23Z</time>
      </trkpt>
      <trkpt lat="43.19404" lon="6.50023">
        <ele>418.250885</ele>
        <time>2020-08-13T08:54:30Z</time>
      </trkpt>
      <trkpt lat="43.19408" lon="6.49997">
        <ele>414.145966</ele>
        <time>2020-08-13T08:54:37Z</time>
      </trkpt>
      <trkpt lat="43.19405" lon="6.4997">
        <ele>415.337708</ele>
        <time>2020-08-13T08:54:44Z</time>
      </trkpt>
      <trkpt lat="43.194" lon="6.49948">
        <ele>414.757996</ele>
        <time>2020-08-13T08:54:50Z</time>
      </trkpt>
      <trkpt lat="43.19396" lon="6.49924">
        <ele>412.528381</ele>
        <time>2020-08-13T08:54:58Z</time>
      </trkpt>
      <trkpt lat="43.19383" lon="6.49905">
        <ele>414.724182</ele>
        <time>2020-08-13T08:55:05Z</time>
      </trkpt>
      <trkpt lat="43.19367" lon="6.49889">
        <ele>418.285614</ele>
        <time>2020-08-13T08:55:14Z</time>
      </trkpt>
      <trkpt lat="43.19351" lon="6.49873">
        <ele>421.281433</ele>
        <time>2020-08-13T08:55:25Z</time>
      </trkpt>
      <trkpt lat="43.19339" lon="6.49854">
        <ele>420.893616</ele>
        <time>2020-08-13T08:55:34Z</time>
      </trkpt>
      <trkpt lat="43.19325" lon="6.49833">
        <ele>419.452911</ele>
        <time>2020-08-13T08:55:42Z</time>
      </trkpt>
      <trkpt lat="43.19308" lon="6.49819">
        <ele>421.438202</ele>
        <time>2020-08-13T08:55:49Z</time>
      </trkpt>
      <trkpt lat="43.19289" lon="6.49813">
        <ele>426.294495</ele>
        <time>2020-08-13T08:55:58Z</time>
      </trkpt>
      <trkpt lat="43.19272" lon="6.49802">
        <ele>429.532501</ele>
        <time>2020-08-13T08:56:07Z</time>
      </trkpt>
      <trkpt lat="43.19265" lon="6.49775">
        <ele>428.50705</ele>
        <time>2020-08-13T08:56:16Z</time>
      </trkpt>
      <trkpt lat="43.19271" lon="6.49745">
        <ele>427.964783</ele>
        <time>2020-08-13T08:56:24Z</time>
      </trkpt>
      <trkpt lat="43.19277" lon="6.49716">
        <ele>428.299072</ele>
        <time>2020-08-13T08:56:33Z</time>
      </trkpt>
      <trkpt lat="43.19288" lon="6.4969">
        <ele>423.976349</ele>
        <time>2020-08-13T08:56:42Z</time>
      </trkpt>
      <trkpt lat="43.1929" lon="6.49661">
        <ele>423.622314</ele>
        <time>2020-08-13T08:56:51Z</time>
      </trkpt>
      <trkpt lat="43.19275" lon="6.4964">
        <ele>426.549988</ele>
        <time>2020-08-13T08:56:59Z</time>
      </trkpt>
      <trkpt lat="43.1926" lon="6.49623">
        <ele>428.316895</ele>
        <time>2020-08-13T08:57:06Z</time>
      </trkpt>
      <trkpt lat="43.1924" lon="6.49613">
        <ele>430.201019</ele>
        <time>2020-08-13T08:57:13Z</time>
      </trkpt>
      <trkpt lat="43.19221" lon="6.49617">
        <ele>434.990234</ele>
        <time>2020-08-13T08:57:21Z</time>
      </trkpt>
      <trkpt lat="43.19201" lon="6.4962">
        <ele>440.038147</ele>
        <time>2020-08-13T08:57:29Z</time>
      </trkpt>
      <trkpt lat="43.19184" lon="6.49613">
        <ele>442.203247</ele>
        <time>2020-08-13T08:57:37Z</time>
      </trkpt>
      <trkpt lat="43.19177" lon="6.49588">
        <ele>438.822449</ele>
        <time>2020-08-13T08:57:47Z</time>
      </trkpt>
      <trkpt lat="43.19168" lon="6.49563">
        <ele>438.273041</ele>
        <time>2020-08-13T08:57:54Z</time>
      </trkpt>
      <trkpt lat="43.19162" lon="6.4954">
        <ele>439.632874</ele>
        <time>2020-08-13T08:58:02Z</time>
      </trkpt>
      <trkpt lat="43.19164" lon="6.49508">
        <ele>436.288757</ele>
        <time>2020-08-13T08:58:11Z</time>
      </trkpt>
      <trkpt lat="43.19163" lon="6.49479">
        <ele>435.002502</ele>
        <time>2020-08-13T08:58:20Z</time>
      </trkpt>
      <trkpt lat="43.19153" lon="6.49455">
        <ele>438.035645</ele>
        <time>2020-08-13T08:58:29Z</time>
      </trkpt>
      <trkpt lat="43.19142" lon="6.4943">
        <ele>440.198029</ele>
        <time>2020-08-13T08:58:38Z</time>
      </trkpt>
      <trkpt lat="43.19132" lon="6.49407">
        <ele>441.955688</ele>
        <time>2020-08-13T08:58:47Z</time>
      </trkpt>
      <trkpt lat="43.19118" lon="6.49387">
        <ele>443.396088</ele>
        <time>2020-08-13T08:58:56Z</time>
      </trkpt>
      <trkpt lat="43.19101" lon="6.49373">
        <ele>445.947296</ele>
        <time>2020-08-13T08:59:04Z</time>
      </trkpt>
      <trkpt lat="43.19085" lon="6.49359">
        <ele>447.715454</ele>
        <time>2020-08-13T08:59:12Z</time>
      </trkpt>
      <trkpt lat="43.19067" lon="6.49346">
        <ele>445.29953</ele>
        <time>2020-08-13T08:59:20Z</time>
      </trkpt>
      <trkpt lat="43.19049" lon="6.49351">
        <ele>447.446198</ele>
        <time>2020-08-13T08:59:28Z</time>
      </trkpt>
      <trkpt lat="43.19036" lon="6.49372">
        <ele>451.806488</ele>
        <time>2020-08-13T08:59:36Z</time>
      </trkpt>
      <trkpt lat="43.19025" lon="6.49393">
        <ele>453.230255</ele>
        <time>2020-08-13T08:59:43Z</time>
      </trkpt>
      <trkpt lat="43.19016" lon="6.49417">
        <ele>454.506256</ele>
        <time>2020-08-13T08:59:50Z</time>
      </trkpt>
      <trkpt lat="43.19011" lon="6.49442">
        <ele>457.453583</ele>
        <time>2020-08-13T08:59:56Z</time>
      </trkpt>
      <trkpt lat="43.19007" lon="6.4947">
        <ele>459.199188</ele>
        <time>2020-08-13T09:00:02Z</time>
      </trkpt>
      <trkpt lat="43.19" lon="6.49495">
        <ele>459.119385</ele>
        <time>2020-08-13T09:00:09Z</time>
      </trkpt>
      <trkpt lat="43.18988" lon="6.49516">
        <ele>458.334991</ele>
        <time>2020-08-13T09:00:15Z</time>
      </trkpt>
      <trkpt lat="43.18973" lon="6.49532">
        <ele>457.676575</ele>
        <time>2020-08-13T09:00:21Z</time>
      </trkpt>
      <trkpt lat="43.18957" lon="6.49551">
        <ele>458.016449</ele>
        <time>2020-08-13T09:00:27Z</time>
      </trkpt>
      <trkpt lat="43.18942" lon="6.49569">
        <ele>458.450012</ele>
        <time>2020-08-13T09:00:32Z</time>
      </trkpt>
      <trkpt lat="43.18927" lon="6.49587">
        <ele>458.450012</ele>
        <time>2020-08-13T09:00:38Z</time>
      </trkpt>
      <trkpt lat="43.18914" lon="6.49609">
        <ele>460.452515</ele>
        <time>2020-08-13T09:00:44Z</time>
      </trkpt>
      <trkpt lat="43.18899" lon="6.49632">
        <ele>461.623749</ele>
        <time>2020-08-13T09:00:50Z</time>
      </trkpt>
      <trkpt lat="43.18882" lon="6.49647">
        <ele>460.732513</ele>
        <time>2020-08-13T09:00:56Z</time>
      </trkpt>
      <trkpt lat="43.18866" lon="6.49662">
        <ele>460.491241</ele>
        <time>2020-08-13T09:01:03Z</time>
      </trkpt>
      <trkpt lat="43.18851" lon="6.49678">
        <ele>460.672485</ele>
        <time>2020-08-13T09:01:09Z</time>
      </trkpt>
      <trkpt lat="43.18836" lon="6.49697">
        <ele>461.956818</ele>
        <time>2020-08-13T09:01:15Z</time>
      </trkpt>
      <trkpt lat="43.18821" lon="6.49716">
        <ele>463.466187</ele>
        <time>2020-08-13T09:01:20Z</time>
      </trkpt>
      <trkpt lat="43.18805" lon="6.49731">
        <ele>464.318542</ele>
        <time>2020-08-13T09:01:26Z</time>
      </trkpt>
      <trkpt lat="43.1879" lon="6.49747">
        <ele>465.356262</ele>
        <time>2020-08-13T09:01:31Z</time>
      </trkpt>
      <trkpt lat="43.18775" lon="6.49763">
        <ele>466.000366</ele>
        <time>2020-08-13T09:01:36Z</time>
      </trkpt>
      <trkpt lat="43.18759" lon="6.49778">
        <ele>466.999207</ele>
        <time>2020-08-13T09:01:41Z</time>
      </trkpt>
      <trkpt lat="43.18743" lon="6.49788">
        <ele>466.958038</ele>
        <time>2020-08-13T09:01:47Z</time>
      </trkpt>
      <trkpt lat="43.18725" lon="6.49799">
        <ele>467.096741</ele>
        <time>2020-08-13T09:01:53Z</time>
      </trkpt>
      <trkpt lat="43.18707" lon="6.49808">
        <ele>466.65799</ele>
        <time>2020-08-13T09:01:58Z</time>
      </trkpt>
      <trkpt lat="43.18687" lon="6.49817">
        <ele>466.891785</ele>
        <time>2020-08-13T09:02:04Z</time>
      </trkpt>
      <trkpt lat="43.18667" lon="6.49824">
        <ele>466.858368</ele>
        <time>2020-08-13T09:02:10Z</time>
      </trkpt>
      <trkpt lat="43.18647" lon="6.49826">
        <ele>465.611633</ele>
        <time>2020-08-13T09:02:15Z</time>
      </trkpt>
      <trkpt lat="43.18627" lon="6.49831">
        <ele>465.17807</ele>
        <time>2020-08-13T09:02:20Z</time>
      </trkpt>
      <trkpt lat="43.18608" lon="6.49843">
        <ele>467.354218</ele>
        <time>2020-08-13T09:02:25Z</time>
      </trkpt>
      <trkpt lat="43.1859" lon="6.49858">
        <ele>470.424469</ele>
        <time>2020-08-13T09:02:31Z</time>
      </trkpt>
      <trkpt lat="43.18573" lon="6.49848">
        <ele>468.325378</ele>
        <time>2020-08-13T09:02:38Z</time>
      </trkpt>
      <trkpt lat="43.18558" lon="6.49834">
        <ele>465.795013</ele>
        <time>2020-08-13T09:02:45Z</time>
      </trkpt>
      <trkpt lat="43.1854" lon="6.49833">
        <ele>467.25</ele>
        <time>2020-08-13T09:02:51Z</time>
      </trkpt>
      <trkpt lat="43.18521" lon="6.49833">
        <ele>468.801514</ele>
        <time>2020-08-13T09:02:57Z</time>
      </trkpt>
      <trkpt lat="43.18501" lon="6.49832">
        <ele>469.89151</ele>
        <time>2020-08-13T09:03:03Z</time>
      </trkpt>
      <trkpt lat="43.18481" lon="6.49829">
        <ele>470.521576</ele>
        <time>2020-08-13T09:03:09Z</time>
      </trkpt>
      <trkpt lat="43.18461" lon="6.49826">
        <ele>469.546875</ele>
        <time>2020-08-13T09:03:15Z</time>
      </trkpt>
      <trkpt lat="43.18442" lon="6.49833">
        <ele>470.509613</ele>
        <time>2020-08-13T09:03:21Z</time>
      </trkpt>
      <trkpt lat="43.18427" lon="6.49846">
        <ele>469.298859</ele>
        <time>2020-08-13T09:03:27Z</time>
      </trkpt>
      <trkpt lat="43.18412" lon="6.49859">
        <ele>467.812042</ele>
        <time>2020-08-13T09:03:35Z</time>
      </trkpt>
      <trkpt lat="43.18422" lon="6.49866">
        <ele>466.956451</ele>
        <time>2020-08-13T09:03:48Z</time>
      </trkpt>
      <trkpt lat="43.18403" lon="6.49858">
        <ele>468.040192</ele>
        <time>2020-08-13T09:04:01Z</time>
      </trkpt>
      <trkpt lat="43.18382" lon="6.49861">
        <ele>468.203247</ele>
        <time>2020-08-13T09:04:09Z</time>
      </trkpt>
      <trkpt lat="43.18361" lon="6.49862">
        <ele>468.739838</ele>
        <time>2020-08-13T09:04:16Z</time>
      </trkpt>
      <trkpt lat="43.18344" lon="6.49872">
        <ele>471.040985</ele>
        <time>2020-08-13T09:04:21Z</time>
      </trkpt>
      <trkpt lat="43.18326" lon="6.49881">
        <ele>473.553192</ele>
        <time>2020-08-13T09:04:27Z</time>
      </trkpt>
      <trkpt lat="43.18308" lon="6.49873">
        <ele>472.602386</ele>
        <time>2020-08-13T09:04:32Z</time>
      </trkpt>
      <trkpt lat="43.1829" lon="6.49859">
        <ele>470.047211</ele>
        <time>2020-08-13T09:04:37Z</time>
      </trkpt>
      <trkpt lat="43.18272" lon="6.49849">
        <ele>468.698822</ele>
        <time>2020-08-13T09:04:43Z</time>
      </trkpt>
      <trkpt lat="43.18253" lon="6.49855">
        <ele>471.351318</ele>
        <time>2020-08-13T09:04:50Z</time>
      </trkpt>
      <trkpt lat="43.18235" lon="6.49852">
        <ele>470.752502</ele>
        <time>2020-08-13T09:04:54Z</time>
      </trkpt>
      <trkpt lat="43.18215" lon="6.49843">
        <ele>468.462036</ele>
        <time>2020-08-13T09:04:58Z</time>
      </trkpt>
      <trkpt lat="43.18195" lon="6.49841">
        <ele>467.356262</ele>
        <time>2020-08-13T09:05:01Z</time>
      </trkpt>
      <trkpt lat="43.18171" lon="6.49837">
        <ele>465.632507</ele>
        <time>2020-08-13T09:05:05Z</time>
      </trkpt>
      <trkpt lat="43.18154" lon="6.49824">
        <ele>463.118042</ele>
        <time>2020-08-13T09:05:08Z</time>
      </trkpt>
      <trkpt lat="43.18137" lon="6.49814">
        <ele>461.939117</ele>
        <time>2020-08-13T09:05:11Z</time>
      </trkpt>
      <trkpt lat="43.18119" lon="6.49805">
        <ele>460.977631</ele>
        <time>2020-08-13T09:05:14Z</time>
      </trkpt>
      <trkpt lat="43.18097" lon="6.49802">
        <ele>459.654327</ele>
        <time>2020-08-13T09:05:17Z</time>
      </trkpt>
      <trkpt lat="43.18075" lon="6.49801">
        <ele>458.628693</ele>
        <time>2020-08-13T09:05:20Z</time>
      </trkpt>
      <trkpt lat="43.18053" lon="6.49802">
        <ele>455.872314</ele>
        <time>2020-08-13T09:05:24Z</time>
      </trkpt>
      <trkpt lat="43.18033" lon="6.49801">
        <ele>453.002197</ele>
        <time>2020-08-13T09:05:28Z</time>
      </trkpt>
      <trkpt lat="43.18015" lon="6.4981">
        <ele>450.506165</ele>
        <time>2020-08-13T09:05:33Z</time>
      </trkpt>
      <trkpt lat="43.18005" lon="6.49834">
        <ele>447.719604</ele>
        <time>2020-08-13T09:05:37Z</time>
      </trkpt>
      <trkpt lat="43.18013" lon="6.49861">
        <ele>450.037262</ele>
        <time>2020-08-13T09:05:42Z</time>
      </trkpt>
      <trkpt lat="43.1802" lon="6.49886">
        <ele>450.727173</ele>
        <time>2020-08-13T09:05:46Z</time>
      </trkpt>
      <trkpt lat="43.18021" lon="6.49917">
        <ele>448.044006</ele>
        <time>2020-08-13T09:05:50Z</time>
      </trkpt>
      <trkpt lat="43.18032" lon="6.49942">
        <ele>451.24234</ele>
        <time>2020-08-13T09:05:54Z</time>
      </trkpt>
      <trkpt lat="43.18037" lon="6.4997">
        <ele>451.705475</ele>
        <time>2020-08-13T09:05:58Z</time>
      </trkpt>
      <trkpt lat="43.18035" lon="6.49996">
        <ele>449.208679</ele>
        <time>2020-08-13T09:06:01Z</time>
      </trkpt>
      <trkpt lat="43.18032" lon="6.50026">
        <ele>449.442749</ele>
        <time>2020-08-13T09:06:04Z</time>
      </trkpt>
      <trkpt lat="43.18027" lon="6.50056">
        <ele>448.689178</ele>
        <time>2020-08-13T09:06:07Z</time>
      </trkpt>
      <trkpt lat="43.18018" lon="6.50083">
        <ele>448.788666</ele>
        <time>2020-08-13T09:06:10Z</time>
      </trkpt>
      <trkpt lat="43.18005" lon="6.50102">
        <ele>446.864288</ele>
        <time>2020-08-13T09:06:13Z</time>
      </trkpt>
      <trkpt lat="43.17987" lon="6.50115">
        <ele>442.022491</ele>
        <time>2020-08-13T09:06:16Z</time>
      </trkpt>
      <trkpt lat="43.17973" lon="6.50133">
        <ele>437.990204</ele>
        <time>2020-08-13T09:06:19Z</time>
      </trkpt>
      <trkpt lat="43.17965" lon="6.50158">
        <ele>436.977844</ele>
        <time>2020-08-13T09:06:22Z</time>
      </trkpt>
      <trkpt lat="43.17961" lon="6.50188">
        <ele>434.315948</ele>
        <time>2020-08-13T09:06:25Z</time>
      </trkpt>
      <trkpt lat="43.1796" lon="6.50214">
        <ele>431.113312</ele>
        <time>2020-08-13T09:06:29Z</time>
      </trkpt>
      <trkpt lat="43.1795" lon="6.50211">
        <ele>429.158417</ele>
        <time>2020-08-13T09:06:36Z</time>
      </trkpt>
      <trkpt lat="43.1795" lon="6.50177">
        <ele>430.943939</ele>
        <time>2020-08-13T09:06:41Z</time>
      </trkpt>
      <trkpt lat="43.17954" lon="6.50149">
        <ele>430.429993</ele>
        <time>2020-08-13T09:06:44Z</time>
      </trkpt>
      <trkpt lat="43.17958" lon="6.50121">
        <ele>429.358429</ele>
        <time>2020-08-13T09:06:47Z</time>
      </trkpt>
      <trkpt lat="43.17966" lon="6.50092">
        <ele>428.34137</ele>
        <time>2020-08-13T09:06:50Z</time>
      </trkpt>
      <trkpt lat="43.17975" lon="6.50061">
        <ele>426.322723</ele>
        <time>2020-08-13T09:06:53Z</time>
      </trkpt>
      <trkpt lat="43.17983" lon="6.50034">
        <ele>425.569733</ele>
        <time>2020-08-13T09:06:56Z</time>
      </trkpt>
      <trkpt lat="43.17988" lon="6.50009">
        <ele>425.457336</ele>
        <time>2020-08-13T09:07:01Z</time>
      </trkpt>
      <trkpt lat="43.17987" lon="6.49982">
        <ele>423.420959</ele>
        <time>2020-08-13T09:07:06Z</time>
      </trkpt>
      <trkpt lat="43.17978" lon="6.49954">
        <ele>422.276764</ele>
        <time>2020-08-13T09:07:10Z</time>
      </trkpt>
      <trkpt lat="43.17962" lon="6.49934">
        <ele>417.256348</ele>
        <time>2020-08-13T09:07:13Z</time>
      </trkpt>
      <trkpt lat="43.17945" lon="6.49917">
        <ele>411.072113</ele>
        <time>2020-08-13T09:07:17Z</time>
      </trkpt>
      <trkpt lat="43.17936" lon="6.49889">
        <ele>408.869873</ele>
        <time>2020-08-13T09:07:22Z</time>
      </trkpt>
      <trkpt lat="43.17934" lon="6.49856">
        <ele>411.242737</ele>
        <time>2020-08-13T09:07:26Z</time>
      </trkpt>
      <trkpt lat="43.17923" lon="6.49828">
        <ele>409.537964</ele>
        <time>2020-08-13T09:07:30Z</time>
      </trkpt>
      <trkpt lat="43.17906" lon="6.49802">
        <ele>404.207306</ele>
        <time>2020-08-13T09:07:34Z</time>
      </trkpt>
      <trkpt lat="43.17896" lon="6.49777">
        <ele>401.745789</ele>
        <time>2020-08-13T09:07:37Z</time>
      </trkpt>
      <trkpt lat="43.17888" lon="6.49751">
        <ele>400.411865</ele>
        <time>2020-08-13T09:07:40Z</time>
      </trkpt>
      <trkpt lat="43.17877" lon="6.49722">
        <ele>397.475311</ele>
        <time>2020-08-13T09:07:43Z</time>
      </trkpt>
      <trkpt lat="43.17866" lon="6.49696">
        <ele>395.939819</ele>
        <time>2020-08-13T09:07:46Z</time>
      </trkpt>
      <trkpt lat="43.17858" lon="6.49674">
        <ele>395.502808</ele>
        <time>2020-08-13T09:07:49Z</time>
      </trkpt>
      <trkpt lat="43.17839" lon="6.49656">
        <ele>391.199463</ele>
        <time>2020-08-13T09:07:53Z</time>
      </trkpt>
      <trkpt lat="43.17822" lon="6.4965">
        <ele>385.351715</ele>
        <time>2020-08-13T09:07:56Z</time>
      </trkpt>
      <trkpt lat="43.17804" lon="6.49643">
        <ele>379.275513</ele>
        <time>2020-08-13T09:07:59Z</time>
      </trkpt>
      <trkpt lat="43.17786" lon="6.49623">
        <ele>377.22934</ele>
        <time>2020-08-13T09:08:03Z</time>
      </trkpt>
      <trkpt lat="43.17778" lon="6.496">
        <ele>380.791351</ele>
        <time>2020-08-13T09:08:06Z</time>
      </trkpt>
      <trkpt lat="43.1777" lon="6.49576">
        <ele>379.639679</ele>
        <time>2020-08-13T09:08:09Z</time>
      </trkpt>
      <trkpt lat="43.17757" lon="6.49552">
        <ele>376.442932</ele>
        <time>2020-08-13T09:08:12Z</time>
      </trkpt>
      <trkpt lat="43.17738" lon="6.49529">
        <ele>372.766113</ele>
        <time>2020-08-13T09:08:15Z</time>
      </trkpt>
      <trkpt lat="43.17725" lon="6.49509">
        <ele>372.067841</ele>
        <time>2020-08-13T09:08:18Z</time>
      </trkpt>
      <trkpt lat="43.17716" lon="6.49486">
        <ele>372.656586</ele>
        <time>2020-08-13T09:08:21Z</time>
      </trkpt>
      <trkpt lat="43.17705" lon="6.49463">
        <ele>372.49884</ele>
        <time>2020-08-13T09:08:24Z</time>
      </trkpt>
      <trkpt lat="43.17685" lon="6.49446">
        <ele>369.797272</ele>
        <time>2020-08-13T09:08:28Z</time>
      </trkpt>
      <trkpt lat="43.17667" lon="6.49442">
        <ele>365.237549</ele>
        <time>2020-08-13T09:08:31Z</time>
      </trkpt>
      <trkpt lat="43.17647" lon="6.4944">
        <ele>359.628052</ele>
        <time>2020-08-13T09:08:35Z</time>
      </trkpt>
      <trkpt lat="43.17632" lon="6.49423">
        <ele>358.276825</ele>
        <time>2020-08-13T09:08:39Z</time>
      </trkpt>
      <trkpt lat="43.17626" lon="6.49397">
        <ele>359.658997</ele>
        <time>2020-08-13T09:08:42Z</time>
      </trkpt>
      <trkpt lat="43.17626" lon="6.49365">
        <ele>359.438141</ele>
        <time>2020-08-13T09:08:45Z</time>
      </trkpt>
      <trkpt lat="43.17628" lon="6.49336">
        <ele>359.33551</ele>
        <time>2020-08-13T09:08:48Z</time>
      </trkpt>
      <trkpt lat="43.17623" lon="6.49305">
        <ele>355.984009</ele>
        <time>2020-08-13T09:08:52Z</time>
      </trkpt>
      <trkpt lat="43.17611" lon="6.4928">
        <ele>351.555237</ele>
        <time>2020-08-13T09:08:55Z</time>
      </trkpt>
      <trkpt lat="43.17599" lon="6.4925">
        <ele>348.851593</ele>
        <time>2020-08-13T09:08:58Z</time>
      </trkpt>
      <trkpt lat="43.1759" lon="6.49222">
        <ele>347.178375</ele>
        <time>2020-08-13T09:09:01Z</time>
      </trkpt>
      <trkpt lat="43.17584" lon="6.49192">
        <ele>344.860107</ele>
        <time>2020-08-13T09:09:04Z</time>
      </trkpt>
      <trkpt lat="43.17578" lon="6.49157">
        <ele>343.342285</ele>
        <time>2020-08-13T09:09:07Z</time>
      </trkpt>
      <trkpt lat="43.17573" lon="6.49132">
        <ele>341.361633</ele>
        <time>2020-08-13T09:09:09Z</time>
      </trkpt>
      <trkpt lat="43.17569" lon="6.49105">
        <ele>340.256561</ele>
        <time>2020-08-13T09:09:11Z</time>
      </trkpt>
      <trkpt lat="43.17564" lon="6.49077">
        <ele>337.487</ele>
        <time>2020-08-13T09:09:13Z</time>
      </trkpt>
      <trkpt lat="43.1756" lon="6.49049">
        <ele>334.331787</ele>
        <time>2020-08-13T09:09:15Z</time>
      </trkpt>
      <trkpt lat="43.17556" lon="6.49021">
        <ele>331.62204</ele>
        <time>2020-08-13T09:09:17Z</time>
      </trkpt>
      <trkpt lat="43.17552" lon="6.48994">
        <ele>329.246155</ele>
        <time>2020-08-13T09:09:19Z</time>
      </trkpt>
      <trkpt lat="43.17548" lon="6.48966">
        <ele>327.673065</ele>
        <time>2020-08-13T09:09:21Z</time>
      </trkpt>
      <trkpt lat="43.17543" lon="6.48939">
        <ele>326.569763</ele>
        <time>2020-08-13T09:09:23Z</time>
      </trkpt>
      <trkpt lat="43.17539" lon="6.48912">
        <ele>325.815002</ele>
        <time>2020-08-13T09:09:25Z</time>
      </trkpt>
      <trkpt lat="43.17536" lon="6.48888">
        <ele>325.0466</ele>
        <time>2020-08-13T09:09:27Z</time>
      </trkpt>
      <trkpt lat="43.1753" lon="6.48856">
        <ele>324.131104</ele>
        <time>2020-08-13T09:09:30Z</time>
      </trkpt>
      <trkpt lat="43.17521" lon="6.48827">
        <ele>322.824188</ele>
        <time>2020-08-13T09:09:33Z</time>
      </trkpt>
      <trkpt lat="43.17505" lon="6.48799">
        <ele>321.698334</ele>
        <time>2020-08-13T09:09:36Z</time>
      </trkpt>
      <trkpt lat="43.17486" lon="6.48773">
        <ele>320.494385</ele>
        <time>2020-08-13T09:09:39Z</time>
      </trkpt>
      <trkpt lat="43.17473" lon="6.48755">
        <ele>318.953125</ele>
        <time>2020-08-13T09:09:41Z</time>
      </trkpt>
      <trkpt lat="43.17457" lon="6.4873">
        <ele>318.251251</ele>
        <time>2020-08-13T09:09:44Z</time>
      </trkpt>
      <trkpt lat="43.17449" lon="6.48702">
        <ele>318.069946</ele>
        <time>2020-08-13T09:09:47Z</time>
      </trkpt>
      <trkpt lat="43.17443" lon="6.48672">
        <ele>317.049164</ele>
        <time>2020-08-13T09:09:50Z</time>
      </trkpt>
      <trkpt lat="43.17437" lon="6.48641">
        <ele>315.448059</ele>
        <time>2020-08-13T09:09:53Z</time>
      </trkpt>
      <trkpt lat="43.17434" lon="6.48611">
        <ele>313.648804</ele>
        <time>2020-08-13T09:09:56Z</time>
      </trkpt>
      <trkpt lat="43.17431" lon="6.4858">
        <ele>312.106354</ele>
        <time>2020-08-13T09:09:59Z</time>
      </trkpt>
      <trkpt lat="43.17427" lon="6.4855">
        <ele>310.763702</ele>
        <time>2020-08-13T09:10:02Z</time>
      </trkpt>
      <trkpt lat="43.17424" lon="6.48521">
        <ele>309.927612</ele>
        <time>2020-08-13T09:10:05Z</time>
      </trkpt>
      <trkpt lat="43.17422" lon="6.48494">
        <ele>309.75</ele>
        <time>2020-08-13T09:10:08Z</time>
      </trkpt>
      <trkpt lat="43.1742" lon="6.48466">
        <ele>309.681885</ele>
        <time>2020-08-13T09:10:11Z</time>
      </trkpt>
      <trkpt lat="43.17418" lon="6.48437">
        <ele>309.191589</ele>
        <time>2020-08-13T09:10:14Z</time>
      </trkpt>
      <trkpt lat="43.17415" lon="6.48406">
        <ele>308.84906</ele>
        <time>2020-08-13T09:10:17Z</time>
      </trkpt>
      <trkpt lat="43.17413" lon="6.48374">
        <ele>308.247803</ele>
        <time>2020-08-13T09:10:20Z</time>
      </trkpt>
      <trkpt lat="43.1741" lon="6.4834">
        <ele>307.359131</ele>
        <time>2020-08-13T09:10:23Z</time>
      </trkpt>
      <trkpt lat="43.17407" lon="6.48305">
        <ele>305.75882</ele>
        <time>2020-08-13T09:10:26Z</time>
      </trkpt>
      <trkpt lat="43.17404" lon="6.4827">
        <ele>304.552704</ele>
        <time>2020-08-13T09:10:29Z</time>
      </trkpt>
      <trkpt lat="43.17396" lon="6.48242">
        <ele>304.366974</ele>
        <time>2020-08-13T09:10:32Z</time>
      </trkpt>
      <trkpt lat="43.17381" lon="6.4823">
        <ele>305.491394</ele>
        <time>2020-08-13T09:10:35Z</time>
      </trkpt>
      <trkpt lat="43.17362" lon="6.48233">
        <ele>305.63559</ele>
        <time>2020-08-13T09:10:38Z</time>
      </trkpt>
      <trkpt lat="43.17338" lon="6.48236">
        <ele>304.56427</ele>
        <time>2020-08-13T09:10:42Z</time>
      </trkpt>
      <trkpt lat="43.17316" lon="6.48233">
        <ele>302.112488</ele>
        <time>2020-08-13T09:10:46Z</time>
      </trkpt>
      <trkpt lat="43.17299" lon="6.48223">
        <ele>300.849548</ele>
        <time>2020-08-13T09:10:50Z</time>
      </trkpt>
      <trkpt lat="43.17284" lon="6.48204">
        <ele>302.579987</ele>
        <time>2020-08-13T09:10:55Z</time>
      </trkpt>
      <trkpt lat="43.1727" lon="6.48183">
        <ele>305.61499</ele>
        <time>2020-08-13T09:11:00Z</time>
      </trkpt>
      <trkpt lat="43.1725" lon="6.48173">
        <ele>304.549988</ele>
        <time>2020-08-13T09:11:05Z</time>
      </trkpt>
      <trkpt lat="43.1723" lon="6.48166">
        <ele>302.134186</ele>
        <time>2020-08-13T09:11:09Z</time>
      </trkpt>
      <trkpt lat="43.17214" lon="6.48142">
        <ele>302.168762</ele>
        <time>2020-08-13T09:11:13Z</time>
      </trkpt>
      <trkpt lat="43.17209" lon="6.48111">
        <ele>304.51474</ele>
        <time>2020-08-13T09:11:17Z</time>
      </trkpt>
      <trkpt lat="43.17205" lon="6.48086">
        <ele>305.869354</ele>
        <time>2020-08-13T09:11:21Z</time>
      </trkpt>
      <trkpt lat="43.17196" lon="6.48063">
        <ele>308.552826</ele>
        <time>2020-08-13T09:11:26Z</time>
      </trkpt>
      <trkpt lat="43.17183" lon="6.48044">
        <ele>308.503296</ele>
        <time>2020-08-13T09:11:31Z</time>
      </trkpt>
      <trkpt lat="43.17167" lon="6.48025">
        <ele>306.541595</ele>
        <time>2020-08-13T09:11:36Z</time>
      </trkpt>
      <trkpt lat="43.17151" lon="6.48009">
        <ele>305.571411</ele>
        <time>2020-08-13T09:11:41Z</time>
      </trkpt>
      <trkpt lat="43.17134" lon="6.4799">
        <ele>305.706024</ele>
        <time>2020-08-13T09:11:46Z</time>
      </trkpt>
      <trkpt lat="43.17118" lon="6.47973">
        <ele>305.623077</ele>
        <time>2020-08-13T09:11:50Z</time>
      </trkpt>
      <trkpt lat="43.17103" lon="6.47958">
        <ele>305.928741</ele>
        <time>2020-08-13T09:11:54Z</time>
      </trkpt>
      <trkpt lat="43.17087" lon="6.47944">
        <ele>304.735596</ele>
        <time>2020-08-13T09:11:59Z</time>
      </trkpt>
      <trkpt lat="43.17069" lon="6.47928">
        <ele>304.571686</ele>
        <time>2020-08-13T09:12:05Z</time>
      </trkpt>
      <trkpt lat="43.17054" lon="6.47913">
        <ele>305.615356</ele>
        <time>2020-08-13T09:12:09Z</time>
      </trkpt>
      <trkpt lat="43.17036" lon="6.47898">
        <ele>306.106812</ele>
        <time>2020-08-13T09:12:13Z</time>
      </trkpt>
      <trkpt lat="43.17018" lon="6.47891">
        <ele>305.919678</ele>
        <time>2020-08-13T09:12:17Z</time>
      </trkpt>
      <trkpt lat="43.16998" lon="6.47895">
        <ele>303.687256</ele>
        <time>2020-08-13T09:12:22Z</time>
      </trkpt>
      <trkpt lat="43.1698" lon="6.47903">
        <ele>300.445038</ele>
        <time>2020-08-13T09:12:26Z</time>
      </trkpt>
      <trkpt lat="43.16959" lon="6.47916">
        <ele>298.199463</ele>
        <time>2020-08-13T09:12:30Z</time>
      </trkpt>
      <trkpt lat="43.16937" lon="6.47925">
        <ele>297.62793</ele>
        <time>2020-08-13T09:12:34Z</time>
      </trkpt>
      <trkpt lat="43.16914" lon="6.47929">
        <ele>297.933929</ele>
        <time>2020-08-13T09:12:38Z</time>
      </trkpt>
      <trkpt lat="43.16892" lon="6.47931">
        <ele>298.871185</ele>
        <time>2020-08-13T09:12:42Z</time>
      </trkpt>
      <trkpt lat="43.16871" lon="6.47933">
        <ele>299.027191</ele>
        <time>2020-08-13T09:12:46Z</time>
      </trkpt>
      <trkpt lat="43.16851" lon="6.47936">
        <ele>299.18457</ele>
        <time>2020-08-13T09:12:50Z</time>
      </trkpt>
      <trkpt lat="43.16831" lon="6.47941">
        <ele>298.550873</ele>
        <time>2020-08-13T09:12:54Z</time>
      </trkpt>
      <trkpt lat="43.16813" lon="6.47951">
        <ele>296.893341</ele>
        <time>2020-08-13T09:12:58Z</time>
      </trkpt>
      <trkpt lat="43.16798" lon="6.47962">
        <ele>295.65625</ele>
        <time>2020-08-13T09:13:07Z</time>
      </trkpt>
      <trkpt lat="43.16778" lon="6.47965">
        <ele>294.945435</ele>
        <time>2020-08-13T09:13:13Z</time>
      </trkpt>
      <trkpt lat="43.16763" lon="6.47943">
        <ele>295.48938</ele>
        <time>2020-08-13T09:13:19Z</time>
      </trkpt>
      <trkpt lat="43.16765" lon="6.47911">
        <ele>294.818573</ele>
        <time>2020-08-13T09:13:23Z</time>
      </trkpt>
      <trkpt lat="43.16774" lon="6.47884">
        <ele>295.379547</ele>
        <time>2020-08-13T09:13:26Z</time>
      </trkpt>
      <trkpt lat="43.16787" lon="6.47856">
        <ele>296.074493</ele>
        <time>2020-08-13T09:13:29Z</time>
      </trkpt>
      <trkpt lat="43.168" lon="6.47826">
        <ele>295.673035</ele>
        <time>2020-08-13T09:13:32Z</time>
      </trkpt>
      <trkpt lat="43.16809" lon="6.47796">
        <ele>294.091614</ele>
        <time>2020-08-13T09:13:35Z</time>
      </trkpt>
      <trkpt lat="43.16814" lon="6.47764">
        <ele>291.183258</ele>
        <time>2020-08-13T09:13:38Z</time>
      </trkpt>
      <trkpt lat="43.16819" lon="6.47734">
        <ele>288.537994</ele>
        <time>2020-08-13T09:13:41Z</time>
      </trkpt>
      <trkpt lat="43.16824" lon="6.47707">
        <ele>286.343292</ele>
        <time>2020-08-13T09:13:44Z</time>
      </trkpt>
      <trkpt lat="43.16833" lon="6.47676">
        <ele>284.58371</ele>
        <time>2020-08-13T09:13:47Z</time>
      </trkpt>
      <trkpt lat="43.16845" lon="6.47644">
        <ele>282.716614</ele>
        <time>2020-08-13T09:13:50Z</time>
      </trkpt>
      <trkpt lat="43.16857" lon="6.47614">
        <ele>281.022186</ele>
        <time>2020-08-13T09:13:53Z</time>
      </trkpt>
      <trkpt lat="43.16865" lon="6.47589">
        <ele>277.184601</ele>
        <time>2020-08-13T09:13:57Z</time>
      </trkpt>
      <trkpt lat="43.16873" lon="6.47567">
        <ele>273.491577</ele>
        <time>2020-08-13T09:14:01Z</time>
      </trkpt>
      <trkpt lat="43.16882" lon="6.47541">
        <ele>270.680817</ele>
        <time>2020-08-13T09:14:05Z</time>
      </trkpt>
      <trkpt lat="43.16888" lon="6.47513">
        <ele>267.655609</ele>
        <time>2020-08-13T09:14:10Z</time>
      </trkpt>
      <trkpt lat="43.1689" lon="6.47507">
        <ele>267.51709</ele>
        <time>2020-08-13T09:15:35Z</time>
      </trkpt>
      <trkpt lat="43.16891" lon="6.47481">
        <ele>268.087372</ele>
        <time>2020-08-13T09:15:43Z</time>
      </trkpt>
      <trkpt lat="43.16896" lon="6.47456">
        <ele>268.865112</ele>
        <time>2020-08-13T09:15:53Z</time>
      </trkpt>
      <trkpt lat="43.169" lon="6.47428">
        <ele>271.324463</ele>
        <time>2020-08-13T09:16:01Z</time>
      </trkpt>
      <trkpt lat="43.16902" lon="6.474">
        <ele>274.05011</ele>
        <time>2020-08-13T09:16:08Z</time>
      </trkpt>
      <trkpt lat="43.16907" lon="6.47377">
        <ele>275.73111</ele>
        <time>2020-08-13T09:16:15Z</time>
      </trkpt>
      <trkpt lat="43.16915" lon="6.47353">
        <ele>276.781464</ele>
        <time>2020-08-13T09:16:21Z</time>
      </trkpt>
      <trkpt lat="43.169" lon="6.47341">
        <ele>271.551453</ele>
        <time>2020-08-13T09:16:27Z</time>
      </trkpt>
      <trkpt lat="43.16891" lon="6.47365">
        <ele>270.362152</ele>
        <time>2020-08-13T09:16:34Z</time>
      </trkpt>
      <trkpt lat="43.16888" lon="6.4739">
        <ele>271.143494</ele>
        <time>2020-08-13T09:16:38Z</time>
      </trkpt>
      <trkpt lat="43.16879" lon="6.47421">
        <ele>268.487457</ele>
        <time>2020-08-13T09:16:42Z</time>
      </trkpt>
      <trkpt lat="43.16871" lon="6.47445">
        <ele>267.36441</ele>
        <time>2020-08-13T09:16:45Z</time>
      </trkpt>
      <trkpt lat="43.16864" lon="6.47474">
        <ele>267.042023</ele>
        <time>2020-08-13T09:16:48Z</time>
      </trkpt>
      <trkpt lat="43.16853" lon="6.47504">
        <ele>265.313782</ele>
        <time>2020-08-13T09:16:51Z</time>
      </trkpt>
      <trkpt lat="43.16839" lon="6.47531">
        <ele>264.751251</ele>
        <time>2020-08-13T09:16:54Z</time>
      </trkpt>
      <trkpt lat="43.16822" lon="6.47555">
        <ele>263.071625</ele>
        <time>2020-08-13T09:16:57Z</time>
      </trkpt>
      <trkpt lat="43.16805" lon="6.4758">
        <ele>260.789673</ele>
        <time>2020-08-13T09:17:00Z</time>
      </trkpt>
      <trkpt lat="43.16792" lon="6.47613">
        <ele>260.181244</ele>
        <time>2020-08-13T09:17:03Z</time>
      </trkpt>
      <trkpt lat="43.16783" lon="6.47636">
        <ele>259.867798</ele>
        <time>2020-08-13T09:17:05Z</time>
      </trkpt>
      <trkpt lat="43.16771" lon="6.47663">
        <ele>258.600922</ele>
        <time>2020-08-13T09:17:08Z</time>
      </trkpt>
      <trkpt lat="43.16756" lon="6.47676">
        <ele>255.903442</ele>
        <time>2020-08-13T09:17:11Z</time>
      </trkpt>
      <trkpt lat="43.16738" lon="6.47678">
        <ele>251.736404</ele>
        <time>2020-08-13T09:17:14Z</time>
      </trkpt>
      <trkpt lat="43.16718" lon="6.47687">
        <ele>248.628006</ele>
        <time>2020-08-13T09:17:18Z</time>
      </trkpt>
      <trkpt lat="43.16701" lon="6.477">
        <ele>247.135391</ele>
        <time>2020-08-13T09:17:21Z</time>
      </trkpt>
      <trkpt lat="43.16684" lon="6.47719">
        <ele>246.803574</ele>
        <time>2020-08-13T09:17:24Z</time>
      </trkpt>
      <trkpt lat="43.16665" lon="6.47739">
        <ele>245.942993</ele>
        <time>2020-08-13T09:17:27Z</time>
      </trkpt>
      <trkpt lat="43.16644" lon="6.47761">
        <ele>243.847733</ele>
        <time>2020-08-13T09:17:30Z</time>
      </trkpt>
      <trkpt lat="43.16622" lon="6.47784">
        <ele>242.378342</ele>
        <time>2020-08-13T09:17:33Z</time>
      </trkpt>
      <trkpt lat="43.16601" lon="6.47805">
        <ele>241.260193</ele>
        <time>2020-08-13T09:17:36Z</time>
      </trkpt>
      <trkpt lat="43.16582" lon="6.47821">
        <ele>240.509995</ele>
        <time>2020-08-13T09:17:39Z</time>
      </trkpt>
      <trkpt lat="43.16561" lon="6.47824">
        <ele>237.944519</ele>
        <time>2020-08-13T09:17:42Z</time>
      </trkpt>
      <trkpt lat="43.16544" lon="6.47814">
        <ele>234.057236</ele>
        <time>2020-08-13T09:17:45Z</time>
      </trkpt>
      <trkpt lat="43.16535" lon="6.47792">
        <ele>229.62352</ele>
        <time>2020-08-13T09:17:48Z</time>
      </trkpt>
      <trkpt lat="43.16534" lon="6.47765">
        <ele>227.715744</ele>
        <time>2020-08-13T09:17:51Z</time>
      </trkpt>
      <trkpt lat="43.16543" lon="6.47743">
        <ele>226.871536</ele>
        <time>2020-08-13T09:17:54Z</time>
      </trkpt>
      <trkpt lat="43.16566" lon="6.47736">
        <ele>227.380875</ele>
        <time>2020-08-13T09:17:58Z</time>
      </trkpt>
      <trkpt lat="43.16585" lon="6.47738">
        <ele>228.43042</ele>
        <time>2020-08-13T09:18:01Z</time>
      </trkpt>
      <trkpt lat="43.16604" lon="6.47725">
        <ele>229.517899</ele>
        <time>2020-08-13T09:18:04Z</time>
      </trkpt>
      <trkpt lat="43.16622" lon="6.47704">
        <ele>227.561295</ele>
        <time>2020-08-13T09:18:07Z</time>
      </trkpt>
      <trkpt lat="43.1664" lon="6.47681">
        <ele>225.704849</ele>
        <time>2020-08-13T09:18:10Z</time>
      </trkpt>
      <trkpt lat="43.16654" lon="6.47656">
        <ele>225.173203</ele>
        <time>2020-08-13T09:18:13Z</time>
      </trkpt>
      <trkpt lat="43.16663" lon="6.47626">
        <ele>222.241241</ele>
        <time>2020-08-13T09:18:16Z</time>
      </trkpt>
      <trkpt lat="43.16673" lon="6.47593">
        <ele>219.384506</ele>
        <time>2020-08-13T09:18:19Z</time>
      </trkpt>
      <trkpt lat="43.1668" lon="6.47569">
        <ele>217.404495</ele>
        <time>2020-08-13T09:18:21Z</time>
      </trkpt>
      <trkpt lat="43.16689" lon="6.47545">
        <ele>215.941589</ele>
        <time>2020-08-13T09:18:23Z</time>
      </trkpt>
      <trkpt lat="43.167" lon="6.47522">
        <ele>215.433777</ele>
        <time>2020-08-13T09:18:25Z</time>
      </trkpt>
      <trkpt lat="43.1671" lon="6.475">
        <ele>215.03363</ele>
        <time>2020-08-13T09:18:27Z</time>
      </trkpt>
      <trkpt lat="43.16719" lon="6.4747">
        <ele>214.119995</ele>
        <time>2020-08-13T09:18:30Z</time>
      </trkpt>
      <trkpt lat="43.16721" lon="6.47437">
        <ele>210.179718</ele>
        <time>2020-08-13T09:18:33Z</time>
      </trkpt>
      <trkpt lat="43.16717" lon="6.47405">
        <ele>206.30307</ele>
        <time>2020-08-13T09:18:36Z</time>
      </trkpt>
      <trkpt lat="43.16715" lon="6.47378">
        <ele>203.570145</ele>
        <time>2020-08-13T09:18:39Z</time>
      </trkpt>
      <trkpt lat="43.16724" lon="6.47353">
        <ele>203.802887</ele>
        <time>2020-08-13T09:18:43Z</time>
      </trkpt>
      <trkpt lat="43.1674" lon="6.47341">
        <ele>207.565002</ele>
        <time>2020-08-13T09:18:46Z</time>
      </trkpt>
      <trkpt lat="43.16751" lon="6.47315">
        <ele>208.009995</ele>
        <time>2020-08-13T09:18:49Z</time>
      </trkpt>
      <trkpt lat="43.16756" lon="6.47283">
        <ele>205.25</ele>
        <time>2020-08-13T09:18:52Z</time>
      </trkpt>
      <trkpt lat="43.16765" lon="6.47249">
        <ele>203.312561</ele>
        <time>2020-08-13T09:18:55Z</time>
      </trkpt>
      <trkpt lat="43.16776" lon="6.47216">
        <ele>202.013245</ele>
        <time>2020-08-13T09:18:58Z</time>
      </trkpt>
      <trkpt lat="43.16778" lon="6.4719">
        <ele>199.287979</ele>
        <time>2020-08-13T09:19:01Z</time>
      </trkpt>
      <trkpt lat="43.16766" lon="6.47168">
        <ele>193.580475</ele>
        <time>2020-08-13T09:19:04Z</time>
      </trkpt>
      <trkpt lat="43.16757" lon="6.47144">
        <ele>188.312592</ele>
        <time>2020-08-13T09:19:07Z</time>
      </trkpt>
      <trkpt lat="43.16757" lon="6.47114">
        <ele>185.397446</ele>
        <time>2020-08-13T09:19:10Z</time>
      </trkpt>
      <trkpt lat="43.16769" lon="6.47084">
        <ele>185.789276</ele>
        <time>2020-08-13T09:19:13Z</time>
      </trkpt>
      <trkpt lat="43.16784" lon="6.47055">
        <ele>186.524872</ele>
        <time>2020-08-13T09:19:16Z</time>
      </trkpt>
      <trkpt lat="43.16792" lon="6.47031">
        <ele>184.991974</ele>
        <time>2020-08-13T09:19:18Z</time>
      </trkpt>
      <trkpt lat="43.16799" lon="6.47007">
        <ele>184.786285</ele>
        <time>2020-08-13T09:19:20Z</time>
      </trkpt>
      <trkpt lat="43.16806" lon="6.46976">
        <ele>186.053146</ele>
        <time>2020-08-13T09:19:23Z</time>
      </trkpt>
      <trkpt lat="43.168" lon="6.46948">
        <ele>182.268753</ele>
        <time>2020-08-13T09:19:26Z</time>
      </trkpt>
      <trkpt lat="43.16798" lon="6.46918">
        <ele>182.434998</ele>
        <time>2020-08-13T09:19:30Z</time>
      </trkpt>
      <trkpt lat="43.16785" lon="6.46909">
        <ele>177.438751</ele>
        <time>2020-08-13T09:19:35Z</time>
      </trkpt>
      <trkpt lat="43.16779" lon="6.46936">
        <ele>175.406342</ele>
        <time>2020-08-13T09:19:41Z</time>
      </trkpt>
      <trkpt lat="43.16771" lon="6.46964">
        <ele>173.924789</ele>
        <time>2020-08-13T09:19:46Z</time>
      </trkpt>
      <trkpt lat="43.16755" lon="6.46986">
        <ele>170.664658</ele>
        <time>2020-08-13T09:19:50Z</time>
      </trkpt>
      <trkpt lat="43.16741" lon="6.47009">
        <ele>168.58432</ele>
        <time>2020-08-13T09:19:54Z</time>
      </trkpt>
      <trkpt lat="43.1673" lon="6.47037">
        <ele>169.031036</ele>
        <time>2020-08-13T09:19:58Z</time>
      </trkpt>
      <trkpt lat="43.1672" lon="6.47062">
        <ele>169.224945</ele>
        <time>2020-08-13T09:20:01Z</time>
      </trkpt>
      <trkpt lat="43.1671" lon="6.47088">
        <ele>168.89212</ele>
        <time>2020-08-13T09:20:04Z</time>
      </trkpt>
      <trkpt lat="43.167" lon="6.47117">
        <ele>168.620651</ele>
        <time>2020-08-13T09:20:07Z</time>
      </trkpt>
      <trkpt lat="43.16692" lon="6.47146">
        <ele>169.38765</ele>
        <time>2020-08-13T09:20:11Z</time>
      </trkpt>
      <trkpt lat="43.16673" lon="6.47157">
        <ele>166.340408</ele>
        <time>2020-08-13T09:20:15Z</time>
      </trkpt>
      <trkpt lat="43.16651" lon="6.4717">
        <ele>162.503372</ele>
        <time>2020-08-13T09:20:19Z</time>
      </trkpt>
      <trkpt lat="43.16632" lon="6.4719">
        <ele>159.429382</ele>
        <time>2020-08-13T09:20:23Z</time>
      </trkpt>
      <trkpt lat="43.1662" lon="6.47211">
        <ele>158.316132</ele>
        <time>2020-08-13T09:20:26Z</time>
      </trkpt>
      <trkpt lat="43.16609" lon="6.47236">
        <ele>157.535431</ele>
        <time>2020-08-13T09:20:29Z</time>
      </trkpt>
      <trkpt lat="43.166" lon="6.47263">
        <ele>157.453476</ele>
        <time>2020-08-13T09:20:32Z</time>
      </trkpt>
      <trkpt lat="43.16592" lon="6.47286">
        <ele>157.26326</ele>
        <time>2020-08-13T09:20:35Z</time>
      </trkpt>
      <trkpt lat="43.16575" lon="6.47294">
        <ele>153.294922</ele>
        <time>2020-08-13T09:20:38Z</time>
      </trkpt>
      <trkpt lat="43.16556" lon="6.47296">
        <ele>148.150452</ele>
        <time>2020-08-13T09:20:41Z</time>
      </trkpt>
      <trkpt lat="43.16542" lon="6.47312">
        <ele>148.335175</ele>
        <time>2020-08-13T09:20:44Z</time>
      </trkpt>
      <trkpt lat="43.16526" lon="6.4733">
        <ele>150.236328</ele>
        <time>2020-08-13T09:20:48Z</time>
      </trkpt>
      <trkpt lat="43.1651" lon="6.47319">
        <ele>146.601395</ele>
        <time>2020-08-13T09:20:52Z</time>
      </trkpt>
      <trkpt lat="43.16492" lon="6.47303">
        <ele>142.707245</ele>
        <time>2020-08-13T09:20:57Z</time>
      </trkpt>
      <trkpt lat="43.16471" lon="6.47304">
        <ele>142.64682</ele>
        <time>2020-08-13T09:21:01Z</time>
      </trkpt>
      <trkpt lat="43.16451" lon="6.47319">
        <ele>143.853119</ele>
        <time>2020-08-13T09:21:05Z</time>
      </trkpt>
      <trkpt lat="43.16435" lon="6.47332">
        <ele>144.367798</ele>
        <time>2020-08-13T09:21:08Z</time>
      </trkpt>
      <trkpt lat="43.16417" lon="6.47344">
        <ele>144.237503</ele>
        <time>2020-08-13T09:21:11Z</time>
      </trkpt>
      <trkpt lat="43.164" lon="6.47352">
        <ele>145.725006</ele>
        <time>2020-08-13T09:21:14Z</time>
      </trkpt>
      <trkpt lat="43.16382" lon="6.47345">
        <ele>144.912506</ele>
        <time>2020-08-13T09:21:19Z</time>
      </trkpt>
      <trkpt lat="43.16394" lon="6.4733">
        <ele>142.199997</ele>
        <time>2020-08-13T09:22:28Z</time>
      </trkpt>
      <trkpt lat="43.16414" lon="6.4733">
        <ele>142.024994</ele>
        <time>2020-08-13T09:22:36Z</time>
      </trkpt>
      <trkpt lat="43.16433" lon="6.47313">
        <ele>140.550003</ele>
        <time>2020-08-13T09:22:42Z</time>
      </trkpt>
      <trkpt lat="43.16448" lon="6.47288">
        <ele>137.501953</ele>
        <time>2020-08-13T09:22:46Z</time>
      </trkpt>
      <trkpt lat="43.16463" lon="6.47263">
        <ele>133.627563</ele>
        <time>2020-08-13T09:22:50Z</time>
      </trkpt>
      <trkpt lat="43.16481" lon="6.47256">
        <ele>132.529999</ele>
        <time>2020-08-13T09:22:53Z</time>
      </trkpt>
      <trkpt lat="43.16497" lon="6.47267">
        <ele>134.963745</ele>
        <time>2020-08-13T09:22:56Z</time>
      </trkpt>
      <trkpt lat="43.16518" lon="6.47276">
        <ele>137.981949</ele>
        <time>2020-08-13T09:23:00Z</time>
      </trkpt>
      <trkpt lat="43.16528" lon="6.47256">
        <ele>136.473618</ele>
        <time>2020-08-13T09:23:03Z</time>
      </trkpt>
      <trkpt lat="43.16532" lon="6.47227">
        <ele>132.972031</ele>
        <time>2020-08-13T09:23:06Z</time>
      </trkpt>
      <trkpt lat="43.16535" lon="6.47195">
        <ele>130.31163</ele>
        <time>2020-08-13T09:23:09Z</time>
      </trkpt>
      <trkpt lat="43.16538" lon="6.4716">
        <ele>128.490631</ele>
        <time>2020-08-13T09:23:12Z</time>
      </trkpt>
      <trkpt lat="43.16537" lon="6.47122">
        <ele>126.390572</ele>
        <time>2020-08-13T09:23:15Z</time>
      </trkpt>
      <trkpt lat="43.16537" lon="6.47096">
        <ele>125.307449</ele>
        <time>2020-08-13T09:23:17Z</time>
      </trkpt>
      <trkpt lat="43.16536" lon="6.47061">
        <ele>123.461945</ele>
        <time>2020-08-13T09:23:20Z</time>
      </trkpt>
      <trkpt lat="43.16527" lon="6.47034">
        <ele>119.75</ele>
        <time>2020-08-13T09:23:23Z</time>
      </trkpt>
      <trkpt lat="43.16522" lon="6.47009">
        <ele>117.219398</ele>
        <time>2020-08-13T09:23:26Z</time>
      </trkpt>
      <trkpt lat="43.16528" lon="6.4698">
        <ele>117.646301</ele>
        <time>2020-08-13T09:23:29Z</time>
      </trkpt>
      <trkpt lat="43.16537" lon="6.46949">
        <ele>118.774567</ele>
        <time>2020-08-13T09:23:32Z</time>
      </trkpt>
      <trkpt lat="43.16538" lon="6.46918">
        <ele>117.448189</ele>
        <time>2020-08-13T09:23:35Z</time>
      </trkpt>
      <trkpt lat="43.16527" lon="6.46892">
        <ele>113.415199</ele>
        <time>2020-08-13T09:23:38Z</time>
      </trkpt>
      <trkpt lat="43.16516" lon="6.46868">
        <ele>109.458504</ele>
        <time>2020-08-13T09:23:41Z</time>
      </trkpt>
      <trkpt lat="43.16519" lon="6.46839">
        <ele>106.648491</ele>
        <time>2020-08-13T09:23:44Z</time>
      </trkpt>
      <trkpt lat="43.16534" lon="6.46821">
        <ele>106.949875</ele>
        <time>2020-08-13T09:23:47Z</time>
      </trkpt>
      <trkpt lat="43.16554" lon="6.46817">
        <ele>108.541092</ele>
        <time>2020-08-13T09:23:50Z</time>
      </trkpt>
      <trkpt lat="43.16574" lon="6.46808">
        <ele>109.275826</ele>
        <time>2020-08-13T09:23:53Z</time>
      </trkpt>
      <trkpt lat="43.1659" lon="6.46791">
        <ele>110.5625</ele>
        <time>2020-08-13T09:23:56Z</time>
      </trkpt>
      <trkpt lat="43.16591" lon="6.46766">
        <ele>109.380783</ele>
        <time>2020-08-13T09:23:59Z</time>
      </trkpt>
      <trkpt lat="43.16572" lon="6.4675">
        <ele>102.612411</ele>
        <time>2020-08-13T09:24:03Z</time>
      </trkpt>
      <trkpt lat="43.16554" lon="6.46736">
        <ele>99.725563</ele>
        <time>2020-08-13T09:24:06Z</time>
      </trkpt>
      <trkpt lat="43.16538" lon="6.46714">
        <ele>97.550491</ele>
        <time>2020-08-13T09:24:09Z</time>
      </trkpt>
      <trkpt lat="43.16524" lon="6.46686">
        <ele>94.195702</ele>
        <time>2020-08-13T09:24:12Z</time>
      </trkpt>
      <trkpt lat="43.16521" lon="6.46661">
        <ele>90.562813</ele>
        <time>2020-08-13T09:24:15Z</time>
      </trkpt>
      <trkpt lat="43.16534" lon="6.46632">
        <ele>93.373528</ele>
        <time>2020-08-13T09:24:19Z</time>
      </trkpt>
      <trkpt lat="43.16547" lon="6.46609">
        <ele>99.272499</ele>
        <time>2020-08-13T09:24:22Z</time>
      </trkpt>
      <trkpt lat="43.16545" lon="6.46581">
        <ele>102.456253</ele>
        <time>2020-08-13T09:24:26Z</time>
      </trkpt>
      <trkpt lat="43.16528" lon="6.46574">
        <ele>99.937523</ele>
        <time>2020-08-13T09:24:29Z</time>
      </trkpt>
      <trkpt lat="43.16507" lon="6.46585">
        <ele>93.980576</ele>
        <time>2020-08-13T09:24:32Z</time>
      </trkpt>
      <trkpt lat="43.16485" lon="6.46593">
        <ele>86.766556</ele>
        <time>2020-08-13T09:24:35Z</time>
      </trkpt>
      <trkpt lat="43.16465" lon="6.46599">
        <ele>81.320602</ele>
        <time>2020-08-13T09:24:38Z</time>
      </trkpt>
      <trkpt lat="43.16445" lon="6.46596">
        <ele>79.15789</ele>
        <time>2020-08-13T09:24:41Z</time>
      </trkpt>
      <trkpt lat="43.16424" lon="6.46598">
        <ele>74.682518</ele>
        <time>2020-08-13T09:24:44Z</time>
      </trkpt>
      <trkpt lat="43.16401" lon="6.4659">
        <ele>73.526802</ele>
        <time>2020-08-13T09:24:48Z</time>
      </trkpt>
      <trkpt lat="43.16382" lon="6.46579">
        <ele>75.055817</ele>
        <time>2020-08-13T09:24:51Z</time>
      </trkpt>
      <trkpt lat="43.16362" lon="6.46572">
        <ele>74.70858</ele>
        <time>2020-08-13T09:24:54Z</time>
      </trkpt>
      <trkpt lat="43.16341" lon="6.46576">
        <ele>69.851563</ele>
        <time>2020-08-13T09:24:57Z</time>
      </trkpt>
      <trkpt lat="43.16318" lon="6.46573">
        <ele>67.320778</ele>
        <time>2020-08-13T09:25:01Z</time>
      </trkpt>
      <trkpt lat="43.16311" lon="6.46545">
        <ele>71.216812</ele>
        <time>2020-08-13T09:25:05Z</time>
      </trkpt>
      <trkpt lat="43.16322" lon="6.46521">
        <ele>70.741287</ele>
        <time>2020-08-13T09:25:08Z</time>
      </trkpt>
      <trkpt lat="43.16339" lon="6.46502">
        <ele>72.051949</ele>
        <time>2020-08-13T09:25:11Z</time>
      </trkpt>
      <trkpt lat="43.16357" lon="6.46491">
        <ele>74.01577</ele>
        <time>2020-08-13T09:25:14Z</time>
      </trkpt>
      <trkpt lat="43.16374" lon="6.46476">
        <ele>73.635002</ele>
        <time>2020-08-13T09:25:18Z</time>
      </trkpt>
      <trkpt lat="43.16386" lon="6.46457">
        <ele>71.385002</ele>
        <time>2020-08-13T09:25:23Z</time>
      </trkpt>
      <trkpt lat="43.16401" lon="6.46437">
        <ele>69.57</ele>
        <time>2020-08-13T09:25:28Z</time>
      </trkpt>
      <trkpt lat="43.16416" lon="6.4642">
        <ele>69.913902</ele>
        <time>2020-08-13T09:25:32Z</time>
      </trkpt>
      <trkpt lat="43.16424" lon="6.46393">
        <ele>69.259377</ele>
        <time>2020-08-13T09:25:36Z</time>
      </trkpt>
      <trkpt lat="43.16412" lon="6.46372">
        <ele>63.959999</ele>
        <time>2020-08-13T09:25:39Z</time>
      </trkpt>
      <trkpt lat="43.16392" lon="6.46366">
        <ele>61.593594</ele>
        <time>2020-08-13T09:25:42Z</time>
      </trkpt>
      <trkpt lat="43.16369" lon="6.46367">
        <ele>56.716999</ele>
        <time>2020-08-13T09:25:45Z</time>
      </trkpt>
      <trkpt lat="43.16348" lon="6.46371">
        <ele>53.750999</ele>
        <time>2020-08-13T09:25:48Z</time>
      </trkpt>
      <trkpt lat="43.1633" lon="6.4636">
        <ele>52.618626</ele>
        <time>2020-08-13T09:25:51Z</time>
      </trkpt>
      <trkpt lat="43.16311" lon="6.46347">
        <ele>54.258842</ele>
        <time>2020-08-13T09:25:54Z</time>
      </trkpt>
      <trkpt lat="43.1629" lon="6.46332">
        <ele>55.008438</ele>
        <time>2020-08-13T09:25:57Z</time>
      </trkpt>
      <trkpt lat="43.16266" lon="6.4632">
        <ele>55.065914</ele>
        <time>2020-08-13T09:26:00Z</time>
      </trkpt>
      <trkpt lat="43.16246" lon="6.46311">
        <ele>55.407501</ele>
        <time>2020-08-13T09:26:03Z</time>
      </trkpt>
      <trkpt lat="43.16224" lon="6.46317">
        <ele>52.970001</ele>
        <time>2020-08-13T09:26:07Z</time>
      </trkpt>
      <trkpt lat="43.16207" lon="6.46334">
        <ele>48.924999</ele>
        <time>2020-08-13T09:26:10Z</time>
      </trkpt>
      <trkpt lat="43.16186" lon="6.46343">
        <ele>47.123299</ele>
        <time>2020-08-13T09:26:13Z</time>
      </trkpt>
      <trkpt lat="43.16161" lon="6.46348">
        <ele>46.048042</ele>
        <time>2020-08-13T09:26:16Z</time>
      </trkpt>
      <trkpt lat="43.16139" lon="6.46354">
        <ele>44.522045</ele>
        <time>2020-08-13T09:26:19Z</time>
      </trkpt>
      <trkpt lat="43.16122" lon="6.46361">
        <ele>42.476093</ele>
        <time>2020-08-13T09:26:22Z</time>
      </trkpt>
      <trkpt lat="43.16103" lon="6.46365">
        <ele>41.008049</ele>
        <time>2020-08-13T09:26:25Z</time>
      </trkpt>
      <trkpt lat="43.16081" lon="6.46362">
        <ele>40.284489</ele>
        <time>2020-08-13T09:26:28Z</time>
      </trkpt>
      <trkpt lat="43.16059" lon="6.46356">
        <ele>39.622875</ele>
        <time>2020-08-13T09:26:31Z</time>
      </trkpt>
      <trkpt lat="43.16038" lon="6.46346">
        <ele>38.666061</ele>
        <time>2020-08-13T09:26:34Z</time>
      </trkpt>
      <trkpt lat="43.16025" lon="6.46328">
        <ele>38.875</ele>
        <time>2020-08-13T09:26:37Z</time>
      </trkpt>
      <trkpt lat="43.16013" lon="6.46308">
        <ele>39.439804</ele>
        <time>2020-08-13T09:26:41Z</time>
      </trkpt>
      <trkpt lat="43.15995" lon="6.46302">
        <ele>39.191326</ele>
        <time>2020-08-13T09:26:45Z</time>
      </trkpt>
      <trkpt lat="43.15974" lon="6.46318">
        <ele>36.355362</ele>
        <time>2020-08-13T09:26:49Z</time>
      </trkpt>
      <trkpt lat="43.15959" lon="6.46338">
        <ele>32.873718</ele>
        <time>2020-08-13T09:26:52Z</time>
      </trkpt>
      <trkpt lat="43.15942" lon="6.46356">
        <ele>29.117613</ele>
        <time>2020-08-13T09:26:56Z</time>
      </trkpt>
      <trkpt lat="43.15923" lon="6.46357">
        <ele>28.106001</ele>
        <time>2020-08-13T09:27:00Z</time>
      </trkpt>
      <trkpt lat="43.15907" lon="6.46338">
        <ele>29.251499</ele>
        <time>2020-08-13T09:27:04Z</time>
      </trkpt>
      <trkpt lat="43.15897" lon="6.46312">
        <ele>30.262501</ele>
        <time>2020-08-13T09:27:08Z</time>
      </trkpt>
      <trkpt lat="43.15888" lon="6.46282">
        <ele>30.630899</ele>
        <time>2020-08-13T09:27:12Z</time>
      </trkpt>
      <trkpt lat="43.15884" lon="6.46257">
        <ele>30.63125</ele>
        <time>2020-08-13T09:27:15Z</time>
      </trkpt>
      <trkpt lat="43.15876" lon="6.46234">
        <ele>29.2572</ele>
        <time>2020-08-13T09:27:19Z</time>
      </trkpt>
      <trkpt lat="43.15862" lon="6.46246">
        <ele>26.498726</ele>
        <time>2020-08-13T09:27:42Z</time>
      </trkpt>
      <trkpt lat="43.15864" lon="6.46274">
        <ele>26.596943</ele>
        <time>2020-08-13T09:27:47Z</time>
      </trkpt>
      <trkpt lat="43.15857" lon="6.46301">
        <ele>24.538401</ele>
        <time>2020-08-13T09:27:52Z</time>
      </trkpt>
      <trkpt lat="43.1585" lon="6.46325">
        <ele>22.927999</ele>
        <time>2020-08-13T09:27:57Z</time>
      </trkpt>
      <trkpt lat="43.15846" lon="6.46353">
        <ele>20.428425</ele>
        <time>2020-08-13T09:28:03Z</time>
      </trkpt>
      <trkpt lat="43.15856" lon="6.46378">
        <ele>19.3556</ele>
        <time>2020-08-13T09:28:08Z</time>
      </trkpt>
      <trkpt lat="43.15871" lon="6.46392">
        <ele>19.127859</ele>
        <time>2020-08-13T09:28:12Z</time>
      </trkpt>
      <trkpt lat="43.15889" lon="6.46407">
        <ele>18.306</ele>
        <time>2020-08-13T09:28:17Z</time>
      </trkpt>
      <trkpt lat="43.15906" lon="6.46418">
        <ele>17.910376</ele>
        <time>2020-08-13T09:28:23Z</time>
      </trkpt>
      <trkpt lat="43.15911" lon="6.46429">
        <ele>16.446825</ele>
        <time>2020-08-13T09:28:56Z</time>
      </trkpt>
      <trkpt lat="43.15918" lon="6.46454">
        <ele>12.881266</ele>
        <time>2020-08-13T09:29:02Z</time>
      </trkpt>
      <trkpt lat="43.15925" lon="6.46484">
        <ele>9.29</ele>
        <time>2020-08-13T09:29:07Z</time>
      </trkpt>
      <trkpt lat="43.1593" lon="6.46513">
        <ele>5.81</ele>
        <time>2020-08-13T09:29:11Z</time>
      </trkpt>
      <trkpt lat="43.15929" lon="6.46543">
        <ele>8.557</ele>
        <time>2020-08-13T09:29:15Z</time>
      </trkpt>
      <trkpt lat="43.15924" lon="6.46571">
        <ele>13.50675</ele>
        <time>2020-08-13T09:29:20Z</time>
      </trkpt>
      <trkpt lat="43.15917" lon="6.46594">
        <ele>18.066013</ele>
        <time>2020-08-13T09:29:25Z</time>
      </trkpt>
      <trkpt lat="43.15907" lon="6.46615">
        <ele>22.0832</ele>
        <time>2020-08-13T09:29:30Z</time>
      </trkpt>
      <trkpt lat="43.15892" lon="6.46632">
        <ele>24.472313</ele>
        <time>2020-08-13T09:29:36Z</time>
      </trkpt>
      <trkpt lat="43.15878" lon="6.46648">
        <ele>26.134762</ele>
        <time>2020-08-13T09:29:57Z</time>
      </trkpt>
      <trkpt lat="43.15861" lon="6.46663">
        <ele>26.710693</ele>
        <time>2020-08-13T09:30:06Z</time>
      </trkpt>
      <trkpt lat="43.15846" lon="6.46675">
        <ele>27.004</ele>
        <time>2020-08-13T09:30:14Z</time>
      </trkpt>
      <trkpt lat="43.15829" lon="6.46687">
        <ele>27.444788</ele>
        <time>2020-08-13T09:30:21Z</time>
      </trkpt>
      <trkpt lat="43.15813" lon="6.46702">
        <ele>28.628462</ele>
        <time>2020-08-13T09:30:28Z</time>
      </trkpt>
      <trkpt lat="43.15798" lon="6.46717">
        <ele>29.570038</ele>
        <time>2020-08-13T09:30:35Z</time>
      </trkpt>
      <trkpt lat="43.15785" lon="6.46736">
        <ele>31.093962</ele>
        <time>2020-08-13T09:30:41Z</time>
      </trkpt>
      <trkpt lat="43.15773" lon="6.4676">
        <ele>32.936718</ele>
        <time>2020-08-13T09:30:47Z</time>
      </trkpt>
      <trkpt lat="43.15766" lon="6.46784">
        <ele>34.269344</ele>
        <time>2020-08-13T09:30:55Z</time>
      </trkpt>
      <trkpt lat="43.15761" lon="6.46812">
        <ele>35.570595</ele>
        <time>2020-08-13T09:31:03Z</time>
      </trkpt>
      <trkpt lat="43.15754" lon="6.46839">
        <ele>35.286251</ele>
        <time>2020-08-13T09:31:10Z</time>
      </trkpt>
      <trkpt lat="43.15746" lon="6.46864">
        <ele>33.90889</ele>
        <time>2020-08-13T09:31:18Z</time>
      </trkpt>
      <trkpt lat="43.15739" lon="6.46887">
        <ele>32.506374</ele>
        <time>2020-08-13T09:31:25Z</time>
      </trkpt>
      <trkpt lat="43.15729" lon="6.46909">
        <ele>30.90085</ele>
        <time>2020-08-13T09:31:31Z</time>
      </trkpt>
      <trkpt lat="43.15715" lon="6.46929">
        <ele>28.472719</ele>
        <time>2020-08-13T09:31:38Z</time>
      </trkpt>
      <trkpt lat="43.15698" lon="6.46943">
        <ele>29.040251</ele>
        <time>2020-08-13T09:31:45Z</time>
      </trkpt>
      <trkpt lat="43.15677" lon="6.46954">
        <ele>29.816376</ele>
        <time>2020-08-13T09:31:52Z</time>
      </trkpt>
      <trkpt lat="43.15659" lon="6.46957">
        <ele>31.119116</ele>
        <time>2020-08-13T09:31:58Z</time>
      </trkpt>
      <trkpt lat="43.15639" lon="6.46959">
        <ele>33.05492</ele>
        <time>2020-08-13T09:32:04Z</time>
      </trkpt>
      <trkpt lat="43.15621" lon="6.46955">
        <ele>33.858437</ele>
        <time>2020-08-13T09:32:11Z</time>
      </trkpt>
      <trkpt lat="43.15599" lon="6.46956">
        <ele>34.426952</ele>
        <time>2020-08-13T09:32:19Z</time>
      </trkpt>
      <trkpt lat="43.1558" lon="6.46958">
        <ele>35.217201</ele>
        <time>2020-08-13T09:32:26Z</time>
      </trkpt>
      <trkpt lat="43.15561" lon="6.46964">
        <ele>35.26387</ele>
        <time>2020-08-13T09:32:34Z</time>
      </trkpt>
      <trkpt lat="43.15544" lon="6.46973">
        <ele>35.798</ele>
        <time>2020-08-13T09:32:42Z</time>
      </trkpt>
      <trkpt lat="43.15528" lon="6.4699">
        <ele>37.133751</ele>
        <time>2020-08-13T09:32:49Z</time>
      </trkpt>
      <trkpt lat="43.15513" lon="6.47009">
        <ele>37.744774</ele>
        <time>2020-08-13T09:32:58Z</time>
      </trkpt>
      <trkpt lat="43.15503" lon="6.47033">
        <ele>40.051876</ele>
        <time>2020-08-13T09:33:06Z</time>
      </trkpt>
      <trkpt lat="43.15494" lon="6.47056">
        <ele>41.333637</ele>
        <time>2020-08-13T09:33:12Z</time>
      </trkpt>
      <trkpt lat="43.15487" lon="6.47082">
        <ele>43.450966</ele>
        <time>2020-08-13T09:33:18Z</time>
      </trkpt>
      <trkpt lat="43.15487" lon="6.47107">
        <ele>46.778248</ele>
        <time>2020-08-13T09:33:24Z</time>
      </trkpt>
      <trkpt lat="43.15489" lon="6.47134">
        <ele>48.401176</ele>
        <time>2020-08-13T09:33:35Z</time>
      </trkpt>
      <trkpt lat="43.15495" lon="6.47153">
        <ele>50.583282</ele>
        <time>2020-08-13T09:33:40Z</time>
      </trkpt>
      <trkpt lat="43.15495" lon="6.47153">
        <ele>50.583282</ele>
        <time>2020-08-13T09:33:45Z</time>
      </trkpt>
      <trkpt lat="43.15507" lon="6.47206">
        <ele>44.357601</ele>
        <time>2020-08-13T09:33:50Z</time>
      </trkpt>
      <trkpt lat="43.15523" lon="6.47219">
        <ele>48.005226</ele>
        <time>2020-08-13T09:33:55Z</time>
      </trkpt>
      <trkpt lat="43.15535" lon="6.47243">
        <ele>45.50375</ele>
        <time>2020-08-13T09:34:02Z</time>
      </trkpt>
      <trkpt lat="43.15548" lon="6.47268">
        <ele>43.095688</ele>
        <time>2020-08-13T09:34:08Z</time>
      </trkpt>
      <trkpt lat="43.15559" lon="6.47292">
        <ele>41.513283</ele>
        <time>2020-08-13T09:34:13Z</time>
      </trkpt>
      <trkpt lat="43.15571" lon="6.47314">
        <ele>38.592625</ele>
        <time>2020-08-13T09:34:19Z</time>
      </trkpt>
      <trkpt lat="43.15585" lon="6.47332">
        <ele>35.959167</ele>
        <time>2020-08-13T09:34:25Z</time>
      </trkpt>
      <trkpt lat="43.156" lon="6.47346">
        <ele>35.0215</ele>
        <time>2020-08-13T09:34:50Z</time>
      </trkpt>
      <trkpt lat="43.15618" lon="6.47359">
        <ele>34.791813</ele>
        <time>2020-08-13T09:34:56Z</time>
      </trkpt>
      <trkpt lat="43.15637" lon="6.47368">
        <ele>35.526375</ele>
        <time>2020-08-13T09:35:04Z</time>
      </trkpt>
      <trkpt lat="43.15655" lon="6.47374">
        <ele>36.945801</ele>
        <time>2020-08-13T09:35:11Z</time>
      </trkpt>
      <trkpt lat="43.15673" lon="6.47384">
        <ele>37.435623</ele>
        <time>2020-08-13T09:35:18Z</time>
      </trkpt>
      <trkpt lat="43.15691" lon="6.47391">
        <ele>37.996437</ele>
        <time>2020-08-13T09:35:24Z</time>
      </trkpt>
      <trkpt lat="43.15711" lon="6.47399">
        <ele>38.509289</ele>
        <time>2020-08-13T09:35:30Z</time>
      </trkpt>
      <trkpt lat="43.1573" lon="6.47407">
        <ele>38.660839</ele>
        <time>2020-08-13T09:35:36Z</time>
      </trkpt>
      <trkpt lat="43.15749" lon="6.47416">
        <ele>38.3675</ele>
        <time>2020-08-13T09:35:42Z</time>
      </trkpt>
      <trkpt lat="43.15768" lon="6.47426">
        <ele>37.2925</ele>
        <time>2020-08-13T09:35:47Z</time>
      </trkpt>
      <trkpt lat="43.15786" lon="6.47436">
        <ele>36.554405</ele>
        <time>2020-08-13T09:35:53Z</time>
      </trkpt>
      <trkpt lat="43.15803" lon="6.47448">
        <ele>38.801632</ele>
        <time>2020-08-13T09:36:01Z</time>
      </trkpt>
      <trkpt lat="43.1582" lon="6.47466">
        <ele>39.956669</ele>
        <time>2020-08-13T09:36:06Z</time>
      </trkpt>
      <trkpt lat="43.15835" lon="6.47482">
        <ele>41.101875</ele>
        <time>2020-08-13T09:36:11Z</time>
      </trkpt>
      <trkpt lat="43.15848" lon="6.47506">
        <ele>41.176781</ele>
        <time>2020-08-13T09:36:17Z</time>
      </trkpt>
      <trkpt lat="43.15858" lon="6.47529">
        <ele>40.832062</ele>
        <time>2020-08-13T09:36:22Z</time>
      </trkpt>
      <trkpt lat="43.15866" lon="6.47556">
        <ele>39.427067</ele>
        <time>2020-08-13T09:36:26Z</time>
      </trkpt>
      <trkpt lat="43.15872" lon="6.47581">
        <ele>38.173599</ele>
        <time>2020-08-13T09:36:29Z</time>
      </trkpt>
      <trkpt lat="43.15875" lon="6.47607">
        <ele>36.566799</ele>
        <time>2020-08-13T09:36:32Z</time>
      </trkpt>
      <trkpt lat="43.15875" lon="6.47638">
        <ele>34.946751</ele>
        <time>2020-08-13T09:36:36Z</time>
      </trkpt>
      <trkpt lat="43.15871" lon="6.47664">
        <ele>34.335312</ele>
        <time>2020-08-13T09:36:40Z</time>
      </trkpt>
      <trkpt lat="43.15861" lon="6.47692">
        <ele>34.9165</ele>
        <time>2020-08-13T09:36:45Z</time>
      </trkpt>
      <trkpt lat="43.15851" lon="6.47717">
        <ele>37.946133</ele>
        <time>2020-08-13T09:36:49Z</time>
      </trkpt>
      <trkpt lat="43.15837" lon="6.47739">
        <ele>40.038151</ele>
        <time>2020-08-13T09:36:53Z</time>
      </trkpt>
      <trkpt lat="43.15823" lon="6.47757">
        <ele>40.595425</ele>
        <time>2020-08-13T09:36:57Z</time>
      </trkpt>
      <trkpt lat="43.15809" lon="6.47777">
        <ele>40.484562</ele>
        <time>2020-08-13T09:37:02Z</time>
      </trkpt>
      <trkpt lat="43.15795" lon="6.47799">
        <ele>39.855</ele>
        <time>2020-08-13T09:37:07Z</time>
      </trkpt>
      <trkpt lat="43.15784" lon="6.47821">
        <ele>38.51347</ele>
        <time>2020-08-13T09:37:14Z</time>
      </trkpt>
      <trkpt lat="43.15784" lon="6.47849">
        <ele>39.392048</ele>
        <time>2020-08-13T09:37:22Z</time>
      </trkpt>
      <trkpt lat="43.15781" lon="6.47876">
        <ele>39.799488</ele>
        <time>2020-08-13T09:42:59Z</time>
      </trkpt>
      <trkpt lat="43.15779" lon="6.47901">
        <ele>40.497639</ele>
        <time>2020-08-13T09:43:06Z</time>
      </trkpt>
      <trkpt lat="43.15774" lon="6.4793">
        <ele>41.44833</ele>
        <time>2020-08-13T09:43:14Z</time>
      </trkpt>
      <trkpt lat="43.1577" lon="6.4796">
        <ele>44.155064</ele>
        <time>2020-08-13T09:43:20Z</time>
      </trkpt>
      <trkpt lat="43.15768" lon="6.47986">
        <ele>46.912601</ele>
        <time>2020-08-13T09:43:26Z</time>
      </trkpt>
      <trkpt lat="43.15765" lon="6.48015">
        <ele>46.217575</ele>
        <time>2020-08-13T09:43:32Z</time>
      </trkpt>
      <trkpt lat="43.15764" lon="6.48041">
        <ele>46.074718</ele>
        <time>2020-08-13T09:43:37Z</time>
      </trkpt>
      <trkpt lat="43.15762" lon="6.48067">
        <ele>41.546974</ele>
        <time>2020-08-13T09:43:42Z</time>
      </trkpt>
      <trkpt lat="43.15755" lon="6.48091">
        <ele>36.195164</ele>
        <time>2020-08-13T09:43:47Z</time>
      </trkpt>
      <trkpt lat="43.15747" lon="6.48114">
        <ele>35.035851</ele>
        <time>2020-08-13T09:43:52Z</time>
      </trkpt>
      <trkpt lat="43.15732" lon="6.48135">
        <ele>38.930862</ele>
        <time>2020-08-13T09:43:58Z</time>
      </trkpt>
      <trkpt lat="43.15716" lon="6.48154">
        <ele>42.821438</ele>
        <time>2020-08-13T09:44:04Z</time>
      </trkpt>
      <trkpt lat="43.157" lon="6.48166">
        <ele>43.6875</ele>
        <time>2020-08-13T09:44:09Z</time>
      </trkpt>
      <trkpt lat="43.15682" lon="6.48178">
        <ele>44.285614</ele>
        <time>2020-08-13T09:44:14Z</time>
      </trkpt>
      <trkpt lat="43.15666" lon="6.4819">
        <ele>44.668125</ele>
        <time>2020-08-13T09:44:20Z</time>
      </trkpt>
      <trkpt lat="43.15651" lon="6.48209">
        <ele>46.738049</ele>
        <time>2020-08-13T09:44:28Z</time>
      </trkpt>
      <trkpt lat="43.15635" lon="6.48225">
        <ele>46.576717</ele>
        <time>2020-08-13T09:44:35Z</time>
      </trkpt>
      <trkpt lat="43.15625" lon="6.48246">
        <ele>46.109188</ele>
        <time>2020-08-13T09:44:40Z</time>
      </trkpt>
      <trkpt lat="43.15615" lon="6.48272">
        <ele>45.465374</ele>
        <time>2020-08-13T09:44:46Z</time>
      </trkpt>
      <trkpt lat="43.15609" lon="6.48301">
        <ele>44.759251</ele>
        <time>2020-08-13T09:44:52Z</time>
      </trkpt>
      <trkpt lat="43.15607" lon="6.4833">
        <ele>44.859226</ele>
        <time>2020-08-13T09:44:59Z</time>
      </trkpt>
      <trkpt lat="43.15609" lon="6.48358">
        <ele>44.222626</ele>
        <time>2020-08-13T09:45:05Z</time>
      </trkpt>
      <trkpt lat="43.15616" lon="6.48383">
        <ele>44.32156</ele>
        <time>2020-08-13T09:45:11Z</time>
      </trkpt>
      <trkpt lat="43.15624" lon="6.48407">
        <ele>45.316448</ele>
        <time>2020-08-13T09:45:17Z</time>
      </trkpt>
      <trkpt lat="43.15628" lon="6.48431">
        <ele>43.86599</ele>
        <time>2020-08-13T09:45:25Z</time>
      </trkpt>
      <trkpt lat="43.15638" lon="6.4845">
        <ele>44.612686</ele>
        <time>2020-08-13T09:45:59Z</time>
      </trkpt>
      <trkpt lat="43.15643" lon="6.48477">
        <ele>42.805626</ele>
        <time>2020-08-13T09:46:09Z</time>
      </trkpt>
      <trkpt lat="43.15644" lon="6.48503">
        <ele>40.217812</ele>
        <time>2020-08-13T09:46:17Z</time>
      </trkpt>
      <trkpt lat="43.15643" lon="6.48526">
        <ele>37.369217</ele>
        <time>2020-08-13T09:47:12Z</time>
      </trkpt>
      <trkpt lat="43.15637" lon="6.48552">
        <ele>39.5075</ele>
        <time>2020-08-13T09:47:20Z</time>
      </trkpt>
      <trkpt lat="43.15626" lon="6.48578">
        <ele>42.420689</ele>
        <time>2020-08-13T09:47:27Z</time>
      </trkpt>
      <trkpt lat="43.15611" lon="6.48602">
        <ele>47.174999</ele>
        <time>2020-08-13T09:47:33Z</time>
      </trkpt>
      <trkpt lat="43.15598" lon="6.48623">
        <ele>52.0238</ele>
        <time>2020-08-13T09:47:39Z</time>
      </trkpt>
      <trkpt lat="43.15583" lon="6.48641">
        <ele>55.480927</ele>
        <time>2020-08-13T09:47:45Z</time>
      </trkpt>
      <trkpt lat="43.15568" lon="6.48658">
        <ele>57.478951</ele>
        <time>2020-08-13T09:47:50Z</time>
      </trkpt>
      <trkpt lat="43.15554" lon="6.48683">
        <ele>58.951099</ele>
        <time>2020-08-13T09:47:56Z</time>
      </trkpt>
      <trkpt lat="43.15545" lon="6.48705">
        <ele>59.607498</ele>
        <time>2020-08-13T09:48:04Z</time>
      </trkpt>
      <trkpt lat="43.15539" lon="6.48732">
        <ele>59.415901</ele>
        <time>2020-08-13T09:48:10Z</time>
      </trkpt>
      <trkpt lat="43.15537" lon="6.48757">
        <ele>59.442402</ele>
        <time>2020-08-13T09:48:15Z</time>
      </trkpt>
      <trkpt lat="43.15538" lon="6.48785">
        <ele>58.322838</ele>
        <time>2020-08-13T09:48:20Z</time>
      </trkpt>
      <trkpt lat="43.15538" lon="6.4881">
        <ele>56.382099</ele>
        <time>2020-08-13T09:48:25Z</time>
      </trkpt>
      <trkpt lat="43.15537" lon="6.48837">
        <ele>53.937008</ele>
        <time>2020-08-13T09:48:30Z</time>
      </trkpt>
      <trkpt lat="43.15533" lon="6.48862">
        <ele>51.273548</ele>
        <time>2020-08-13T09:48:35Z</time>
      </trkpt>
      <trkpt lat="43.15526" lon="6.4889">
        <ele>48.45829</ele>
        <time>2020-08-13T09:48:41Z</time>
      </trkpt>
      <trkpt lat="43.15514" lon="6.48912">
        <ele>50.521908</ele>
        <time>2020-08-13T09:48:46Z</time>
      </trkpt>
      <trkpt lat="43.15499" lon="6.48933">
        <ele>52.349998</ele>
        <time>2020-08-13T09:48:51Z</time>
      </trkpt>
      <trkpt lat="43.15484" lon="6.48953">
        <ele>53.916538</ele>
        <time>2020-08-13T09:48:57Z</time>
      </trkpt>
      <trkpt lat="43.15469" lon="6.48971">
        <ele>54.647499</ele>
        <time>2020-08-13T09:49:03Z</time>
      </trkpt>
      <trkpt lat="43.15456" lon="6.4899">
        <ele>55.250252</ele>
        <time>2020-08-13T09:49:08Z</time>
      </trkpt>
      <trkpt lat="43.15445" lon="6.49014">
        <ele>55.600174</ele>
        <time>2020-08-13T09:49:13Z</time>
      </trkpt>
      <trkpt lat="43.15438" lon="6.49039">
        <ele>56.078125</ele>
        <time>2020-08-13T09:49:17Z</time>
      </trkpt>
      <trkpt lat="43.15434" lon="6.49066">
        <ele>57.319168</ele>
        <time>2020-08-13T09:49:22Z</time>
      </trkpt>
      <trkpt lat="43.15434" lon="6.49091">
        <ele>57.115246</ele>
        <time>2020-08-13T09:49:27Z</time>
      </trkpt>
      <trkpt lat="43.15437" lon="6.4912">
        <ele>57.609428</ele>
        <time>2020-08-13T09:49:32Z</time>
      </trkpt>
      <trkpt lat="43.15446" lon="6.49144">
        <ele>57.943939</ele>
        <time>2020-08-13T09:49:37Z</time>
      </trkpt>
      <trkpt lat="43.15457" lon="6.49167">
        <ele>58.220921</ele>
        <time>2020-08-13T09:49:43Z</time>
      </trkpt>
      <trkpt lat="43.1547" lon="6.49191">
        <ele>58.637051</ele>
        <time>2020-08-13T09:49:49Z</time>
      </trkpt>
      <trkpt lat="43.15482" lon="6.49212">
        <ele>58.339329</ele>
        <time>2020-08-13T09:49:54Z</time>
      </trkpt>
      <trkpt lat="43.15494" lon="6.49236">
        <ele>56.84156</ele>
        <time>2020-08-13T09:50:01Z</time>
      </trkpt>
      <trkpt lat="43.15499" lon="6.49262">
        <ele>55.912399</ele>
        <time>2020-08-13T09:50:07Z</time>
      </trkpt>
      <trkpt lat="43.15501" lon="6.49291">
        <ele>60.759998</ele>
        <time>2020-08-13T09:50:12Z</time>
      </trkpt>
      <trkpt lat="43.15498" lon="6.49319">
        <ele>63.993786</ele>
        <time>2020-08-13T09:50:19Z</time>
      </trkpt>
      <trkpt lat="43.15492" lon="6.49346">
        <ele>66.864746</ele>
        <time>2020-08-13T09:50:25Z</time>
      </trkpt>
      <trkpt lat="43.15481" lon="6.49371">
        <ele>67.408302</ele>
        <time>2020-08-13T09:50:31Z</time>
      </trkpt>
      <trkpt lat="43.1547" lon="6.49392">
        <ele>66.626846</ele>
        <time>2020-08-13T09:50:36Z</time>
      </trkpt>
      <trkpt lat="43.15452" lon="6.49409">
        <ele>63.46748</ele>
        <time>2020-08-13T09:50:41Z</time>
      </trkpt>
      <trkpt lat="43.15434" lon="6.49425">
        <ele>61.678749</ele>
        <time>2020-08-13T09:50:47Z</time>
      </trkpt>
      <trkpt lat="43.15416" lon="6.49441">
        <ele>61.070984</ele>
        <time>2020-08-13T09:50:53Z</time>
      </trkpt>
      <trkpt lat="43.15402" lon="6.49459">
        <ele>61.258663</ele>
        <time>2020-08-13T09:50:59Z</time>
      </trkpt>
      <trkpt lat="43.1539" lon="6.4948">
        <ele>61.928066</ele>
        <time>2020-08-13T09:51:04Z</time>
      </trkpt>
      <trkpt lat="43.15382" lon="6.49504">
        <ele>63.435249</ele>
        <time>2020-08-13T09:51:08Z</time>
      </trkpt>
      <trkpt lat="43.15375" lon="6.49533">
        <ele>65.854248</ele>
        <time>2020-08-13T09:51:13Z</time>
      </trkpt>
      <trkpt lat="43.15373" lon="6.49558">
        <ele>68.153847</ele>
        <time>2020-08-13T09:51:18Z</time>
      </trkpt>
      <trkpt lat="43.15375" lon="6.49586">
        <ele>68.446747</ele>
        <time>2020-08-13T09:51:23Z</time>
      </trkpt>
      <trkpt lat="43.1538" lon="6.49613">
        <ele>69.874809</ele>
        <time>2020-08-13T09:51:28Z</time>
      </trkpt>
      <trkpt lat="43.15389" lon="6.49641">
        <ele>64.936729</ele>
        <time>2020-08-13T09:51:33Z</time>
      </trkpt>
      <trkpt lat="43.15403" lon="6.49663">
        <ele>65.997391</ele>
        <time>2020-08-13T09:51:39Z</time>
      </trkpt>
      <trkpt lat="43.15416" lon="6.49684">
        <ele>68.622299</ele>
        <time>2020-08-13T09:51:45Z</time>
      </trkpt>
      <trkpt lat="43.15429" lon="6.49705">
        <ele>69.636932</ele>
        <time>2020-08-13T09:51:51Z</time>
      </trkpt>
      <trkpt lat="43.15441" lon="6.49726">
        <ele>69.982529</ele>
        <time>2020-08-13T09:51:56Z</time>
      </trkpt>
      <trkpt lat="43.15453" lon="6.49748">
        <ele>70.985603</ele>
        <time>2020-08-13T09:52:01Z</time>
      </trkpt>
      <trkpt lat="43.15463" lon="6.4977">
        <ele>72.095497</ele>
        <time>2020-08-13T09:52:05Z</time>
      </trkpt>
      <trkpt lat="43.15471" lon="6.49797">
        <ele>70.643974</ele>
        <time>2020-08-13T09:52:10Z</time>
      </trkpt>
      <trkpt lat="43.15475" lon="6.49822">
        <ele>68.617828</ele>
        <time>2020-08-13T09:52:17Z</time>
      </trkpt>
      <trkpt lat="43.15478" lon="6.49853">
        <ele>66.052589</ele>
        <time>2020-08-13T09:52:22Z</time>
      </trkpt>
      <trkpt lat="43.15482" lon="6.49877">
        <ele>65.045998</ele>
        <time>2020-08-13T09:52:26Z</time>
      </trkpt>
      <trkpt lat="43.15487" lon="6.49901">
        <ele>64.382248</ele>
        <time>2020-08-13T09:52:31Z</time>
      </trkpt>
      <trkpt lat="43.15498" lon="6.49927">
        <ele>64.894348</ele>
        <time>2020-08-13T09:52:36Z</time>
      </trkpt>
      <trkpt lat="43.1551" lon="6.49946">
        <ele>65.76403</ele>
        <time>2020-08-13T09:52:40Z</time>
      </trkpt>
      <trkpt lat="43.15527" lon="6.49964">
        <ele>64.936707</ele>
        <time>2020-08-13T09:52:45Z</time>
      </trkpt>
      <trkpt lat="43.15545" lon="6.49977">
        <ele>65.529747</ele>
        <time>2020-08-13T09:52:51Z</time>
      </trkpt>
      <trkpt lat="43.15566" lon="6.49982">
        <ele>65.713806</ele>
        <time>2020-08-13T09:52:56Z</time>
      </trkpt>
      <trkpt lat="43.15587" lon="6.49983">
        <ele>65.686928</ele>
        <time>2020-08-13T09:53:01Z</time>
      </trkpt>
      <trkpt lat="43.1561" lon="6.49982">
        <ele>65.25486</ele>
        <time>2020-08-13T09:53:06Z</time>
      </trkpt>
      <trkpt lat="43.15628" lon="6.4998">
        <ele>64.577377</ele>
        <time>2020-08-13T09:53:10Z</time>
      </trkpt>
      <trkpt lat="43.15646" lon="6.49977">
        <ele>64.502602</ele>
        <time>2020-08-13T09:53:15Z</time>
      </trkpt>
      <trkpt lat="43.15664" lon="6.49977">
        <ele>65.732811</ele>
        <time>2020-08-13T09:53:20Z</time>
      </trkpt>
      <trkpt lat="43.15685" lon="6.49979">
        <ele>66.506065</ele>
        <time>2020-08-13T09:53:25Z</time>
      </trkpt>
      <trkpt lat="43.15705" lon="6.49983">
        <ele>68.795723</ele>
        <time>2020-08-13T09:53:30Z</time>
      </trkpt>
      <trkpt lat="43.15724" lon="6.49992">
        <ele>69.721886</ele>
        <time>2020-08-13T09:53:35Z</time>
      </trkpt>
      <trkpt lat="43.15741" lon="6.50003">
        <ele>70.174973</ele>
        <time>2020-08-13T09:53:40Z</time>
      </trkpt>
      <trkpt lat="43.15759" lon="6.50015">
        <ele>70.43</ele>
        <time>2020-08-13T09:53:45Z</time>
      </trkpt>
      <trkpt lat="43.15776" lon="6.50031">
        <ele>69.800003</ele>
        <time>2020-08-13T09:53:51Z</time>
      </trkpt>
      <trkpt lat="43.15794" lon="6.50043">
        <ele>70.719162</ele>
        <time>2020-08-13T09:53:56Z</time>
      </trkpt>
      <trkpt lat="43.15813" lon="6.50056">
        <ele>71.617203</ele>
        <time>2020-08-13T09:54:01Z</time>
      </trkpt>
      <trkpt lat="43.15829" lon="6.50069">
        <ele>72.185043</ele>
        <time>2020-08-13T09:54:07Z</time>
      </trkpt>
      <trkpt lat="43.15845" lon="6.50084">
        <ele>72.835335</ele>
        <time>2020-08-13T09:54:12Z</time>
      </trkpt>
      <trkpt lat="43.15861" lon="6.50102">
        <ele>73.651878</ele>
        <time>2020-08-13T09:54:16Z</time>
      </trkpt>
      <trkpt lat="43.15875" lon="6.50121">
        <ele>75.133125</ele>
        <time>2020-08-13T09:54:20Z</time>
      </trkpt>
      <trkpt lat="43.15889" lon="6.50143">
        <ele>75.772408</ele>
        <time>2020-08-13T09:54:25Z</time>
      </trkpt>
      <trkpt lat="43.15897" lon="6.50166">
        <ele>75.746582</ele>
        <time>2020-08-13T09:54:30Z</time>
      </trkpt>
      <trkpt lat="43.15907" lon="6.50189">
        <ele>75.76255</ele>
        <time>2020-08-13T09:54:34Z</time>
      </trkpt>
      <trkpt lat="43.15918" lon="6.50217">
        <ele>76.636719</ele>
        <time>2020-08-13T09:54:38Z</time>
      </trkpt>
      <trkpt lat="43.1593" lon="6.50245">
        <ele>79.034439</ele>
        <time>2020-08-13T09:54:42Z</time>
      </trkpt>
      <trkpt lat="43.15943" lon="6.5027">
        <ele>82.495949</ele>
        <time>2020-08-13T09:54:46Z</time>
      </trkpt>
      <trkpt lat="43.15951" lon="6.50285">
        <ele>87.109001</ele>
        <time>2020-08-13T09:54:49Z</time>
      </trkpt>
      <trkpt lat="43.15951" lon="6.50285">
        <ele>87.109001</ele>
        <time>2020-08-13T09:54:53Z</time>
      </trkpt>
      <trkpt lat="43.15951" lon="6.50285">
        <ele>87.109001</ele>
        <time>2020-08-13T09:54:57Z</time>
      </trkpt>
      <trkpt lat="43.15951" lon="6.50285">
        <ele>87.109001</ele>
        <time>2020-08-13T09:55:01Z</time>
      </trkpt>
      <trkpt lat="43.15951" lon="6.50285">
        <ele>87.109001</ele>
        <time>2020-08-13T09:55:05Z</time>
      </trkpt>
      <trkpt lat="43.15951" lon="6.50285">
        <ele>87.109001</ele>
        <time>2020-08-13T09:55:10Z</time>
      </trkpt>
      <trkpt lat="43.15951" lon="6.50285">
        <ele>87.109001</ele>
        <time>2020-08-13T09:55:14Z</time>
      </trkpt>
      <trkpt lat="43.15951" lon="6.50285">
        <ele>87.109001</ele>
        <time>2020-08-13T09:55:18Z</time>
      </trkpt>
      <trkpt lat="43.16134" lon="6.50551">
        <ele>66.869843</ele>
        <time>2020-08-13T09:55:27Z</time>
      </trkpt>
      <trkpt lat="43.16135" lon="6.50558">
        <ele>66.328377</ele>
        <time>2020-08-13T09:55:29Z</time>
      </trkpt>
      <trkpt lat="43.16157" lon="6.50581">
        <ele>61.425926</ele>
        <time>2020-08-13T09:55:33Z</time>
      </trkpt>
      <trkpt lat="43.16173" lon="6.50598">
        <ele>60.869896</ele>
        <time>2020-08-13T09:55:36Z</time>
      </trkpt>
      <trkpt lat="43.16189" lon="6.50616">
        <ele>61.780312</ele>
        <time>2020-08-13T09:55:39Z</time>
      </trkpt>
      <trkpt lat="43.16206" lon="6.50631">
        <ele>61.590401</ele>
        <time>2020-08-13T09:55:42Z</time>
      </trkpt>
      <trkpt lat="43.16221" lon="6.50646">
        <ele>61.038601</ele>
        <time>2020-08-13T09:55:45Z</time>
      </trkpt>
      <trkpt lat="43.16236" lon="6.50661">
        <ele>58.808949</ele>
        <time>2020-08-13T09:55:48Z</time>
      </trkpt>
      <trkpt lat="43.16251" lon="6.50676">
        <ele>59.636501</ele>
        <time>2020-08-13T09:55:51Z</time>
      </trkpt>
      <trkpt lat="43.16265" lon="6.5069">
        <ele>60.742321</ele>
        <time>2020-08-13T09:55:54Z</time>
      </trkpt>
      <trkpt lat="43.16284" lon="6.5071">
        <ele>59.365387</ele>
        <time>2020-08-13T09:55:58Z</time>
      </trkpt>
      <trkpt lat="43.16303" lon="6.5073">
        <ele>57.810474</ele>
        <time>2020-08-13T09:56:02Z</time>
      </trkpt>
      <trkpt lat="43.16318" lon="6.50745">
        <ele>58.250549</ele>
        <time>2020-08-13T09:56:05Z</time>
      </trkpt>
      <trkpt lat="43.16333" lon="6.50761">
        <ele>56.922146</ele>
        <time>2020-08-13T09:56:08Z</time>
      </trkpt>
      <trkpt lat="43.16348" lon="6.50776">
        <ele>56.053799</ele>
        <time>2020-08-13T09:56:11Z</time>
      </trkpt>
      <trkpt lat="43.16363" lon="6.50792">
        <ele>53.702999</ele>
        <time>2020-08-13T09:56:14Z</time>
      </trkpt>
      <trkpt lat="43.16379" lon="6.50807">
        <ele>53.706627</ele>
        <time>2020-08-13T09:56:17Z</time>
      </trkpt>
      <trkpt lat="43.16394" lon="6.50822">
        <ele>53.73547</ele>
        <time>2020-08-13T09:56:20Z</time>
      </trkpt>
      <trkpt lat="43.16414" lon="6.50839">
        <ele>51.580345</ele>
        <time>2020-08-13T09:56:24Z</time>
      </trkpt>
      <trkpt lat="43.16435" lon="6.50855">
        <ele>48.331249</ele>
        <time>2020-08-13T09:56:28Z</time>
      </trkpt>
      <trkpt lat="43.16452" lon="6.50865">
        <ele>46.891655</ele>
        <time>2020-08-13T09:56:31Z</time>
      </trkpt>
      <trkpt lat="43.1647" lon="6.50872">
        <ele>45.764954</ele>
        <time>2020-08-13T09:56:34Z</time>
      </trkpt>
      <trkpt lat="43.16489" lon="6.50879">
        <ele>44.384094</ele>
        <time>2020-08-13T09:56:37Z</time>
      </trkpt>
      <trkpt lat="43.16507" lon="6.50885">
        <ele>42.666061</ele>
        <time>2020-08-13T09:56:40Z</time>
      </trkpt>
      <trkpt lat="43.16527" lon="6.50894">
        <ele>38.952202</ele>
        <time>2020-08-13T09:56:43Z</time>
      </trkpt>
      <trkpt lat="43.16549" lon="6.50902">
        <ele>34.686062</ele>
        <time>2020-08-13T09:56:46Z</time>
      </trkpt>
      <trkpt lat="43.16572" lon="6.50913">
        <ele>32.023865</ele>
        <time>2020-08-13T09:56:49Z</time>
      </trkpt>
      <trkpt lat="43.16591" lon="6.50924">
        <ele>30.4018</ele>
        <time>2020-08-13T09:56:53Z</time>
      </trkpt>
      <trkpt lat="43.16601" lon="6.50949">
        <ele>31.954275</ele>
        <time>2020-08-13T09:56:58Z</time>
      </trkpt>
      <trkpt lat="43.166" lon="6.50978">
        <ele>31.191341</ele>
        <time>2020-08-13T09:57:02Z</time>
      </trkpt>
      <trkpt lat="43.16603" lon="6.51007">
        <ele>31.097734</ele>
        <time>2020-08-13T09:57:06Z</time>
      </trkpt>
      <trkpt lat="43.16612" lon="6.51037">
        <ele>31.175312</ele>
        <time>2020-08-13T09:57:10Z</time>
      </trkpt>
      <trkpt lat="43.1662" lon="6.51062">
        <ele>31.501219</ele>
        <time>2020-08-13T09:57:13Z</time>
      </trkpt>
      <trkpt lat="43.16625" lon="6.51089">
        <ele>32.53875</ele>
        <time>2020-08-13T09:57:16Z</time>
      </trkpt>
      <trkpt lat="43.16626" lon="6.51116">
        <ele>32.595562</ele>
        <time>2020-08-13T09:57:19Z</time>
      </trkpt>
      <trkpt lat="43.16626" lon="6.51144">
        <ele>31.172087</ele>
        <time>2020-08-13T09:57:22Z</time>
      </trkpt>
      <trkpt lat="43.16629" lon="6.51171">
        <ele>30.105312</ele>
        <time>2020-08-13T09:57:25Z</time>
      </trkpt>
      <trkpt lat="43.16632" lon="6.51197">
        <ele>29.772501</ele>
        <time>2020-08-13T09:57:28Z</time>
      </trkpt>
      <trkpt lat="43.16634" lon="6.51223">
        <ele>29.8825</ele>
        <time>2020-08-13T09:57:31Z</time>
      </trkpt>
      <trkpt lat="43.16634" lon="6.5125">
        <ele>29.862188</ele>
        <time>2020-08-13T09:57:34Z</time>
      </trkpt>
      <trkpt lat="43.16633" lon="6.51276">
        <ele>30.123854</ele>
        <time>2020-08-13T09:57:37Z</time>
      </trkpt>
      <trkpt lat="43.16631" lon="6.51302">
        <ele>29.970837</ele>
        <time>2020-08-13T09:57:40Z</time>
      </trkpt>
      <trkpt lat="43.16628" lon="6.51327">
        <ele>29.577499</ele>
        <time>2020-08-13T09:57:43Z</time>
      </trkpt>
      <trkpt lat="43.16625" lon="6.51359">
        <ele>29.0275</ele>
        <time>2020-08-13T09:57:47Z</time>
      </trkpt>
      <trkpt lat="43.16623" lon="6.5139">
        <ele>28.192095</ele>
        <time>2020-08-13T09:57:51Z</time>
      </trkpt>
      <trkpt lat="43.16624" lon="6.51415">
        <ele>27.790337</ele>
        <time>2020-08-13T09:57:54Z</time>
      </trkpt>
      <trkpt lat="43.16624" lon="6.51441">
        <ele>27.318438</ele>
        <time>2020-08-13T09:57:57Z</time>
      </trkpt>
      <trkpt lat="43.16624" lon="6.51468">
        <ele>26.915787</ele>
        <time>2020-08-13T09:58:00Z</time>
      </trkpt>
      <trkpt lat="43.16625" lon="6.51495">
        <ele>26.865938</ele>
        <time>2020-08-13T09:58:03Z</time>
      </trkpt>
      <trkpt lat="43.16625" lon="6.51522">
        <ele>27.653763</ele>
        <time>2020-08-13T09:58:06Z</time>
      </trkpt>
      <trkpt lat="43.16626" lon="6.51549">
        <ele>28.59</ele>
        <time>2020-08-13T09:58:09Z</time>
      </trkpt>
      <trkpt lat="43.16626" lon="6.51577">
        <ele>28.532906</ele>
        <time>2020-08-13T09:58:12Z</time>
      </trkpt>
      <trkpt lat="43.16626" lon="6.51604">
        <ele>28.682962</ele>
        <time>2020-08-13T09:58:15Z</time>
      </trkpt>
      <trkpt lat="43.16626" lon="6.51629">
        <ele>28.599106</ele>
        <time>2020-08-13T09:58:18Z</time>
      </trkpt>
      <trkpt lat="43.16627" lon="6.51654">
        <ele>29.186306</ele>
        <time>2020-08-13T09:58:21Z</time>
      </trkpt>
      <trkpt lat="43.16626" lon="6.51686">
        <ele>29.399069</ele>
        <time>2020-08-13T09:58:25Z</time>
      </trkpt>
      <trkpt lat="43.16624" lon="6.51711">
        <ele>29.469837</ele>
        <time>2020-08-13T09:58:28Z</time>
      </trkpt>
      <trkpt lat="43.1662" lon="6.51736">
        <ele>29.201273</ele>
        <time>2020-08-13T09:58:31Z</time>
      </trkpt>
      <trkpt lat="43.16615" lon="6.51761">
        <ele>28.19525</ele>
        <time>2020-08-13T09:58:34Z</time>
      </trkpt>
      <trkpt lat="43.16609" lon="6.51785">
        <ele>27.203737</ele>
        <time>2020-08-13T09:58:37Z</time>
      </trkpt>
      <trkpt lat="43.16604" lon="6.51811">
        <ele>25.381687</ele>
        <time>2020-08-13T09:58:40Z</time>
      </trkpt>
      <trkpt lat="43.16601" lon="6.51838">
        <ele>23.865826</ele>
        <time>2020-08-13T09:58:43Z</time>
      </trkpt>
      <trkpt lat="43.16604" lon="6.51864">
        <ele>23.146126</ele>
        <time>2020-08-13T09:58:46Z</time>
      </trkpt>
      <trkpt lat="43.16609" lon="6.51887">
        <ele>22.904375</ele>
        <time>2020-08-13T09:58:49Z</time>
      </trkpt>
      <trkpt lat="43.16621" lon="6.51912">
        <ele>23.2679</ele>
        <time>2020-08-13T09:58:53Z</time>
      </trkpt>
      <trkpt lat="43.16633" lon="6.51933">
        <ele>24.214869</ele>
        <time>2020-08-13T09:58:57Z</time>
      </trkpt>
      <trkpt lat="43.16643" lon="6.51954">
        <ele>24.893175</ele>
        <time>2020-08-13T09:59:01Z</time>
      </trkpt>
      <trkpt lat="43.16655" lon="6.51976">
        <ele>25.426079</ele>
        <time>2020-08-13T09:59:05Z</time>
      </trkpt>
      <trkpt lat="43.16669" lon="6.51999">
        <ele>25.761938</ele>
        <time>2020-08-13T09:59:09Z</time>
      </trkpt>
      <trkpt lat="43.16681" lon="6.52023">
        <ele>25.685747</ele>
        <time>2020-08-13T09:59:13Z</time>
      </trkpt>
      <trkpt lat="43.16692" lon="6.52043">
        <ele>25.511526</ele>
        <time>2020-08-13T09:59:17Z</time>
      </trkpt>
      <trkpt lat="43.16703" lon="6.52065">
        <ele>25.815922</ele>
        <time>2020-08-13T09:59:21Z</time>
      </trkpt>
      <trkpt lat="43.16713" lon="6.52089">
        <ele>25.512062</ele>
        <time>2020-08-13T09:59:25Z</time>
      </trkpt>
      <trkpt lat="43.16724" lon="6.52115">
        <ele>24.974001</ele>
        <time>2020-08-13T09:59:29Z</time>
      </trkpt>
      <trkpt lat="43.16734" lon="6.52144">
        <ele>25.543125</ele>
        <time>2020-08-13T09:59:33Z</time>
      </trkpt>
      <trkpt lat="43.16745" lon="6.52172">
        <ele>25.614712</ele>
        <time>2020-08-13T09:59:37Z</time>
      </trkpt>
      <trkpt lat="43.16754" lon="6.52193">
        <ele>26.532906</ele>
        <time>2020-08-13T09:59:41Z</time>
      </trkpt>
      <trkpt lat="43.16769" lon="6.522">
        <ele>26.361963</ele>
        <time>2020-08-13T09:59:47Z</time>
      </trkpt>
      <trkpt lat="43.16787" lon="6.52207">
        <ele>26.563749</ele>
        <time>2020-08-13T09:59:52Z</time>
      </trkpt>
      <trkpt lat="43.16804" lon="6.52227">
        <ele>27.49</ele>
        <time>2020-08-13T09:59:56Z</time>
      </trkpt>
      <trkpt lat="43.16823" lon="6.52251">
        <ele>28.539162</ele>
        <time>2020-08-13T10:00:00Z</time>
      </trkpt>
      <trkpt lat="43.1684" lon="6.52271">
        <ele>28.7792</ele>
        <time>2020-08-13T10:00:04Z</time>
      </trkpt>
      <trkpt lat="43.16858" lon="6.5229">
        <ele>28.336956</ele>
        <time>2020-08-13T10:00:08Z</time>
      </trkpt>
      <trkpt lat="43.16874" lon="6.52308">
        <ele>27.466537</ele>
        <time>2020-08-13T10:00:12Z</time>
      </trkpt>
      <trkpt lat="43.16891" lon="6.52326">
        <ele>26.6896</ele>
        <time>2020-08-13T10:00:16Z</time>
      </trkpt>
      <trkpt lat="43.16907" lon="6.52344">
        <ele>25.905506</ele>
        <time>2020-08-13T10:00:20Z</time>
      </trkpt>
      <trkpt lat="43.16924" lon="6.52362">
        <ele>25.046196</ele>
        <time>2020-08-13T10:00:24Z</time>
      </trkpt>
      <trkpt lat="43.16941" lon="6.52381">
        <ele>23.880131</ele>
        <time>2020-08-13T10:00:28Z</time>
      </trkpt>
      <trkpt lat="43.16959" lon="6.52401">
        <ele>22.963699</ele>
        <time>2020-08-13T10:00:32Z</time>
      </trkpt>
      <trkpt lat="43.16976" lon="6.52424">
        <ele>21.41464</ele>
        <time>2020-08-13T10:00:36Z</time>
      </trkpt>
      <trkpt lat="43.16989" lon="6.52443">
        <ele>20.108</ele>
        <time>2020-08-13T10:00:39Z</time>
      </trkpt>
      <trkpt lat="43.17001" lon="6.52462">
        <ele>19.596519</ele>
        <time>2020-08-13T10:00:42Z</time>
      </trkpt>
      <trkpt lat="43.17013" lon="6.52483">
        <ele>18.766638</ele>
        <time>2020-08-13T10:00:45Z</time>
      </trkpt>
      <trkpt lat="43.17024" lon="6.52505">
        <ele>17.692474</ele>
        <time>2020-08-13T10:00:48Z</time>
      </trkpt>
      <trkpt lat="43.17036" lon="6.52527">
        <ele>17.044559</ele>
        <time>2020-08-13T10:00:51Z</time>
      </trkpt>
      <trkpt lat="43.17048" lon="6.52549">
        <ele>16.272671</ele>
        <time>2020-08-13T10:00:54Z</time>
      </trkpt>
      <trkpt lat="43.1706" lon="6.52571">
        <ele>15.522913</ele>
        <time>2020-08-13T10:00:57Z</time>
      </trkpt>
      <trkpt lat="43.17071" lon="6.52593">
        <ele>15.412247</ele>
        <time>2020-08-13T10:01:00Z</time>
      </trkpt>
      <trkpt lat="43.17081" lon="6.52615">
        <ele>15.4445</ele>
        <time>2020-08-13T10:01:03Z</time>
      </trkpt>
      <trkpt lat="43.17079" lon="6.52645">
        <ele>16.74</ele>
        <time>2020-08-13T10:01:08Z</time>
      </trkpt>
      <trkpt lat="43.1709" lon="6.52664">
        <ele>16.379999</ele>
        <time>2020-08-13T10:01:13Z</time>
      </trkpt>
      <trkpt lat="43.17104" lon="6.52662">
        <ele>14.7125</ele>
        <time>2020-08-13T10:01:27Z</time>
      </trkpt>
      <trkpt lat="43.17115" lon="6.52644">
        <ele>12.707494</ele>
        <time>2020-08-13T10:01:35Z</time>
      </trkpt>
      <trkpt lat="43.17132" lon="6.52634">
        <ele>12.09675</ele>
        <time>2020-08-13T10:01:40Z</time>
      </trkpt>
      <trkpt lat="43.17149" lon="6.52631">
        <ele>12.051985</ele>
        <time>2020-08-13T10:01:47Z</time>
      </trkpt>
      <trkpt lat="43.17162" lon="6.52609">
        <ele>13.157993</ele>
        <time>2020-08-13T10:01:53Z</time>
      </trkpt>
      <trkpt lat="43.17178" lon="6.52598">
        <ele>13.881094</ele>
        <time>2020-08-13T10:01:58Z</time>
      </trkpt>
      <trkpt lat="43.17198" lon="6.52609">
        <ele>13.760875</ele>
        <time>2020-08-13T10:02:03Z</time>
      </trkpt>
      <trkpt lat="43.1722" lon="6.52627">
        <ele>13.366975</ele>
        <time>2020-08-13T10:02:07Z</time>
      </trkpt>
      <trkpt lat="43.17236" lon="6.52643">
        <ele>12.857835</ele>
        <time>2020-08-13T10:02:10Z</time>
      </trkpt>
      <trkpt lat="43.1725" lon="6.52663">
        <ele>12.251032</ele>
        <time>2020-08-13T10:02:13Z</time>
      </trkpt>
      <trkpt lat="43.17262" lon="6.52688">
        <ele>11.5137</ele>
        <time>2020-08-13T10:02:16Z</time>
      </trkpt>
      <trkpt lat="43.17273" lon="6.52713">
        <ele>10.815</ele>
        <time>2020-08-13T10:02:19Z</time>
      </trkpt>
      <trkpt lat="43.17282" lon="6.52739">
        <ele>10.40875</ele>
        <time>2020-08-13T10:02:22Z</time>
      </trkpt>
      <trkpt lat="43.17288" lon="6.52765">
        <ele>9.9998</ele>
        <time>2020-08-13T10:02:25Z</time>
      </trkpt>
      <trkpt lat="43.17289" lon="6.52797">
        <ele>10.033047</ele>
        <time>2020-08-13T10:02:29Z</time>
      </trkpt>
      <trkpt lat="43.17289" lon="6.52825">
        <ele>10.038438</ele>
        <time>2020-08-13T10:02:33Z</time>
      </trkpt>
      <trkpt lat="43.17297" lon="6.52848">
        <ele>9.808828</ele>
        <time>2020-08-13T10:02:38Z</time>
      </trkpt>
      <trkpt lat="43.17307" lon="6.52866">
        <ele>9.562475</ele>
        <time>2020-08-13T10:02:44Z</time>
      </trkpt>
      <trkpt lat="43.17318" lon="6.52885">
        <ele>9.128325</ele>
        <time>2020-08-13T10:02:53Z</time>
      </trkpt>
      <trkpt lat="43.17324" lon="6.52907">
        <ele>8.4525</ele>
        <time>2020-08-13T10:03:12Z</time>
      </trkpt>
      <trkpt lat="43.1733" lon="6.52931">
        <ele>7.7375</ele>
        <time>2020-08-13T10:03:19Z</time>
      </trkpt>
      <trkpt lat="43.17323" lon="6.52958">
        <ele>6.90125</ele>
        <time>2020-08-13T10:03:26Z</time>
      </trkpt>
      <trkpt lat="43.17311" lon="6.52982">
        <ele>6.49625</ele>
        <time>2020-08-13T10:03:30Z</time>
      </trkpt>
      <trkpt lat="43.17308" lon="6.53008">
        <ele>6.0625</ele>
        <time>2020-08-13T10:03:34Z</time>
      </trkpt>
      <trkpt lat="43.17293" lon="6.53021">
        <ele>5.8425</ele>
        <time>2020-08-13T10:03:40Z</time>
      </trkpt>
      <trkpt lat="43.17283" lon="6.53046">
        <ele>5.4225</ele>
        <time>2020-08-13T10:03:46Z</time>
      </trkpt>
      <trkpt lat="43.17278" lon="6.53074">
        <ele>5</ele>
        <time>2020-08-13T10:03:51Z</time>
      </trkpt>
      <trkpt lat="43.17272" lon="6.53097">
        <ele>5.058938</ele>
        <time>2020-08-13T10:04:04Z</time>
      </trkpt>
      <trkpt lat="43.1728" lon="6.5312">
        <ele>5</ele>
        <time>2020-08-13T10:04:11Z</time>
      </trkpt>
      <trkpt lat="43.17286" lon="6.53146">
        <ele>4.851162</ele>
        <time>2020-08-13T10:04:17Z</time>
      </trkpt>
      <trkpt lat="43.17294" lon="6.53169">
        <ele>4.683819</ele>
        <time>2020-08-13T10:04:23Z</time>
      </trkpt>
      <trkpt lat="43.17302" lon="6.53194">
        <ele>4.673891</ele>
        <time>2020-08-13T10:04:27Z</time>
      </trkpt>
      <trkpt lat="43.1731" lon="6.53222">
        <ele>4.445</ele>
        <time>2020-08-13T10:04:31Z</time>
      </trkpt>
      <trkpt lat="43.17305" lon="6.53246">
        <ele>3.94125</ele>
        <time>2020-08-13T10:04:36Z</time>
      </trkpt>
      <trkpt lat="43.1731" lon="6.53273">
        <ele>3.6525</ele>
        <time>2020-08-13T10:04:41Z</time>
      </trkpt>
      <trkpt lat="43.1733" lon="6.53281">
        <ele>4.112344</ele>
        <time>2020-08-13T10:04:45Z</time>
      </trkpt>
      <trkpt lat="43.17347" lon="6.53295">
        <ele>4.100006</ele>
        <time>2020-08-13T10:04:52Z</time>
      </trkpt>
      <trkpt lat="43.17363" lon="6.53311">
        <ele>3.73625</ele>
        <time>2020-08-13T10:05:03Z</time>
      </trkpt>
      <trkpt lat="43.17377" lon="6.53327">
        <ele>3.341088</ele>
        <time>2020-08-13T10:05:09Z</time>
      </trkpt>
      <trkpt lat="43.17391" lon="6.53345">
        <ele>2.888887</ele>
        <time>2020-08-13T10:05:14Z</time>
      </trkpt>
      <trkpt lat="43.17407" lon="6.53359">
        <ele>2.40625</ele>
        <time>2020-08-13T10:05:20Z</time>
      </trkpt>
      <trkpt lat="43.17427" lon="6.53369">
        <ele>1.99</ele>
        <time>2020-08-13T10:05:27Z</time>
      </trkpt>
      <trkpt lat="43.17445" lon="6.53379">
        <ele>1.5925</ele>
        <time>2020-08-13T10:05:33Z</time>
      </trkpt>
      <trkpt lat="43.17463" lon="6.53388">
        <ele>1.995</ele>
        <time>2020-08-13T10:05:37Z</time>
      </trkpt>
      <trkpt lat="43.17482" lon="6.53399">
        <ele>2.42515</ele>
        <time>2020-08-13T10:05:41Z</time>
      </trkpt>
      <trkpt lat="43.17503" lon="6.53409">
        <ele>2.837169</ele>
        <time>2020-08-13T10:05:46Z</time>
      </trkpt>
      <trkpt lat="43.1752" lon="6.53419">
        <ele>3.03915</ele>
        <time>2020-08-13T10:05:50Z</time>
      </trkpt>
      <trkpt lat="43.17541" lon="6.53429">
        <ele>3.266875</ele>
        <time>2020-08-13T10:05:54Z</time>
      </trkpt>
      <trkpt lat="43.17558" lon="6.53439">
        <ele>3.1875</ele>
        <time>2020-08-13T10:05:58Z</time>
      </trkpt>
      <trkpt lat="43.17576" lon="6.53449">
        <ele>2.6899</ele>
        <time>2020-08-13T10:06:02Z</time>
      </trkpt>
      <trkpt lat="43.17594" lon="6.53458">
        <ele>2.018675</ele>
        <time>2020-08-13T10:06:06Z</time>
      </trkpt>
      <trkpt lat="43.17612" lon="6.53468">
        <ele>1.666406</ele>
        <time>2020-08-13T10:06:10Z</time>
      </trkpt>
      <trkpt lat="43.1763" lon="6.53478">
        <ele>1.769719</ele>
        <time>2020-08-13T10:06:14Z</time>
      </trkpt>
      <trkpt lat="43.17651" lon="6.5349">
        <ele>1.685775</ele>
        <time>2020-08-13T10:06:18Z</time>
      </trkpt>
      <trkpt lat="43.17668" lon="6.53501">
        <ele>1.465156</ele>
        <time>2020-08-13T10:06:22Z</time>
      </trkpt>
      <trkpt lat="43.17685" lon="6.5351">
        <ele>1.331303</ele>
        <time>2020-08-13T10:06:26Z</time>
      </trkpt>
      <trkpt lat="43.17704" lon="6.5352">
        <ele>1.32125</ele>
        <time>2020-08-13T10:06:30Z</time>
      </trkpt>
      <trkpt lat="43.17723" lon="6.5353">
        <ele>1.14</ele>
        <time>2020-08-13T10:06:34Z</time>
      </trkpt>
      <trkpt lat="43.17742" lon="6.5354">
        <ele>0.925</ele>
        <time>2020-08-13T10:06:38Z</time>
      </trkpt>
      <trkpt lat="43.1776" lon="6.5355">
        <ele>0.79125</ele>
        <time>2020-08-13T10:06:42Z</time>
      </trkpt>
      <trkpt lat="43.17778" lon="6.53558">
        <ele>0.67</ele>
        <time>2020-08-13T10:06:47Z</time>
      </trkpt>
      <trkpt lat="43.17796" lon="6.53568">
        <ele>0.535</ele>
        <time>2020-08-13T10:06:52Z</time>
      </trkpt>
      <trkpt lat="43.17814" lon="6.5358">
        <ele>0.7425</ele>
        <time>2020-08-13T10:06:59Z</time>
      </trkpt>
      <trkpt lat="43.17831" lon="6.53592">
        <ele>0.935</ele>
        <time>2020-08-13T10:07:05Z</time>
      </trkpt>
      <trkpt lat="43.17844" lon="6.53572">
        <ele>1.548428</ele>
        <time>2020-08-13T10:07:14Z</time>
      </trkpt>
      <trkpt lat="43.17864" lon="6.53574">
        <ele>1.75225</ele>
        <time>2020-08-13T10:07:19Z</time>
      </trkpt>
      <trkpt lat="43.17883" lon="6.53578">
        <ele>1.903684</ele>
        <time>2020-08-13T10:07:24Z</time>
      </trkpt>
      <trkpt lat="43.17902" lon="6.53585">
        <ele>2.095</ele>
        <time>2020-08-13T10:07:29Z</time>
      </trkpt>
      <trkpt lat="43.17922" lon="6.53593">
        <ele>2.3475</ele>
        <time>2020-08-13T10:07:34Z</time>
      </trkpt>
      <trkpt lat="43.17946" lon="6.53602">
        <ele>2.6375</ele>
        <time>2020-08-13T10:07:38Z</time>
      </trkpt>
      <trkpt lat="43.17968" lon="6.53614">
        <ele>2.8075</ele>
        <time>2020-08-13T10:07:42Z</time>
      </trkpt>
      <trkpt lat="43.17986" lon="6.53625">
        <ele>3.06375</ele>
        <time>2020-08-13T10:07:46Z</time>
      </trkpt>
      <trkpt lat="43.18005" lon="6.53641">
        <ele>3.27625</ele>
        <time>2020-08-13T10:07:51Z</time>
      </trkpt>
      <trkpt lat="43.18022" lon="6.53654">
        <ele>3.4675</ele>
        <time>2020-08-13T10:07:55Z</time>
      </trkpt>
      <trkpt lat="43.1804" lon="6.53667">
        <ele>3.69125</ele>
        <time>2020-08-13T10:08:01Z</time>
      </trkpt>
      <trkpt lat="43.18056" lon="6.53684">
        <ele>3.78055</ele>
        <time>2020-08-13T10:08:08Z</time>
      </trkpt>
      <trkpt lat="43.18074" lon="6.53702">
        <ele>3.945</ele>
        <time>2020-08-13T10:08:15Z</time>
      </trkpt>
      <trkpt lat="43.18093" lon="6.53716">
        <ele>4.1825</ele>
        <time>2020-08-13T10:08:20Z</time>
      </trkpt>
      <trkpt lat="43.18111" lon="6.53728">
        <ele>4.39875</ele>
        <time>2020-08-13T10:08:24Z</time>
      </trkpt>
      <trkpt lat="43.18131" lon="6.53746">
        <ele>4.6075</ele>
        <time>2020-08-13T10:08:28Z</time>
      </trkpt>
      <trkpt lat="43.1815" lon="6.53761">
        <ele>4.80375</ele>
        <time>2020-08-13T10:08:32Z</time>
      </trkpt>
      <trkpt lat="43.18165" lon="6.53775">
        <ele>4.93875</ele>
        <time>2020-08-13T10:08:36Z</time>
      </trkpt>
      <trkpt lat="43.1818" lon="6.53792">
        <ele>5.0425</ele>
        <time>2020-08-13T10:08:40Z</time>
      </trkpt>
      <trkpt lat="43.18195" lon="6.5381">
        <ele>5.135138</ele>
        <time>2020-08-13T10:08:44Z</time>
      </trkpt>
      <trkpt lat="43.18207" lon="6.53833">
        <ele>5.544909</ele>
        <time>2020-08-13T10:08:48Z</time>
      </trkpt>
      <trkpt lat="43.18219" lon="6.53857">
        <ele>5.82075</ele>
        <time>2020-08-13T10:08:52Z</time>
      </trkpt>
      <trkpt lat="43.18226" lon="6.53884">
        <ele>5.686</ele>
        <time>2020-08-13T10:08:57Z</time>
      </trkpt>
      <trkpt lat="43.18235" lon="6.53906">
        <ele>5.62625</ele>
        <time>2020-08-13T10:09:01Z</time>
      </trkpt>
      <trkpt lat="43.18246" lon="6.53929">
        <ele>6.0325</ele>
        <time>2020-08-13T10:09:05Z</time>
      </trkpt>
      <trkpt lat="43.18257" lon="6.53956">
        <ele>6.064972</ele>
        <time>2020-08-13T10:09:10Z</time>
      </trkpt>
      <trkpt lat="43.18267" lon="6.53977">
        <ele>5.825037</ele>
        <time>2020-08-13T10:09:14Z</time>
      </trkpt>
      <trkpt lat="43.18277" lon="6.53999">
        <ele>5.3575</ele>
        <time>2020-08-13T10:09:18Z</time>
      </trkpt>
      <trkpt lat="43.18288" lon="6.54025">
        <ele>4.9725</ele>
        <time>2020-08-13T10:09:23Z</time>
      </trkpt>
      <trkpt lat="43.18298" lon="6.54048">
        <ele>4.725</ele>
        <time>2020-08-13T10:09:27Z</time>
      </trkpt>
      <trkpt lat="43.1831" lon="6.54074">
        <ele>4.4675</ele>
        <time>2020-08-13T10:09:31Z</time>
      </trkpt>
      <trkpt lat="43.18322" lon="6.54104">
        <ele>4.082834</ele>
        <time>2020-08-13T10:09:35Z</time>
      </trkpt>
      <trkpt lat="43.18331" lon="6.54125">
        <ele>3.864675</ele>
        <time>2020-08-13T10:09:38Z</time>
      </trkpt>
      <trkpt lat="43.18342" lon="6.5415">
        <ele>3.92625</ele>
        <time>2020-08-13T10:09:42Z</time>
      </trkpt>
      <trkpt lat="43.18352" lon="6.54173">
        <ele>4.045</ele>
        <time>2020-08-13T10:09:46Z</time>
      </trkpt>
      <trkpt lat="43.18361" lon="6.54195">
        <ele>4.11875</ele>
        <time>2020-08-13T10:09:50Z</time>
      </trkpt>
      <trkpt lat="43.18372" lon="6.54219">
        <ele>4.2775</ele>
        <time>2020-08-13T10:09:54Z</time>
      </trkpt>
      <trkpt lat="43.18381" lon="6.54242">
        <ele>4.3675</ele>
        <time>2020-08-13T10:09:58Z</time>
      </trkpt>
      <trkpt lat="43.18394" lon="6.54267">
        <ele>4.581391</ele>
        <time>2020-08-13T10:10:03Z</time>
      </trkpt>
      <trkpt lat="43.18404" lon="6.5429">
        <ele>4.8025</ele>
        <time>2020-08-13T10:10:07Z</time>
      </trkpt>
      <trkpt lat="43.18414" lon="6.54315">
        <ele>5.1375</ele>
        <time>2020-08-13T10:10:11Z</time>
      </trkpt>
      <trkpt lat="43.18426" lon="6.54341">
        <ele>5.201094</ele>
        <time>2020-08-13T10:10:15Z</time>
      </trkpt>
      <trkpt lat="43.18436" lon="6.54362">
        <ele>5.302187</ele>
        <time>2020-08-13T10:10:19Z</time>
      </trkpt>
      <trkpt lat="43.18447" lon="6.54385">
        <ele>5.882869</ele>
        <time>2020-08-13T10:10:24Z</time>
      </trkpt>
      <trkpt lat="43.18458" lon="6.5441">
        <ele>6.8717</ele>
        <time>2020-08-13T10:10:29Z</time>
      </trkpt>
      <trkpt lat="43.18468" lon="6.54436">
        <ele>7.874175</ele>
        <time>2020-08-13T10:10:34Z</time>
      </trkpt>
      <trkpt lat="43.18478" lon="6.54459">
        <ele>8.568107</ele>
        <time>2020-08-13T10:10:38Z</time>
      </trkpt>
      <trkpt lat="43.18487" lon="6.54482">
        <ele>8.23375</ele>
        <time>2020-08-13T10:10:42Z</time>
      </trkpt>
      <trkpt lat="43.18494" lon="6.54505">
        <ele>7.6075</ele>
        <time>2020-08-13T10:10:47Z</time>
      </trkpt>
      <trkpt lat="43.185" lon="6.54532">
        <ele>6.563888</ele>
        <time>2020-08-13T10:11:02Z</time>
      </trkpt>
      <trkpt lat="43.18512" lon="6.54556">
        <ele>5.876</ele>
        <time>2020-08-13T10:11:10Z</time>
      </trkpt>
      <trkpt lat="43.18524" lon="6.54579">
        <ele>4.948125</ele>
        <time>2020-08-13T10:11:14Z</time>
      </trkpt>
      <trkpt lat="43.18538" lon="6.54596">
        <ele>4.9475</ele>
        <time>2020-08-13T10:11:17Z</time>
      </trkpt>
      <trkpt lat="43.18553" lon="6.54608">
        <ele>5.222356</ele>
        <time>2020-08-13T10:11:20Z</time>
      </trkpt>
      <trkpt lat="43.18576" lon="6.54619">
        <ele>5.655</ele>
        <time>2020-08-13T10:11:24Z</time>
      </trkpt>
      <trkpt lat="43.186" lon="6.54629">
        <ele>5.8725</ele>
        <time>2020-08-13T10:11:28Z</time>
      </trkpt>
      <trkpt lat="43.18621" lon="6.54639">
        <ele>6.012913</ele>
        <time>2020-08-13T10:11:32Z</time>
      </trkpt>
      <trkpt lat="43.18642" lon="6.54651">
        <ele>6.20375</ele>
        <time>2020-08-13T10:11:37Z</time>
      </trkpt>
      <trkpt lat="43.18665" lon="6.54667">
        <ele>6.30125</ele>
        <time>2020-08-13T10:11:41Z</time>
      </trkpt>
      <trkpt lat="43.18683" lon="6.54689">
        <ele>5.72875</ele>
        <time>2020-08-13T10:11:45Z</time>
      </trkpt>
      <trkpt lat="43.18702" lon="6.54709">
        <ele>5.23125</ele>
        <time>2020-08-13T10:11:50Z</time>
      </trkpt>
      <trkpt lat="43.18719" lon="6.54728">
        <ele>5.25375</ele>
        <time>2020-08-13T10:11:55Z</time>
      </trkpt>
      <trkpt lat="43.18733" lon="6.54743">
        <ele>5.35375</ele>
        <time>2020-08-13T10:11:59Z</time>
      </trkpt>
      <trkpt lat="43.18751" lon="6.5476">
        <ele>5.51125</ele>
        <time>2020-08-13T10:12:03Z</time>
      </trkpt>
      <trkpt lat="43.1877" lon="6.54779">
        <ele>5.66625</ele>
        <time>2020-08-13T10:12:07Z</time>
      </trkpt>
      <trkpt lat="43.18791" lon="6.54801">
        <ele>5.71671</ele>
        <time>2020-08-13T10:12:11Z</time>
      </trkpt>
      <trkpt lat="43.18807" lon="6.54823">
        <ele>5.675897</ele>
        <time>2020-08-13T10:12:15Z</time>
      </trkpt>
      <trkpt lat="43.18822" lon="6.54846">
        <ele>5.855</ele>
        <time>2020-08-13T10:12:19Z</time>
      </trkpt>
      <trkpt lat="43.18836" lon="6.5487">
        <ele>5.681006</ele>
        <time>2020-08-13T10:12:23Z</time>
      </trkpt>
      <trkpt lat="43.18849" lon="6.54895">
        <ele>5.6136</ele>
        <time>2020-08-13T10:12:27Z</time>
      </trkpt>
      <trkpt lat="43.18862" lon="6.54919">
        <ele>5.66875</ele>
        <time>2020-08-13T10:12:31Z</time>
      </trkpt>
      <trkpt lat="43.18876" lon="6.5494">
        <ele>5.505</ele>
        <time>2020-08-13T10:12:38Z</time>
      </trkpt>
      <trkpt lat="43.18889" lon="6.54959">
        <ele>5.215</ele>
        <time>2020-08-13T10:12:42Z</time>
      </trkpt>
      <trkpt lat="43.18903" lon="6.54982">
        <ele>4.85</ele>
        <time>2020-08-13T10:12:46Z</time>
      </trkpt>
      <trkpt lat="43.18918" lon="6.55007">
        <ele>4.6075</ele>
        <time>2020-08-13T10:12:50Z</time>
      </trkpt>
      <trkpt lat="43.18931" lon="6.5503">
        <ele>4.57</ele>
        <time>2020-08-13T10:12:54Z</time>
      </trkpt>
      <trkpt lat="43.18943" lon="6.55049">
        <ele>4.601875</ele>
        <time>2020-08-13T10:12:58Z</time>
      </trkpt>
      <trkpt lat="43.18956" lon="6.55071">
        <ele>4.52125</ele>
        <time>2020-08-13T10:13:02Z</time>
      </trkpt>
      <trkpt lat="43.1897" lon="6.55094">
        <ele>4.50625</ele>
        <time>2020-08-13T10:13:06Z</time>
      </trkpt>
      <trkpt lat="43.18983" lon="6.55115">
        <ele>4.7025</ele>
        <time>2020-08-13T10:13:10Z</time>
      </trkpt>
      <trkpt lat="43.18995" lon="6.55135">
        <ele>4.98</ele>
        <time>2020-08-13T10:13:14Z</time>
      </trkpt>
      <trkpt lat="43.19009" lon="6.55157">
        <ele>5.3025</ele>
        <time>2020-08-13T10:13:18Z</time>
      </trkpt>
      <trkpt lat="43.19022" lon="6.55181">
        <ele>5.625</ele>
        <time>2020-08-13T10:13:22Z</time>
      </trkpt>
      <trkpt lat="43.19033" lon="6.55207">
        <ele>5.8825</ele>
        <time>2020-08-13T10:13:26Z</time>
      </trkpt>
      <trkpt lat="43.19043" lon="6.55236">
        <ele>6.1375</ele>
        <time>2020-08-13T10:13:30Z</time>
      </trkpt>
      <trkpt lat="43.19051" lon="6.55259">
        <ele>6.3225</ele>
        <time>2020-08-13T10:13:33Z</time>
      </trkpt>
      <trkpt lat="43.19058" lon="6.55283">
        <ele>6.515</ele>
        <time>2020-08-13T10:13:36Z</time>
      </trkpt>
      <trkpt lat="43.19066" lon="6.55313">
        <ele>6.715</ele>
        <time>2020-08-13T10:13:40Z</time>
      </trkpt>
      <trkpt lat="43.19073" lon="6.55341">
        <ele>6.885</ele>
        <time>2020-08-13T10:13:44Z</time>
      </trkpt>
      <trkpt lat="43.19079" lon="6.55367">
        <ele>7</ele>
        <time>2020-08-13T10:13:48Z</time>
      </trkpt>
      <trkpt lat="43.19085" lon="6.55395">
        <ele>7</ele>
        <time>2020-08-13T10:13:52Z</time>
      </trkpt>
      <trkpt lat="43.1909" lon="6.55427">
        <ele>7</ele>
        <time>2020-08-13T10:13:56Z</time>
      </trkpt>
      <trkpt lat="43.19094" lon="6.55452">
        <ele>7</ele>
        <time>2020-08-13T10:13:59Z</time>
      </trkpt>
      <trkpt lat="43.19099" lon="6.55481">
        <ele>6.985994</ele>
        <time>2020-08-13T10:14:03Z</time>
      </trkpt>
      <trkpt lat="43.19103" lon="6.55507">
        <ele>6.870203</ele>
        <time>2020-08-13T10:14:07Z</time>
      </trkpt>
      <trkpt lat="43.19109" lon="6.55533">
        <ele>6.87025</ele>
        <time>2020-08-13T10:14:11Z</time>
      </trkpt>
      <trkpt lat="43.19117" lon="6.55558">
        <ele>7.06</ele>
        <time>2020-08-13T10:14:15Z</time>
      </trkpt>
      <trkpt lat="43.19127" lon="6.55581">
        <ele>7.2975</ele>
        <time>2020-08-13T10:14:19Z</time>
      </trkpt>
      <trkpt lat="43.19137" lon="6.55606">
        <ele>7.53</ele>
        <time>2020-08-13T10:14:24Z</time>
      </trkpt>
      <trkpt lat="43.19144" lon="6.55629">
        <ele>6.9675</ele>
        <time>2020-08-13T10:14:28Z</time>
      </trkpt>
      <trkpt lat="43.1914" lon="6.55655">
        <ele>6.0275</ele>
        <time>2020-08-13T10:14:33Z</time>
      </trkpt>
      <trkpt lat="43.19138" lon="6.55685">
        <ele>5.1603</ele>
        <time>2020-08-13T10:14:38Z</time>
      </trkpt>
      <trkpt lat="43.19149" lon="6.55705">
        <ele>4.723881</ele>
        <time>2020-08-13T10:14:43Z</time>
      </trkpt>
      <trkpt lat="43.19139" lon="6.5573">
        <ele>3.96375</ele>
        <time>2020-08-13T10:14:49Z</time>
      </trkpt>
      <trkpt lat="43.19128" lon="6.55754">
        <ele>3.5625</ele>
        <time>2020-08-13T10:14:53Z</time>
      </trkpt>
      <trkpt lat="43.19124" lon="6.55783">
        <ele>3.09625</ele>
        <time>2020-08-13T10:14:57Z</time>
      </trkpt>
      <trkpt lat="43.19118" lon="6.5581">
        <ele>5.115</ele>
        <time>2020-08-13T10:15:02Z</time>
      </trkpt>
      <trkpt lat="43.19123" lon="6.55831">
        <ele>7.1175</ele>
        <time>2020-08-13T10:15:09Z</time>
      </trkpt>
      <trkpt lat="43.19142" lon="6.55846">
        <ele>8.475</ele>
        <time>2020-08-13T10:15:14Z</time>
      </trkpt>
      <trkpt lat="43.19157" lon="6.55858">
        <ele>10.0342</ele>
        <time>2020-08-13T10:15:18Z</time>
      </trkpt>
      <trkpt lat="43.19176" lon="6.5587">
        <ele>11.316625</ele>
        <time>2020-08-13T10:15:23Z</time>
      </trkpt>
      <trkpt lat="43.19193" lon="6.55884">
        <ele>12.5563</ele>
        <time>2020-08-13T10:15:30Z</time>
      </trkpt>
      <trkpt lat="43.19212" lon="6.55903">
        <ele>13.104681</ele>
        <time>2020-08-13T10:15:36Z</time>
      </trkpt>
      <trkpt lat="43.1923" lon="6.55919">
        <ele>11.897903</ele>
        <time>2020-08-13T10:15:41Z</time>
      </trkpt>
      <trkpt lat="43.19249" lon="6.5594">
        <ele>12.524075</ele>
        <time>2020-08-13T10:15:45Z</time>
      </trkpt>
      <trkpt lat="43.19265" lon="6.55964">
        <ele>12.815812</ele>
        <time>2020-08-13T10:15:49Z</time>
      </trkpt>
      <trkpt lat="43.19278" lon="6.55988">
        <ele>12.336594</ele>
        <time>2020-08-13T10:15:53Z</time>
      </trkpt>
      <trkpt lat="43.19286" lon="6.56018">
        <ele>13.329825</ele>
        <time>2020-08-13T10:15:57Z</time>
      </trkpt>
      <trkpt lat="43.19287" lon="6.56046">
        <ele>14.943546</ele>
        <time>2020-08-13T10:16:01Z</time>
      </trkpt>
      <trkpt lat="43.19286" lon="6.56075">
        <ele>17.004019</ele>
        <time>2020-08-13T10:16:06Z</time>
      </trkpt>
      <trkpt lat="43.19288" lon="6.561">
        <ele>18.085388</ele>
        <time>2020-08-13T10:16:10Z</time>
      </trkpt>
      <trkpt lat="43.19292" lon="6.56131">
        <ele>17.717295</ele>
        <time>2020-08-13T10:16:15Z</time>
      </trkpt>
      <trkpt lat="43.19297" lon="6.56162">
        <ele>16.965099</ele>
        <time>2020-08-13T10:16:20Z</time>
      </trkpt>
      <trkpt lat="43.19307" lon="6.56185">
        <ele>15.108856</ele>
        <time>2020-08-13T10:16:25Z</time>
      </trkpt>
      <trkpt lat="43.1932" lon="6.56203">
        <ele>13.248387</ele>
        <time>2020-08-13T10:16:31Z</time>
      </trkpt>
      <trkpt lat="43.19333" lon="6.56222">
        <ele>12.260762</ele>
        <time>2020-08-13T10:16:36Z</time>
      </trkpt>
      <trkpt lat="43.19347" lon="6.56239">
        <ele>11.417875</ele>
        <time>2020-08-13T10:16:41Z</time>
      </trkpt>
      <trkpt lat="43.19365" lon="6.56259">
        <ele>11.935101</ele>
        <time>2020-08-13T10:16:46Z</time>
      </trkpt>
      <trkpt lat="43.1938" lon="6.56278">
        <ele>12.51865</ele>
        <time>2020-08-13T10:16:50Z</time>
      </trkpt>
      <trkpt lat="43.19394" lon="6.56298">
        <ele>12.4576</ele>
        <time>2020-08-13T10:16:55Z</time>
      </trkpt>
      <trkpt lat="43.19406" lon="6.56316">
        <ele>15.089838</ele>
        <time>2020-08-13T10:17:00Z</time>
      </trkpt>
      <trkpt lat="43.1942" lon="6.56338">
        <ele>17.781382</ele>
        <time>2020-08-13T10:17:06Z</time>
      </trkpt>
      <trkpt lat="43.19427" lon="6.56368">
        <ele>18.453501</ele>
        <time>2020-08-13T10:17:12Z</time>
      </trkpt>
      <trkpt lat="43.19432" lon="6.56396">
        <ele>19.569</ele>
        <time>2020-08-13T10:17:18Z</time>
      </trkpt>
      <trkpt lat="43.19439" lon="6.56425">
        <ele>20.239828</ele>
        <time>2020-08-13T10:17:24Z</time>
      </trkpt>
      <trkpt lat="43.19444" lon="6.56451">
        <ele>21.664312</ele>
        <time>2020-08-13T10:17:29Z</time>
      </trkpt>
      <trkpt lat="43.19452" lon="6.56474">
        <ele>22.439381</ele>
        <time>2020-08-13T10:17:41Z</time>
      </trkpt>
      <trkpt lat="43.1946" lon="6.56494">
        <ele>22.213243</ele>
        <time>2020-08-13T10:21:12Z</time>
      </trkpt>
      <trkpt lat="43.19464" lon="6.56519">
        <ele>22.5114</ele>
        <time>2020-08-13T10:21:17Z</time>
      </trkpt>
      <trkpt lat="43.19474" lon="6.56543">
        <ele>22.33675</ele>
        <time>2020-08-13T10:21:22Z</time>
      </trkpt>
      <trkpt lat="43.1949" lon="6.56553">
        <ele>21.5525</ele>
        <time>2020-08-13T10:21:28Z</time>
      </trkpt>
      <trkpt lat="43.19502" lon="6.56572">
        <ele>21.567499</ele>
        <time>2020-08-13T10:21:34Z</time>
      </trkpt>
      <trkpt lat="43.19516" lon="6.56593">
        <ele>21.5725</ele>
        <time>2020-08-13T10:21:40Z</time>
      </trkpt>
      <trkpt lat="43.19533" lon="6.5661">
        <ele>21.596125</ele>
        <time>2020-08-13T10:21:46Z</time>
      </trkpt>
      <trkpt lat="43.19553" lon="6.56615">
        <ele>21.332659</ele>
        <time>2020-08-13T10:21:51Z</time>
      </trkpt>
      <trkpt lat="43.19574" lon="6.56619">
        <ele>21.17135</ele>
        <time>2020-08-13T10:21:56Z</time>
      </trkpt>
      <trkpt lat="43.19593" lon="6.56621">
        <ele>21.601725</ele>
        <time>2020-08-13T10:22:01Z</time>
      </trkpt>
      <trkpt lat="43.19614" lon="6.56625">
        <ele>22.115</ele>
        <time>2020-08-13T10:22:06Z</time>
      </trkpt>
      <trkpt lat="43.19634" lon="6.56632">
        <ele>23.2075</ele>
        <time>2020-08-13T10:22:11Z</time>
      </trkpt>
      <trkpt lat="43.19651" lon="6.56639">
        <ele>24.17</ele>
        <time>2020-08-13T10:22:17Z</time>
      </trkpt>
      <trkpt lat="43.19668" lon="6.56652">
        <ele>25.227364</ele>
        <time>2020-08-13T10:22:24Z</time>
      </trkpt>
      <trkpt lat="43.1968" lon="6.56672">
        <ele>26.121231</ele>
        <time>2020-08-13T10:22:32Z</time>
      </trkpt>
      <trkpt lat="43.19691" lon="6.56694">
        <ele>26.921606</ele>
        <time>2020-08-13T10:22:40Z</time>
      </trkpt>
      <trkpt lat="43.19701" lon="6.56713">
        <ele>28.059275</ele>
        <time>2020-08-13T10:22:48Z</time>
      </trkpt>
      <trkpt lat="43.19711" lon="6.56732">
        <ele>28.843237</ele>
        <time>2020-08-13T10:23:11Z</time>
      </trkpt>
      <trkpt lat="43.19704" lon="6.56717">
        <ele>28.243126</ele>
        <time>2020-08-13T10:23:28Z</time>
      </trkpt>
      <trkpt lat="43.19691" lon="6.56693">
        <ele>26.90835</ele>
        <time>2020-08-13T10:23:34Z</time>
      </trkpt>
      <trkpt lat="43.19678" lon="6.56665">
        <ele>25.85817</ele>
        <time>2020-08-13T10:23:38Z</time>
      </trkpt>
      <trkpt lat="43.19664" lon="6.56645">
        <ele>24.84639</ele>
        <time>2020-08-13T10:23:42Z</time>
      </trkpt>
      <trkpt lat="43.19643" lon="6.56636">
        <ele>23.700001</ele>
        <time>2020-08-13T10:23:47Z</time>
      </trkpt>
      <trkpt lat="43.19623" lon="6.56627">
        <ele>22.5825</ele>
        <time>2020-08-13T10:23:51Z</time>
      </trkpt>
      <trkpt lat="43.19603" lon="6.56621">
        <ele>21.871647</ele>
        <time>2020-08-13T10:23:55Z</time>
      </trkpt>
      <trkpt lat="43.19584" lon="6.56619">
        <ele>21.431543</ele>
        <time>2020-08-13T10:23:59Z</time>
      </trkpt>
      <trkpt lat="43.19562" lon="6.56615">
        <ele>21.169037</ele>
        <time>2020-08-13T10:24:04Z</time>
      </trkpt>
      <trkpt lat="43.19543" lon="6.56611">
        <ele>21.466204</ele>
        <time>2020-08-13T10:24:09Z</time>
      </trkpt>
      <trkpt lat="43.19525" lon="6.56601">
        <ele>21.4543</ele>
        <time>2020-08-13T10:24:15Z</time>
      </trkpt>
      <trkpt lat="43.19509" lon="6.56584">
        <ele>21.6175</ele>
        <time>2020-08-13T10:24:21Z</time>
      </trkpt>
      <trkpt lat="43.19516" lon="6.56562">
        <ele>20.625</ele>
        <time>2020-08-13T10:24:35Z</time>
      </trkpt>
      <trkpt lat="43.19535" lon="6.56568">
        <ele>20.70175</ele>
        <time>2020-08-13T10:25:02Z</time>
      </trkpt>
      <trkpt lat="43.19549" lon="6.56587">
        <ele>21.268705</ele>
        <time>2020-08-13T10:25:15Z</time>
      </trkpt>
      <trkpt lat="43.19567" lon="6.56595">
        <ele>21.398594</ele>
        <time>2020-08-13T10:25:23Z</time>
      </trkpt>
      <trkpt lat="43.19586" lon="6.56598">
        <ele>21.935499</ele>
        <time>2020-08-13T10:25:30Z</time>
      </trkpt>
      <trkpt lat="43.19605" lon="6.56601">
        <ele>22.499105</ele>
        <time>2020-08-13T10:25:37Z</time>
      </trkpt>
      <trkpt lat="43.19625" lon="6.56602">
        <ele>23.058149</ele>
        <time>2020-08-13T10:25:44Z</time>
      </trkpt>
      <trkpt lat="43.19642" lon="6.56591">
        <ele>23.674688</ele>
        <time>2020-08-13T10:25:53Z</time>
      </trkpt>
      <trkpt lat="43.19658" lon="6.56581">
        <ele>23.987562</ele>
        <time>2020-08-13T10:26:02Z</time>
      </trkpt>
      <trkpt lat="43.19677" lon="6.56577">
        <ele>24.464888</ele>
        <time>2020-08-13T10:26:11Z</time>
      </trkpt>
      <trkpt lat="43.19696" lon="6.56567">
        <ele>24.93</ele>
        <time>2020-08-13T10:26:21Z</time>
      </trkpt>
      <trkpt lat="43.19714" lon="6.56557">
        <ele>26.701036</ele>
        <time>2020-08-13T10:26:30Z</time>
      </trkpt>
      <trkpt lat="43.19732" lon="6.56545">
        <ele>28.517603</ele>
        <time>2020-08-13T10:26:40Z</time>
      </trkpt>
      <trkpt lat="43.19748" lon="6.56535">
        <ele>29.772522</ele>
        <time>2020-08-13T10:26:48Z</time>
      </trkpt>
      <trkpt lat="43.19765" lon="6.56525">
        <ele>30.731012</ele>
        <time>2020-08-13T10:26:55Z</time>
      </trkpt>
      <trkpt lat="43.19783" lon="6.56515">
        <ele>31.645374</ele>
        <time>2020-08-13T10:27:02Z</time>
      </trkpt>
      <trkpt lat="43.198" lon="6.56501">
        <ele>32.93996</ele>
        <time>2020-08-13T10:27:09Z</time>
      </trkpt>
      <trkpt lat="43.19814" lon="6.5648">
        <ele>34.908119</ele>
        <time>2020-08-13T10:27:16Z</time>
      </trkpt>
      <trkpt lat="43.19827" lon="6.56461">
        <ele>36.80788</ele>
        <time>2020-08-13T10:27:24Z</time>
      </trkpt>
      <trkpt lat="43.19846" lon="6.56457">
        <ele>37.931835</ele>
        <time>2020-08-13T10:27:30Z</time>
      </trkpt>
      <trkpt lat="43.19866" lon="6.56455">
        <ele>38.302502</ele>
        <time>2020-08-13T10:27:36Z</time>
      </trkpt>
      <trkpt lat="43.19885" lon="6.56465">
        <ele>37.647667</ele>
        <time>2020-08-13T10:27:43Z</time>
      </trkpt>
      <trkpt lat="43.19906" lon="6.56474">
        <ele>37.529999</ele>
        <time>2020-08-13T10:27:50Z</time>
      </trkpt>
      <trkpt lat="43.19928" lon="6.56486">
        <ele>37.349998</ele>
        <time>2020-08-13T10:27:56Z</time>
      </trkpt>
      <trkpt lat="43.19945" lon="6.56498">
        <ele>37.218533</ele>
        <time>2020-08-13T10:28:03Z</time>
      </trkpt>
      <trkpt lat="43.19967" lon="6.56501">
        <ele>37.912655</ele>
        <time>2020-08-13T10:28:10Z</time>
      </trkpt>
      <trkpt lat="43.19987" lon="6.56502">
        <ele>38.769501</ele>
        <time>2020-08-13T10:28:17Z</time>
      </trkpt>
      <trkpt lat="43.20008" lon="6.56507">
        <ele>39.681107</ele>
        <time>2020-08-13T10:28:26Z</time>
      </trkpt>
      <trkpt lat="43.20027" lon="6.56514">
        <ele>40.669998</ele>
        <time>2020-08-13T10:28:34Z</time>
      </trkpt>
      <trkpt lat="43.20045" lon="6.56518">
        <ele>41.806252</ele>
        <time>2020-08-13T10:28:42Z</time>
      </trkpt>
      <trkpt lat="43.20067" lon="6.56524">
        <ele>43.182499</ele>
        <time>2020-08-13T10:28:50Z</time>
      </trkpt>
      <trkpt lat="43.20085" lon="6.5653">
        <ele>44.391251</ele>
        <time>2020-08-13T10:28:59Z</time>
      </trkpt>
      <trkpt lat="43.20104" lon="6.56535">
        <ele>45.59375</ele>
        <time>2020-08-13T10:29:08Z</time>
      </trkpt>
      <trkpt lat="43.20123" lon="6.56539">
        <ele>47.108154</ele>
        <time>2020-08-13T10:29:17Z</time>
      </trkpt>
      <trkpt lat="43.20143" lon="6.56541">
        <ele>48.854671</ele>
        <time>2020-08-13T10:29:25Z</time>
      </trkpt>
      <trkpt lat="43.20163" lon="6.5654">
        <ele>50.494999</ele>
        <time>2020-08-13T10:29:33Z</time>
      </trkpt>
      <trkpt lat="43.20182" lon="6.56537">
        <ele>51.732498</ele>
        <time>2020-08-13T10:29:41Z</time>
      </trkpt>
      <trkpt lat="43.202" lon="6.56536">
        <ele>52.985001</ele>
        <time>2020-08-13T10:29:50Z</time>
      </trkpt>
      <trkpt lat="43.2022" lon="6.56535">
        <ele>54.624561</ele>
        <time>2020-08-13T10:29:59Z</time>
      </trkpt>
      <trkpt lat="43.2024" lon="6.5653">
        <ele>56.2178</ele>
        <time>2020-08-13T10:30:09Z</time>
      </trkpt>
      <trkpt lat="43.20258" lon="6.56531">
        <ele>57.6348</ele>
        <time>2020-08-13T10:30:20Z</time>
      </trkpt>
      <trkpt lat="43.20281" lon="6.56528">
        <ele>59.262177</ele>
        <time>2020-08-13T10:30:31Z</time>
      </trkpt>
      <trkpt lat="43.20303" lon="6.56527">
        <ele>61.09</ele>
        <time>2020-08-13T10:30:42Z</time>
      </trkpt>
      <trkpt lat="43.20324" lon="6.56524">
        <ele>62.93</ele>
        <time>2020-08-13T10:30:54Z</time>
      </trkpt>
      <trkpt lat="43.20347" lon="6.56524">
        <ele>64.7425</ele>
        <time>2020-08-13T10:31:05Z</time>
      </trkpt>
      <trkpt lat="43.20368" lon="6.56523">
        <ele>66.137497</ele>
        <time>2020-08-13T10:31:15Z</time>
      </trkpt>
      <trkpt lat="43.20389" lon="6.56525">
        <ele>67.607033</ele>
        <time>2020-08-13T10:31:25Z</time>
      </trkpt>
      <trkpt lat="43.20408" lon="6.56525">
        <ele>69.080444</ele>
        <time>2020-08-13T10:31:34Z</time>
      </trkpt>
      <trkpt lat="43.20428" lon="6.56526">
        <ele>70.596245</ele>
        <time>2020-08-13T10:31:43Z</time>
      </trkpt>
      <trkpt lat="43.20447" lon="6.56535">
        <ele>72.472496</ele>
        <time>2020-08-13T10:31:51Z</time>
      </trkpt>
      <trkpt lat="43.20463" lon="6.56549">
        <ele>74.125</ele>
        <time>2020-08-13T10:31:59Z</time>
      </trkpt>
      <trkpt lat="43.20474" lon="6.56571">
        <ele>75.449997</ele>
        <time>2020-08-13T10:32:07Z</time>
      </trkpt>
      <trkpt lat="43.20486" lon="6.5659">
        <ele>76.57</ele>
        <time>2020-08-13T10:32:16Z</time>
      </trkpt>
      <trkpt lat="43.20495" lon="6.56613">
        <ele>77.449997</ele>
        <time>2020-08-13T10:32:31Z</time>
      </trkpt>
      <trkpt lat="43.20495" lon="6.56643">
        <ele>77.7248</ele>
        <time>2020-08-13T10:32:42Z</time>
      </trkpt>
      <trkpt lat="43.20493" lon="6.56666">
        <ele>77.831161</ele>
        <time>2020-08-13T10:32:52Z</time>
      </trkpt>
      <trkpt lat="43.20496" lon="6.56693">
        <ele>78.553749</ele>
        <time>2020-08-13T10:33:00Z</time>
      </trkpt>
      <trkpt lat="43.20497" lon="6.56724">
        <ele>79.328751</ele>
        <time>2020-08-13T10:33:08Z</time>
      </trkpt>
      <trkpt lat="43.2051" lon="6.5673">
        <ele>80.845001</ele>
        <time>2020-08-13T10:33:19Z</time>
      </trkpt>
      <trkpt lat="43.20529" lon="6.56734">
        <ele>83.013748</ele>
        <time>2020-08-13T10:33:30Z</time>
      </trkpt>
      <trkpt lat="43.20539" lon="6.5676">
        <ele>84.764999</ele>
        <time>2020-08-13T10:33:41Z</time>
      </trkpt>
      <trkpt lat="43.20543" lon="6.56786">
        <ele>86.220001</ele>
        <time>2020-08-13T10:33:51Z</time>
      </trkpt>
      <trkpt lat="43.2056" lon="6.56796">
        <ele>88.481453</ele>
        <time>2020-08-13T10:34:01Z</time>
      </trkpt>
      <trkpt lat="43.20577" lon="6.56788">
        <ele>90.309044</ele>
        <time>2020-08-13T10:34:12Z</time>
      </trkpt>
      <trkpt lat="43.20594" lon="6.56773">
        <ele>91.948128</ele>
        <time>2020-08-13T10:34:23Z</time>
      </trkpt>
      <trkpt lat="43.2061" lon="6.56785">
        <ele>94.14624</ele>
        <time>2020-08-13T10:34:33Z</time>
      </trkpt>
      <trkpt lat="43.20622" lon="6.56806">
        <ele>95.8909</ele>
        <time>2020-08-13T10:34:42Z</time>
      </trkpt>
      <trkpt lat="43.20634" lon="6.56826">
        <ele>97.426598</ele>
        <time>2020-08-13T10:34:53Z</time>
      </trkpt>
      <trkpt lat="43.20646" lon="6.56846">
        <ele>98.862503</ele>
        <time>2020-08-13T10:35:02Z</time>
      </trkpt>
      <trkpt lat="43.20649" lon="6.56871">
        <ele>99.300003</ele>
        <time>2020-08-13T10:35:14Z</time>
      </trkpt>
      <trkpt lat="43.20654" lon="6.56895">
        <ele>101.03125</ele>
        <time>2020-08-13T10:35:21Z</time>
      </trkpt>
      <trkpt lat="43.20673" lon="6.56899">
        <ele>103.42601</ele>
        <time>2020-08-13T10:35:28Z</time>
      </trkpt>
      <trkpt lat="43.20685" lon="6.56879">
        <ele>103.36525</ele>
        <time>2020-08-13T10:35:35Z</time>
      </trkpt>
      <trkpt lat="43.20681" lon="6.56853">
        <ele>102.762497</ele>
        <time>2020-08-13T10:35:54Z</time>
      </trkpt>
      <trkpt lat="43.20692" lon="6.56833">
        <ele>103.729301</ele>
        <time>2020-08-13T10:36:01Z</time>
      </trkpt>
      <trkpt lat="43.2071" lon="6.56826">
        <ele>105.279999</ele>
        <time>2020-08-13T10:36:06Z</time>
      </trkpt>
      <trkpt lat="43.2073" lon="6.56825">
        <ele>107.111717</ele>
        <time>2020-08-13T10:36:13Z</time>
      </trkpt>
      <trkpt lat="43.2075" lon="6.56826">
        <ele>108.853554</ele>
        <time>2020-08-13T10:36:20Z</time>
      </trkpt>
      <trkpt lat="43.20768" lon="6.56828">
        <ele>110.565941</ele>
        <time>2020-08-13T10:36:26Z</time>
      </trkpt>
      <trkpt lat="43.20789" lon="6.56829">
        <ele>112.400002</ele>
        <time>2020-08-13T10:36:33Z</time>
      </trkpt>
      <trkpt lat="43.20809" lon="6.56833">
        <ele>114.151253</ele>
        <time>2020-08-13T10:36:39Z</time>
      </trkpt>
      <trkpt lat="43.20825" lon="6.56846">
        <ele>115.281174</ele>
        <time>2020-08-13T10:36:46Z</time>
      </trkpt>
      <trkpt lat="43.20844" lon="6.56858">
        <ele>115.976219</ele>
        <time>2020-08-13T10:36:53Z</time>
      </trkpt>
      <trkpt lat="43.20864" lon="6.56861">
        <ele>116.671249</ele>
        <time>2020-08-13T10:37:00Z</time>
      </trkpt>
      <trkpt lat="43.20884" lon="6.56862">
        <ele>117.106247</ele>
        <time>2020-08-13T10:37:07Z</time>
      </trkpt>
      <trkpt lat="43.20902" lon="6.56864">
        <ele>117.52375</ele>
        <time>2020-08-13T10:37:14Z</time>
      </trkpt>
      <trkpt lat="43.2092" lon="6.56875">
        <ele>117.196251</ele>
        <time>2020-08-13T10:37:22Z</time>
      </trkpt>
      <trkpt lat="43.20922" lon="6.56902">
        <ele>116.692497</ele>
        <time>2020-08-13T10:37:29Z</time>
      </trkpt>
      <trkpt lat="43.20934" lon="6.56922">
        <ele>116.447746</ele>
        <time>2020-08-13T10:37:35Z</time>
      </trkpt>
      <trkpt lat="43.20956" lon="6.56928">
        <ele>115.683929</ele>
        <time>2020-08-13T10:37:40Z</time>
      </trkpt>
      <trkpt lat="43.20974" lon="6.56929">
        <ele>114.756126</ele>
        <time>2020-08-13T10:37:43Z</time>
      </trkpt>
      <trkpt lat="43.20994" lon="6.56929">
        <ele>113.72258</ele>
        <time>2020-08-13T10:37:46Z</time>
      </trkpt>
      <trkpt lat="43.21016" lon="6.56932">
        <ele>111.753754</ele>
        <time>2020-08-13T10:37:49Z</time>
      </trkpt>
      <trkpt lat="43.2104" lon="6.56936">
        <ele>109.573357</ele>
        <time>2020-08-13T10:37:52Z</time>
      </trkpt>
      <trkpt lat="43.21065" lon="6.56941">
        <ele>107.015198</ele>
        <time>2020-08-13T10:37:55Z</time>
      </trkpt>
      <trkpt lat="43.2109" lon="6.56948">
        <ele>104.570328</ele>
        <time>2020-08-13T10:37:58Z</time>
      </trkpt>
      <trkpt lat="43.21114" lon="6.56957">
        <ele>102.570595</ele>
        <time>2020-08-13T10:38:01Z</time>
      </trkpt>
      <trkpt lat="43.21139" lon="6.56967">
        <ele>100.841133</ele>
        <time>2020-08-13T10:38:04Z</time>
      </trkpt>
      <trkpt lat="43.21162" lon="6.5698">
        <ele>99.56884</ele>
        <time>2020-08-13T10:38:07Z</time>
      </trkpt>
      <trkpt lat="43.21187" lon="6.56994">
        <ele>97.962364</ele>
        <time>2020-08-13T10:38:10Z</time>
      </trkpt>
      <trkpt lat="43.21208" lon="6.57008">
        <ele>95.978897</ele>
        <time>2020-08-13T10:38:13Z</time>
      </trkpt>
      <trkpt lat="43.21228" lon="6.57013">
        <ele>93.568832</ele>
        <time>2020-08-13T10:38:16Z</time>
      </trkpt>
      <trkpt lat="43.21248" lon="6.57014">
        <ele>90.953598</ele>
        <time>2020-08-13T10:38:19Z</time>
      </trkpt>
      <trkpt lat="43.21268" lon="6.5703">
        <ele>88.1231</ele>
        <time>2020-08-13T10:38:22Z</time>
      </trkpt>
      <trkpt lat="43.21289" lon="6.57044">
        <ele>85.541939</ele>
        <time>2020-08-13T10:38:25Z</time>
      </trkpt>
      <trkpt lat="43.21308" lon="6.57057">
        <ele>82.755539</ele>
        <time>2020-08-13T10:38:28Z</time>
      </trkpt>
      <trkpt lat="43.21327" lon="6.5707">
        <ele>81.385597</ele>
        <time>2020-08-13T10:38:31Z</time>
      </trkpt>
      <trkpt lat="43.21346" lon="6.57083">
        <ele>80.424866</ele>
        <time>2020-08-13T10:38:34Z</time>
      </trkpt>
      <trkpt lat="43.21364" lon="6.57096">
        <ele>80.44899</ele>
        <time>2020-08-13T10:38:37Z</time>
      </trkpt>
      <trkpt lat="43.21384" lon="6.57108">
        <ele>80.87545</ele>
        <time>2020-08-13T10:38:40Z</time>
      </trkpt>
      <trkpt lat="43.21402" lon="6.57122">
        <ele>81.335129</ele>
        <time>2020-08-13T10:38:43Z</time>
      </trkpt>
      <trkpt lat="43.21423" lon="6.57135">
        <ele>81.730759</ele>
        <time>2020-08-13T10:38:46Z</time>
      </trkpt>
      <trkpt lat="43.21442" lon="6.57149">
        <ele>82.461014</ele>
        <time>2020-08-13T10:38:49Z</time>
      </trkpt>
      <trkpt lat="43.2146" lon="6.57162">
        <ele>82.939072</ele>
        <time>2020-08-13T10:38:52Z</time>
      </trkpt>
      <trkpt lat="43.21479" lon="6.57169">
        <ele>82.521851</ele>
        <time>2020-08-13T10:38:55Z</time>
      </trkpt>
      <trkpt lat="43.21497" lon="6.57173">
        <ele>81.715187</ele>
        <time>2020-08-13T10:38:58Z</time>
      </trkpt>
      <trkpt lat="43.21517" lon="6.57174">
        <ele>80.486206</ele>
        <time>2020-08-13T10:39:01Z</time>
      </trkpt>
      <trkpt lat="43.21538" lon="6.57173">
        <ele>79.474998</ele>
        <time>2020-08-13T10:39:04Z</time>
      </trkpt>
      <trkpt lat="43.21559" lon="6.57172">
        <ele>78.775002</ele>
        <time>2020-08-13T10:39:07Z</time>
      </trkpt>
      <trkpt lat="43.2158" lon="6.57172">
        <ele>78.481285</ele>
        <time>2020-08-13T10:39:10Z</time>
      </trkpt>
      <trkpt lat="43.21601" lon="6.57172">
        <ele>78.598312</ele>
        <time>2020-08-13T10:39:13Z</time>
      </trkpt>
      <trkpt lat="43.21622" lon="6.57171">
        <ele>78.186501</ele>
        <time>2020-08-13T10:39:16Z</time>
      </trkpt>
      <trkpt lat="43.21643" lon="6.5717">
        <ele>77.203377</ele>
        <time>2020-08-13T10:39:19Z</time>
      </trkpt>
      <trkpt lat="43.21664" lon="6.57169">
        <ele>76.076729</ele>
        <time>2020-08-13T10:39:22Z</time>
      </trkpt>
      <trkpt lat="43.21686" lon="6.57169">
        <ele>74.454659</ele>
        <time>2020-08-13T10:39:25Z</time>
      </trkpt>
      <trkpt lat="43.21708" lon="6.57168">
        <ele>72.851768</ele>
        <time>2020-08-13T10:39:28Z</time>
      </trkpt>
      <trkpt lat="43.2173" lon="6.5717">
        <ele>71.62355</ele>
        <time>2020-08-13T10:39:31Z</time>
      </trkpt>
      <trkpt lat="43.2175" lon="6.57176">
        <ele>70.647926</ele>
        <time>2020-08-13T10:39:34Z</time>
      </trkpt>
      <trkpt lat="43.21769" lon="6.57186">
        <ele>70.111092</ele>
        <time>2020-08-13T10:39:37Z</time>
      </trkpt>
      <trkpt lat="43.21789" lon="6.57202">
        <ele>69.717308</ele>
        <time>2020-08-13T10:39:40Z</time>
      </trkpt>
      <trkpt lat="43.21806" lon="6.57222">
        <ele>69.093887</ele>
        <time>2020-08-13T10:39:43Z</time>
      </trkpt>
      <trkpt lat="43.21821" lon="6.57244">
        <ele>68.23774</ele>
        <time>2020-08-13T10:39:46Z</time>
      </trkpt>
      <trkpt lat="43.21832" lon="6.57269">
        <ele>67.329659</ele>
        <time>2020-08-13T10:39:49Z</time>
      </trkpt>
      <trkpt lat="43.21841" lon="6.57297">
        <ele>65.672501</ele>
        <time>2020-08-13T10:39:52Z</time>
      </trkpt>
      <trkpt lat="43.21845" lon="6.57328">
        <ele>63.932499</ele>
        <time>2020-08-13T10:39:55Z</time>
      </trkpt>
      <trkpt lat="43.21849" lon="6.57358">
        <ele>61.325001</ele>
        <time>2020-08-13T10:39:58Z</time>
      </trkpt>
      <trkpt lat="43.21852" lon="6.57386">
        <ele>58.07</ele>
        <time>2020-08-13T10:40:01Z</time>
      </trkpt>
      <trkpt lat="43.21854" lon="6.57414">
        <ele>54.564938</ele>
        <time>2020-08-13T10:40:04Z</time>
      </trkpt>
      <trkpt lat="43.21856" lon="6.57445">
        <ele>50.10672</ele>
        <time>2020-08-13T10:40:07Z</time>
      </trkpt>
      <trkpt lat="43.21858" lon="6.57475">
        <ele>48.685623</ele>
        <time>2020-08-13T10:40:10Z</time>
      </trkpt>
      <trkpt lat="43.21861" lon="6.57505">
        <ele>53.121487</ele>
        <time>2020-08-13T10:40:13Z</time>
      </trkpt>
      <trkpt lat="43.21865" lon="6.57534">
        <ele>57.178387</ele>
        <time>2020-08-13T10:40:16Z</time>
      </trkpt>
      <trkpt lat="43.2187" lon="6.57561">
        <ele>59.129349</ele>
        <time>2020-08-13T10:40:19Z</time>
      </trkpt>
      <trkpt lat="43.21878" lon="6.57586">
        <ele>60.537067</ele>
        <time>2020-08-13T10:40:22Z</time>
      </trkpt>
      <trkpt lat="43.21889" lon="6.57609">
        <ele>60.83625</ele>
        <time>2020-08-13T10:40:25Z</time>
      </trkpt>
      <trkpt lat="43.219" lon="6.57633">
        <ele>60.946251</ele>
        <time>2020-08-13T10:40:28Z</time>
      </trkpt>
      <trkpt lat="43.21913" lon="6.57655">
        <ele>60.999649</ele>
        <time>2020-08-13T10:40:31Z</time>
      </trkpt>
      <trkpt lat="43.21924" lon="6.57677">
        <ele>60.774776</ele>
        <time>2020-08-13T10:40:34Z</time>
      </trkpt>
      <trkpt lat="43.21938" lon="6.57699">
        <ele>60.134048</ele>
        <time>2020-08-13T10:40:37Z</time>
      </trkpt>
      <trkpt lat="43.21951" lon="6.57722">
        <ele>59.007889</ele>
        <time>2020-08-13T10:40:40Z</time>
      </trkpt>
      <trkpt lat="43.21965" lon="6.57744">
        <ele>57.324482</ele>
        <time>2020-08-13T10:40:43Z</time>
      </trkpt>
      <trkpt lat="43.21976" lon="6.57766">
        <ele>55.507149</ele>
        <time>2020-08-13T10:40:46Z</time>
      </trkpt>
      <trkpt lat="43.21989" lon="6.57787">
        <ele>53.547501</ele>
        <time>2020-08-13T10:40:49Z</time>
      </trkpt>
      <trkpt lat="43.22001" lon="6.57808">
        <ele>52.247826</ele>
        <time>2020-08-13T10:40:52Z</time>
      </trkpt>
      <trkpt lat="43.22016" lon="6.57826">
        <ele>51.227757</ele>
        <time>2020-08-13T10:40:55Z</time>
      </trkpt>
      <trkpt lat="43.22031" lon="6.57841">
        <ele>50.363976</ele>
        <time>2020-08-13T10:40:58Z</time>
      </trkpt>
      <trkpt lat="43.22048" lon="6.57854">
        <ele>49.415092</ele>
        <time>2020-08-13T10:41:01Z</time>
      </trkpt>
      <trkpt lat="43.22069" lon="6.57867">
        <ele>48.47855</ele>
        <time>2020-08-13T10:41:05Z</time>
      </trkpt>
      <trkpt lat="43.22088" lon="6.57872">
        <ele>48.001251</ele>
        <time>2020-08-13T10:41:08Z</time>
      </trkpt>
      <trkpt lat="43.22113" lon="6.5788">
        <ele>48.278751</ele>
        <time>2020-08-13T10:41:12Z</time>
      </trkpt>
      <trkpt lat="43.2214" lon="6.57884">
        <ele>48.357498</ele>
        <time>2020-08-13T10:41:15Z</time>
      </trkpt>
      <trkpt lat="43.22162" lon="6.5788">
        <ele>48.087502</ele>
        <time>2020-08-13T10:41:18Z</time>
      </trkpt>
      <trkpt lat="43.2218" lon="6.57874">
        <ele>47.723751</ele>
        <time>2020-08-13T10:41:21Z</time>
      </trkpt>
      <trkpt lat="43.22199" lon="6.57865">
        <ele>47.213749</ele>
        <time>2020-08-13T10:41:24Z</time>
      </trkpt>
      <trkpt lat="43.2222" lon="6.57854">
        <ele>46.733749</ele>
        <time>2020-08-13T10:41:27Z</time>
      </trkpt>
      <trkpt lat="43.22238" lon="6.5784">
        <ele>47.61375</ele>
        <time>2020-08-13T10:41:30Z</time>
      </trkpt>
      <trkpt lat="43.22254" lon="6.57823">
        <ele>48.041248</ele>
        <time>2020-08-13T10:41:33Z</time>
      </trkpt>
      <trkpt lat="43.22269" lon="6.57803">
        <ele>48.240002</ele>
        <time>2020-08-13T10:41:36Z</time>
      </trkpt>
      <trkpt lat="43.22281" lon="6.57783">
        <ele>47.895</ele>
        <time>2020-08-13T10:41:39Z</time>
      </trkpt>
      <trkpt lat="43.22296" lon="6.57759">
        <ele>47.535</ele>
        <time>2020-08-13T10:41:43Z</time>
      </trkpt>
      <trkpt lat="43.2231" lon="6.57737">
        <ele>46.928398</ele>
        <time>2020-08-13T10:41:47Z</time>
      </trkpt>
      <trkpt lat="43.22322" lon="6.57715">
        <ele>46.065529</ele>
        <time>2020-08-13T10:41:51Z</time>
      </trkpt>
      <trkpt lat="43.22333" lon="6.57695">
        <ele>45.699902</ele>
        <time>2020-08-13T10:41:55Z</time>
      </trkpt>
      <trkpt lat="43.22345" lon="6.57673">
        <ele>45.919998</ele>
        <time>2020-08-13T10:41:59Z</time>
      </trkpt>
      <trkpt lat="43.22357" lon="6.57651">
        <ele>46.625</ele>
        <time>2020-08-13T10:42:03Z</time>
      </trkpt>
      <trkpt lat="43.22372" lon="6.5763">
        <ele>48.036251</ele>
        <time>2020-08-13T10:42:07Z</time>
      </trkpt>
      <trkpt lat="43.22391" lon="6.57609">
        <ele>49.228825</ele>
        <time>2020-08-13T10:42:11Z</time>
      </trkpt>
      <trkpt lat="43.22408" lon="6.57594">
        <ele>49.81308</ele>
        <time>2020-08-13T10:42:14Z</time>
      </trkpt>
      <trkpt lat="43.22429" lon="6.57578">
        <ele>49.266998</ele>
        <time>2020-08-13T10:42:18Z</time>
      </trkpt>
      <trkpt lat="43.22449" lon="6.57567">
        <ele>49.226883</ele>
        <time>2020-08-13T10:42:22Z</time>
      </trkpt>
      <trkpt lat="43.22466" lon="6.5756">
        <ele>48.716602</ele>
        <time>2020-08-13T10:42:26Z</time>
      </trkpt>
      <trkpt lat="43.22489" lon="6.57556">
        <ele>48.161526</ele>
        <time>2020-08-13T10:42:31Z</time>
      </trkpt>
      <trkpt lat="43.22512" lon="6.57558">
        <ele>48.494427</ele>
        <time>2020-08-13T10:42:35Z</time>
      </trkpt>
      <trkpt lat="43.22538" lon="6.57564">
        <ele>49.387749</ele>
        <time>2020-08-13T10:42:39Z</time>
      </trkpt>
      <trkpt lat="43.2256" lon="6.5757">
        <ele>49.039139</ele>
        <time>2020-08-13T10:42:43Z</time>
      </trkpt>
      <trkpt lat="43.22581" lon="6.57574">
        <ele>48.216026</ele>
        <time>2020-08-13T10:42:48Z</time>
      </trkpt>
      <trkpt lat="43.22606" lon="6.5758">
        <ele>45.704952</ele>
        <time>2020-08-13T10:42:52Z</time>
      </trkpt>
      <trkpt lat="43.22626" lon="6.57584">
        <ele>43.02</ele>
        <time>2020-08-13T10:42:55Z</time>
      </trkpt>
      <trkpt lat="43.22652" lon="6.57589">
        <ele>41.328289</ele>
        <time>2020-08-13T10:42:59Z</time>
      </trkpt>
      <trkpt lat="43.22678" lon="6.57595">
        <ele>40.353626</ele>
        <time>2020-08-13T10:43:03Z</time>
      </trkpt>
      <trkpt lat="43.22702" lon="6.57601">
        <ele>40.998241</ele>
        <time>2020-08-13T10:43:07Z</time>
      </trkpt>
      <trkpt lat="43.22723" lon="6.57605">
        <ele>41.44165</ele>
        <time>2020-08-13T10:43:11Z</time>
      </trkpt>
      <trkpt lat="43.22743" lon="6.57607">
        <ele>41.557945</ele>
        <time>2020-08-13T10:43:15Z</time>
      </trkpt>
      <trkpt lat="43.22765" lon="6.57604">
        <ele>41.466724</ele>
        <time>2020-08-13T10:43:20Z</time>
      </trkpt>
      <trkpt lat="43.22786" lon="6.57599">
        <ele>41.577499</ele>
        <time>2020-08-13T10:43:26Z</time>
      </trkpt>
      <trkpt lat="43.22807" lon="6.57593">
        <ele>41.735001</ele>
        <time>2020-08-13T10:43:33Z</time>
      </trkpt>
      <trkpt lat="43.22831" lon="6.57586">
        <ele>41.898037</ele>
        <time>2020-08-13T10:43:39Z</time>
      </trkpt>
      <trkpt lat="43.22852" lon="6.57578">
        <ele>41.80064</ele>
        <time>2020-08-13T10:43:44Z</time>
      </trkpt>
      <trkpt lat="43.22873" lon="6.57562">
        <ele>41.669998</ele>
        <time>2020-08-13T10:43:50Z</time>
      </trkpt>
      <trkpt lat="43.22896" lon="6.57554">
        <ele>42.141251</ele>
        <time>2020-08-13T10:43:55Z</time>
      </trkpt>
      <trkpt lat="43.22918" lon="6.57546">
        <ele>42.375</ele>
        <time>2020-08-13T10:43:59Z</time>
      </trkpt>
      <trkpt lat="43.22939" lon="6.57534">
        <ele>42.19125</ele>
        <time>2020-08-13T10:44:03Z</time>
      </trkpt>
      <trkpt lat="43.22958" lon="6.57528">
        <ele>42.206249</ele>
        <time>2020-08-13T10:44:07Z</time>
      </trkpt>
      <trkpt lat="43.22977" lon="6.57522">
        <ele>42.275002</ele>
        <time>2020-08-13T10:44:12Z</time>
      </trkpt>
      <trkpt lat="43.22999" lon="6.57515">
        <ele>42.353374</ele>
        <time>2020-08-13T10:44:17Z</time>
      </trkpt>
      <trkpt lat="43.23017" lon="6.5751">
        <ele>42.600796</ele>
        <time>2020-08-13T10:44:21Z</time>
      </trkpt>
      <trkpt lat="43.23037" lon="6.57502">
        <ele>42.599049</ele>
        <time>2020-08-13T10:44:26Z</time>
      </trkpt>
      <trkpt lat="43.23055" lon="6.57509">
        <ele>43.584282</ele>
        <time>2020-08-13T10:44:33Z</time>
      </trkpt>
      <trkpt lat="43.23075" lon="6.57523">
        <ele>45.018711</ele>
        <time>2020-08-13T10:44:39Z</time>
      </trkpt>
      <trkpt lat="43.23097" lon="6.57534">
        <ele>46.225636</ele>
        <time>2020-08-13T10:44:48Z</time>
      </trkpt>
      <trkpt lat="43.23115" lon="6.57529">
        <ele>46.510899</ele>
        <time>2020-08-13T10:45:04Z</time>
      </trkpt>
      <trkpt lat="43.23136" lon="6.57517">
        <ele>46.849392</ele>
        <time>2020-08-13T10:45:09Z</time>
      </trkpt>
      <trkpt lat="43.23155" lon="6.5751">
        <ele>47.46888</ele>
        <time>2020-08-13T10:45:13Z</time>
      </trkpt>
      <trkpt lat="43.23176" lon="6.57509">
        <ele>48.314438</ele>
        <time>2020-08-13T10:45:18Z</time>
      </trkpt>
      <trkpt lat="43.23195" lon="6.575">
        <ele>48.72113</ele>
        <time>2020-08-13T10:45:23Z</time>
      </trkpt>
      <trkpt lat="43.23214" lon="6.57491">
        <ele>49.376705</ele>
        <time>2020-08-13T10:45:27Z</time>
      </trkpt>
      <trkpt lat="43.23233" lon="6.57485">
        <ele>49.964954</ele>
        <time>2020-08-13T10:45:31Z</time>
      </trkpt>
      <trkpt lat="43.23252" lon="6.57481">
        <ele>50.499062</ele>
        <time>2020-08-13T10:45:36Z</time>
      </trkpt>
      <trkpt lat="43.23274" lon="6.57476">
        <ele>50.875118</ele>
        <time>2020-08-13T10:45:42Z</time>
      </trkpt>
      <trkpt lat="43.23293" lon="6.57472">
        <ele>50.586525</ele>
        <time>2020-08-13T10:45:46Z</time>
      </trkpt>
      <trkpt lat="43.23317" lon="6.57466">
        <ele>50.255161</ele>
        <time>2020-08-13T10:45:50Z</time>
      </trkpt>
      <trkpt lat="43.23335" lon="6.5746">
        <ele>49.335201</ele>
        <time>2020-08-13T10:45:53Z</time>
      </trkpt>
      <trkpt lat="43.23354" lon="6.57455">
        <ele>48.271126</ele>
        <time>2020-08-13T10:45:56Z</time>
      </trkpt>
      <trkpt lat="43.23373" lon="6.57449">
        <ele>47.2812</ele>
        <time>2020-08-13T10:45:59Z</time>
      </trkpt>
      <trkpt lat="43.23393" lon="6.57444">
        <ele>46.194809</ele>
        <time>2020-08-13T10:46:02Z</time>
      </trkpt>
      <trkpt lat="43.23413" lon="6.57438">
        <ele>44.740742</ele>
        <time>2020-08-13T10:46:05Z</time>
      </trkpt>
      <trkpt lat="43.23433" lon="6.57434">
        <ele>42.722256</ele>
        <time>2020-08-13T10:46:08Z</time>
      </trkpt>
      <trkpt lat="43.23455" lon="6.5743">
        <ele>40.725689</ele>
        <time>2020-08-13T10:46:11Z</time>
      </trkpt>
      <trkpt lat="43.23476" lon="6.57426">
        <ele>39.484852</ele>
        <time>2020-08-13T10:46:14Z</time>
      </trkpt>
      <trkpt lat="43.23497" lon="6.5742">
        <ele>38.205486</ele>
        <time>2020-08-13T10:46:17Z</time>
      </trkpt>
      <trkpt lat="43.23519" lon="6.57415">
        <ele>37.225998</ele>
        <time>2020-08-13T10:46:20Z</time>
      </trkpt>
      <trkpt lat="43.2354" lon="6.5741">
        <ele>36.152317</ele>
        <time>2020-08-13T10:46:23Z</time>
      </trkpt>
      <trkpt lat="43.23562" lon="6.57405">
        <ele>35.498749</ele>
        <time>2020-08-13T10:46:26Z</time>
      </trkpt>
      <trkpt lat="43.23581" lon="6.57401">
        <ele>34.982498</ele>
        <time>2020-08-13T10:46:29Z</time>
      </trkpt>
      <trkpt lat="43.23598" lon="6.57414">
        <ele>35.147499</ele>
        <time>2020-08-13T10:46:34Z</time>
      </trkpt>
      <trkpt lat="43.23609" lon="6.57397">
        <ele>34.656101</ele>
        <time>2020-08-13T10:46:41Z</time>
      </trkpt>
      <trkpt lat="43.23628" lon="6.57389">
        <ele>34.278542</ele>
        <time>2020-08-13T10:46:47Z</time>
      </trkpt>
      <trkpt lat="43.23646" lon="6.57381">
        <ele>33.796413</ele>
        <time>2020-08-13T10:46:51Z</time>
      </trkpt>
      <trkpt lat="43.23665" lon="6.5737">
        <ele>33.357891</ele>
        <time>2020-08-13T10:46:55Z</time>
      </trkpt>
      <trkpt lat="43.23685" lon="6.57361">
        <ele>32.93375</ele>
        <time>2020-08-13T10:46:59Z</time>
      </trkpt>
      <trkpt lat="43.23704" lon="6.57355">
        <ele>32.404362</ele>
        <time>2020-08-13T10:47:02Z</time>
      </trkpt>
      <trkpt lat="43.23724" lon="6.57349">
        <ele>31.939449</ele>
        <time>2020-08-13T10:47:05Z</time>
      </trkpt>
      <trkpt lat="43.23744" lon="6.57344">
        <ele>31.278255</ele>
        <time>2020-08-13T10:47:08Z</time>
      </trkpt>
      <trkpt lat="43.23764" lon="6.5734">
        <ele>30.766951</ele>
        <time>2020-08-13T10:47:11Z</time>
      </trkpt>
      <trkpt lat="43.23784" lon="6.57333">
        <ele>30.41995</ele>
        <time>2020-08-13T10:47:14Z</time>
      </trkpt>
      <trkpt lat="43.23804" lon="6.57326">
        <ele>29.948557</ele>
        <time>2020-08-13T10:47:17Z</time>
      </trkpt>
      <trkpt lat="43.23825" lon="6.5732">
        <ele>29.311422</ele>
        <time>2020-08-13T10:47:20Z</time>
      </trkpt>
      <trkpt lat="43.23845" lon="6.57314">
        <ele>28.565775</ele>
        <time>2020-08-13T10:47:23Z</time>
      </trkpt>
      <trkpt lat="43.23866" lon="6.57308">
        <ele>27.718206</ele>
        <time>2020-08-13T10:47:26Z</time>
      </trkpt>
      <trkpt lat="43.23887" lon="6.57302">
        <ele>27.53125</ele>
        <time>2020-08-13T10:47:29Z</time>
      </trkpt>
      <trkpt lat="43.23907" lon="6.57296">
        <ele>27.435137</ele>
        <time>2020-08-13T10:47:32Z</time>
      </trkpt>
      <trkpt lat="43.23929" lon="6.5729">
        <ele>27.650282</ele>
        <time>2020-08-13T10:47:35Z</time>
      </trkpt>
      <trkpt lat="43.23951" lon="6.57283">
        <ele>27.797913</ele>
        <time>2020-08-13T10:47:38Z</time>
      </trkpt>
      <trkpt lat="43.23974" lon="6.57276">
        <ele>27.35075</ele>
        <time>2020-08-13T10:47:41Z</time>
      </trkpt>
      <trkpt lat="43.23998" lon="6.5727">
        <ele>26.492535</ele>
        <time>2020-08-13T10:47:44Z</time>
      </trkpt>
      <trkpt lat="43.24023" lon="6.57262">
        <ele>24.134834</ele>
        <time>2020-08-13T10:47:47Z</time>
      </trkpt>
      <trkpt lat="43.24047" lon="6.57251">
        <ele>22.587851</ele>
        <time>2020-08-13T10:47:50Z</time>
      </trkpt>
      <trkpt lat="43.24071" lon="6.57238">
        <ele>22.3762</ele>
        <time>2020-08-13T10:47:53Z</time>
      </trkpt>
      <trkpt lat="43.24095" lon="6.57223">
        <ele>21.6355</ele>
        <time>2020-08-13T10:47:56Z</time>
      </trkpt>
      <trkpt lat="43.24117" lon="6.57209">
        <ele>20.577532</ele>
        <time>2020-08-13T10:47:59Z</time>
      </trkpt>
      <trkpt lat="43.24139" lon="6.57193">
        <ele>18.913921</ele>
        <time>2020-08-13T10:48:02Z</time>
      </trkpt>
      <trkpt lat="43.2416" lon="6.57178">
        <ele>18.045773</ele>
        <time>2020-08-13T10:48:05Z</time>
      </trkpt>
      <trkpt lat="43.24181" lon="6.57162">
        <ele>16.9825</ele>
        <time>2020-08-13T10:48:08Z</time>
      </trkpt>
      <trkpt lat="43.24201" lon="6.57147">
        <ele>16.5375</ele>
        <time>2020-08-13T10:48:11Z</time>
      </trkpt>
      <trkpt lat="43.24222" lon="6.57131">
        <ele>16.102501</ele>
        <time>2020-08-13T10:48:14Z</time>
      </trkpt>
      <trkpt lat="43.24242" lon="6.57114">
        <ele>16</ele>
        <time>2020-08-13T10:48:17Z</time>
      </trkpt>
      <trkpt lat="43.24262" lon="6.57098">
        <ele>16</ele>
        <time>2020-08-13T10:48:20Z</time>
      </trkpt>
      <trkpt lat="43.2428" lon="6.57081">
        <ele>16.15625</ele>
        <time>2020-08-13T10:48:23Z</time>
      </trkpt>
      <trkpt lat="43.24299" lon="6.57068">
        <ele>16.393749</ele>
        <time>2020-08-13T10:48:26Z</time>
      </trkpt>
      <trkpt lat="43.24317" lon="6.57056">
        <ele>16.6</ele>
        <time>2020-08-13T10:48:29Z</time>
      </trkpt>
      <trkpt lat="43.24338" lon="6.57065">
        <ele>16.4825</ele>
        <time>2020-08-13T10:48:33Z</time>
      </trkpt>
      <trkpt lat="43.24357" lon="6.57082">
        <ele>16.23625</ele>
        <time>2020-08-13T10:48:37Z</time>
      </trkpt>
      <trkpt lat="43.24379" lon="6.57095">
        <ele>16.043751</ele>
        <time>2020-08-13T10:48:41Z</time>
      </trkpt>
      <trkpt lat="43.24395" lon="6.57108">
        <ele>15.901</ele>
        <time>2020-08-13T10:48:44Z</time>
      </trkpt>
      <trkpt lat="43.24414" lon="6.57116">
        <ele>15.7425</ele>
        <time>2020-08-13T10:48:47Z</time>
      </trkpt>
      <trkpt lat="43.24438" lon="6.57122">
        <ele>15.67875</ele>
        <time>2020-08-13T10:48:51Z</time>
      </trkpt>
      <trkpt lat="43.2446" lon="6.57129">
        <ele>15.709538</ele>
        <time>2020-08-13T10:48:55Z</time>
      </trkpt>
      <trkpt lat="43.24482" lon="6.57141">
        <ele>15.728812</ele>
        <time>2020-08-13T10:49:00Z</time>
      </trkpt>
      <trkpt lat="43.24499" lon="6.57153">
        <ele>15.515</ele>
        <time>2020-08-13T10:49:04Z</time>
      </trkpt>
      <trkpt lat="43.24515" lon="6.57165">
        <ele>15.16</ele>
        <time>2020-08-13T10:49:08Z</time>
      </trkpt>
      <trkpt lat="43.24531" lon="6.57177">
        <ele>14.89125</ele>
        <time>2020-08-13T10:49:13Z</time>
      </trkpt>
      <trkpt lat="43.24545" lon="6.57175">
        <ele>15.062165</ele>
        <time>2020-08-13T10:49:19Z</time>
      </trkpt>
      <trkpt lat="43.24558" lon="6.57149">
        <ele>16.155001</ele>
        <time>2020-08-13T10:49:24Z</time>
      </trkpt>
      <trkpt lat="43.24575" lon="6.5714">
        <ele>16.865</ele>
        <time>2020-08-13T10:49:28Z</time>
      </trkpt>
      <trkpt lat="43.24595" lon="6.57144">
        <ele>17.215</ele>
        <time>2020-08-13T10:49:32Z</time>
      </trkpt>
      <trkpt lat="43.24615" lon="6.57157">
        <ele>17.327499</ele>
        <time>2020-08-13T10:49:36Z</time>
      </trkpt>
      <trkpt lat="43.24635" lon="6.5717">
        <ele>17.395237</ele>
        <time>2020-08-13T10:49:40Z</time>
      </trkpt>
      <trkpt lat="43.24654" lon="6.57182">
        <ele>17.475</ele>
        <time>2020-08-13T10:49:44Z</time>
      </trkpt>
      <trkpt lat="43.24674" lon="6.57194">
        <ele>17.5825</ele>
        <time>2020-08-13T10:49:48Z</time>
      </trkpt>
      <trkpt lat="43.24693" lon="6.57206">
        <ele>18.127501</ele>
        <time>2020-08-13T10:49:52Z</time>
      </trkpt>
      <trkpt lat="43.24712" lon="6.57215">
        <ele>18.7075</ele>
        <time>2020-08-13T10:49:56Z</time>
      </trkpt>
      <trkpt lat="43.2473" lon="6.57223">
        <ele>19.138891</ele>
        <time>2020-08-13T10:50:00Z</time>
      </trkpt>
      <trkpt lat="43.24747" lon="6.5723">
        <ele>19.4645</ele>
        <time>2020-08-13T10:50:04Z</time>
      </trkpt>
      <trkpt lat="43.24766" lon="6.57236">
        <ele>19.813349</ele>
        <time>2020-08-13T10:50:08Z</time>
      </trkpt>
      <trkpt lat="43.24786" lon="6.57243">
        <ele>20.398331</ele>
        <time>2020-08-13T10:50:12Z</time>
      </trkpt>
      <trkpt lat="43.24807" lon="6.57249">
        <ele>21.107634</ele>
        <time>2020-08-13T10:50:16Z</time>
      </trkpt>
      <trkpt lat="43.24827" lon="6.57255">
        <ele>20.94375</ele>
        <time>2020-08-13T10:50:20Z</time>
      </trkpt>
      <trkpt lat="43.24849" lon="6.57262">
        <ele>20.703751</ele>
        <time>2020-08-13T10:50:24Z</time>
      </trkpt>
      <trkpt lat="43.24869" lon="6.57269">
        <ele>20.518074</ele>
        <time>2020-08-13T10:50:28Z</time>
      </trkpt>
      <trkpt lat="43.2489" lon="6.57274">
        <ele>20.474682</ele>
        <time>2020-08-13T10:50:32Z</time>
      </trkpt>
      <trkpt lat="43.24912" lon="6.57283">
        <ele>20.2775</ele>
        <time>2020-08-13T10:50:36Z</time>
      </trkpt>
      <trkpt lat="43.24933" lon="6.57289">
        <ele>20.105</ele>
        <time>2020-08-13T10:50:40Z</time>
      </trkpt>
      <trkpt lat="43.24954" lon="6.57295">
        <ele>19.816126</ele>
        <time>2020-08-13T10:50:44Z</time>
      </trkpt>
      <trkpt lat="43.24973" lon="6.57304">
        <ele>19.269075</ele>
        <time>2020-08-13T10:50:48Z</time>
      </trkpt>
      <trkpt lat="43.24987" lon="6.5732">
        <ele>18.358006</ele>
        <time>2020-08-13T10:50:52Z</time>
      </trkpt>
      <trkpt lat="43.25005" lon="6.57325">
        <ele>18.160809</ele>
        <time>2020-08-13T10:50:58Z</time>
      </trkpt>
      <trkpt lat="43.25024" lon="6.57316">
        <ele>18.497307</ele>
        <time>2020-08-13T10:51:03Z</time>
      </trkpt>
      <trkpt lat="43.25044" lon="6.57321">
        <ele>18.086172</ele>
        <time>2020-08-13T10:51:07Z</time>
      </trkpt>
      <trkpt lat="43.25065" lon="6.57325">
        <ele>17.568003</ele>
        <time>2020-08-13T10:51:11Z</time>
      </trkpt>
      <trkpt lat="43.25087" lon="6.57331">
        <ele>17.202499</ele>
        <time>2020-08-13T10:51:15Z</time>
      </trkpt>
      <trkpt lat="43.25109" lon="6.57338">
        <ele>16.959669</ele>
        <time>2020-08-13T10:51:19Z</time>
      </trkpt>
      <trkpt lat="43.25131" lon="6.57344">
        <ele>16.805</ele>
        <time>2020-08-13T10:51:23Z</time>
      </trkpt>
      <trkpt lat="43.25155" lon="6.5735">
        <ele>16.665001</ele>
        <time>2020-08-13T10:51:27Z</time>
      </trkpt>
      <trkpt lat="43.25173" lon="6.57355">
        <ele>16.3225</ele>
        <time>2020-08-13T10:51:30Z</time>
      </trkpt>
      <trkpt lat="43.25191" lon="6.5736">
        <ele>15.787499</ele>
        <time>2020-08-13T10:51:33Z</time>
      </trkpt>
      <trkpt lat="43.2521" lon="6.57366">
        <ele>15.260975</ele>
        <time>2020-08-13T10:51:36Z</time>
      </trkpt>
      <trkpt lat="43.25227" lon="6.57372">
        <ele>14.949562</ele>
        <time>2020-08-13T10:51:39Z</time>
      </trkpt>
      <trkpt lat="43.25249" lon="6.57382">
        <ele>14.334662</ele>
        <time>2020-08-13T10:51:43Z</time>
      </trkpt>
      <trkpt lat="43.25269" lon="6.57393">
        <ele>13.81</ele>
        <time>2020-08-13T10:51:47Z</time>
      </trkpt>
      <trkpt lat="43.25289" lon="6.57405">
        <ele>13.33</ele>
        <time>2020-08-13T10:51:51Z</time>
      </trkpt>
      <trkpt lat="43.2531" lon="6.57417">
        <ele>12.783387</ele>
        <time>2020-08-13T10:51:55Z</time>
      </trkpt>
      <trkpt lat="43.25331" lon="6.57429">
        <ele>12.078425</ele>
        <time>2020-08-13T10:51:59Z</time>
      </trkpt>
      <trkpt lat="43.25348" lon="6.57438">
        <ele>11.648031</ele>
        <time>2020-08-13T10:52:02Z</time>
      </trkpt>
      <trkpt lat="43.25366" lon="6.57444">
        <ele>11.5062</ele>
        <time>2020-08-13T10:52:05Z</time>
      </trkpt>
      <trkpt lat="43.25388" lon="6.57449">
        <ele>11.4175</ele>
        <time>2020-08-13T10:52:09Z</time>
      </trkpt>
      <trkpt lat="43.25407" lon="6.57452">
        <ele>10.94375</ele>
        <time>2020-08-13T10:52:14Z</time>
      </trkpt>
      <trkpt lat="43.25428" lon="6.57451">
        <ele>10.58125</ele>
        <time>2020-08-13T10:52:20Z</time>
      </trkpt>
      <trkpt lat="43.25448" lon="6.57448">
        <ele>10.105425</ele>
        <time>2020-08-13T10:52:24Z</time>
      </trkpt>
      <trkpt lat="43.25472" lon="6.57449">
        <ele>9.296084</ele>
        <time>2020-08-13T10:52:28Z</time>
      </trkpt>
      <trkpt lat="43.25495" lon="6.57449">
        <ele>9.75</ele>
        <time>2020-08-13T10:52:32Z</time>
      </trkpt>
      <trkpt lat="43.25519" lon="6.57449">
        <ele>10.32</ele>
        <time>2020-08-13T10:52:36Z</time>
      </trkpt>
      <trkpt lat="43.25538" lon="6.5745">
        <ele>10.325</ele>
        <time>2020-08-13T10:52:39Z</time>
      </trkpt>
      <trkpt lat="43.25557" lon="6.57451">
        <ele>10.365</ele>
        <time>2020-08-13T10:52:42Z</time>
      </trkpt>
      <trkpt lat="43.25577" lon="6.57452">
        <ele>10.154696</ele>
        <time>2020-08-13T10:52:45Z</time>
      </trkpt>
      <trkpt lat="43.25595" lon="6.57457">
        <ele>9.812613</ele>
        <time>2020-08-13T10:52:48Z</time>
      </trkpt>
      <trkpt lat="43.25614" lon="6.57462">
        <ele>9.376578</ele>
        <time>2020-08-13T10:52:51Z</time>
      </trkpt>
      <trkpt lat="43.25632" lon="6.57468">
        <ele>8.69795</ele>
        <time>2020-08-13T10:52:54Z</time>
      </trkpt>
      <trkpt lat="43.25654" lon="6.57478">
        <ele>8.044241</ele>
        <time>2020-08-13T10:52:58Z</time>
      </trkpt>
      <trkpt lat="43.25675" lon="6.57486">
        <ele>8.628725</ele>
        <time>2020-08-13T10:53:02Z</time>
      </trkpt>
      <trkpt lat="43.25696" lon="6.57495">
        <ele>9.129325</ele>
        <time>2020-08-13T10:53:06Z</time>
      </trkpt>
      <trkpt lat="43.25719" lon="6.57503">
        <ele>9.51875</ele>
        <time>2020-08-13T10:53:10Z</time>
      </trkpt>
      <trkpt lat="43.25737" lon="6.57509">
        <ele>9.8505</ele>
        <time>2020-08-13T10:53:13Z</time>
      </trkpt>
      <trkpt lat="43.25755" lon="6.57515">
        <ele>9.87</ele>
        <time>2020-08-13T10:53:16Z</time>
      </trkpt>
      <trkpt lat="43.25772" lon="6.57522">
        <ele>9.7875</ele>
        <time>2020-08-13T10:53:19Z</time>
      </trkpt>
      <trkpt lat="43.25791" lon="6.57528">
        <ele>9.5875</ele>
        <time>2020-08-13T10:53:22Z</time>
      </trkpt>
      <trkpt lat="43.25809" lon="6.57534">
        <ele>9.1025</ele>
        <time>2020-08-13T10:53:25Z</time>
      </trkpt>
      <trkpt lat="43.25827" lon="6.57539">
        <ele>8.6225</ele>
        <time>2020-08-13T10:53:28Z</time>
      </trkpt>
      <trkpt lat="43.25845" lon="6.57544">
        <ele>8.16375</ele>
        <time>2020-08-13T10:53:31Z</time>
      </trkpt>
      <trkpt lat="43.25865" lon="6.57549">
        <ele>7.66375</ele>
        <time>2020-08-13T10:53:35Z</time>
      </trkpt>
      <trkpt lat="43.25885" lon="6.57554">
        <ele>7.304088</ele>
        <time>2020-08-13T10:53:39Z</time>
      </trkpt>
      <trkpt lat="43.25909" lon="6.57558">
        <ele>7.086984</ele>
        <time>2020-08-13T10:53:43Z</time>
      </trkpt>
      <trkpt lat="43.25934" lon="6.57563">
        <ele>7</ele>
        <time>2020-08-13T10:53:47Z</time>
      </trkpt>
      <trkpt lat="43.25959" lon="6.57569">
        <ele>7</ele>
        <time>2020-08-13T10:53:51Z</time>
      </trkpt>
      <trkpt lat="43.25984" lon="6.57576">
        <ele>7.381375</ele>
        <time>2020-08-13T10:53:55Z</time>
      </trkpt>
      <trkpt lat="43.26002" lon="6.57581">
        <ele>7.780825</ele>
        <time>2020-08-13T10:53:58Z</time>
      </trkpt>
      <trkpt lat="43.26027" lon="6.57587">
        <ele>7.981797</ele>
        <time>2020-08-13T10:54:02Z</time>
      </trkpt>
      <trkpt lat="43.26051" lon="6.57593">
        <ele>8.04275</ele>
        <time>2020-08-13T10:54:06Z</time>
      </trkpt>
      <trkpt lat="43.26072" lon="6.576">
        <ele>8.505703</ele>
        <time>2020-08-13T10:54:10Z</time>
      </trkpt>
      <trkpt lat="43.26091" lon="6.57605">
        <ele>8.894213</ele>
        <time>2020-08-13T10:54:14Z</time>
      </trkpt>
      <trkpt lat="43.2611" lon="6.57612">
        <ele>8.921025</ele>
        <time>2020-08-13T10:55:32Z</time>
      </trkpt>
      <trkpt lat="43.26128" lon="6.57613">
        <ele>8.820188</ele>
        <time>2020-08-13T10:55:39Z</time>
      </trkpt>
      <trkpt lat="43.26148" lon="6.57621">
        <ele>8.533794</ele>
        <time>2020-08-13T10:55:44Z</time>
      </trkpt>
      <trkpt lat="43.26167" lon="6.57626">
        <ele>8.248353</ele>
        <time>2020-08-13T10:55:48Z</time>
      </trkpt>
      <trkpt lat="43.26186" lon="6.5763">
        <ele>8</ele>
        <time>2020-08-13T10:55:52Z</time>
      </trkpt>
      <trkpt lat="43.26209" lon="6.57637">
        <ele>8</ele>
        <time>2020-08-13T10:55:56Z</time>
      </trkpt>
      <trkpt lat="43.26233" lon="6.57642">
        <ele>8</ele>
        <time>2020-08-13T10:56:00Z</time>
      </trkpt>
      <trkpt lat="43.26253" lon="6.57647">
        <ele>8</ele>
        <time>2020-08-13T10:56:03Z</time>
      </trkpt>
      <trkpt lat="43.26272" lon="6.57652">
        <ele>8</ele>
        <time>2020-08-13T10:56:06Z</time>
      </trkpt>
      <trkpt lat="43.26297" lon="6.57659">
        <ele>7.505</ele>
        <time>2020-08-13T10:56:10Z</time>
      </trkpt>
      <trkpt lat="43.26318" lon="6.57665">
        <ele>7.0475</ele>
        <time>2020-08-13T10:56:14Z</time>
      </trkpt>
      <trkpt lat="43.26336" lon="6.57677">
        <ele>7</ele>
        <time>2020-08-13T10:56:18Z</time>
      </trkpt>
      <trkpt lat="43.26357" lon="6.57687">
        <ele>7</ele>
        <time>2020-08-13T10:56:22Z</time>
      </trkpt>
      <trkpt lat="43.2638" lon="6.57682">
        <ele>7</ele>
        <time>2020-08-13T10:56:26Z</time>
      </trkpt>
      <trkpt lat="43.26399" lon="6.57681">
        <ele>7</ele>
        <time>2020-08-13T10:56:29Z</time>
      </trkpt>
      <trkpt lat="43.26418" lon="6.57684">
        <ele>6.81</ele>
        <time>2020-08-13T10:56:32Z</time>
      </trkpt>
      <trkpt lat="43.26436" lon="6.57687">
        <ele>6.4025</ele>
        <time>2020-08-13T10:56:35Z</time>
      </trkpt>
      <trkpt lat="43.26459" lon="6.57691">
        <ele>6</ele>
        <time>2020-08-13T10:56:39Z</time>
      </trkpt>
      <trkpt lat="43.26483" lon="6.57693">
        <ele>6</ele>
        <time>2020-08-13T10:56:43Z</time>
      </trkpt>
      <trkpt lat="43.26504" lon="6.57689">
        <ele>6</ele>
        <time>2020-08-13T10:56:47Z</time>
      </trkpt>
      <trkpt lat="43.26521" lon="6.57674">
        <ele>6</ele>
        <time>2020-08-13T10:56:51Z</time>
      </trkpt>
      <trkpt lat="43.26536" lon="6.57657">
        <ele>6</ele>
        <time>2020-08-13T10:56:54Z</time>
      </trkpt>
      <trkpt lat="43.2655" lon="6.57636">
        <ele>5.92</ele>
        <time>2020-08-13T10:56:57Z</time>
      </trkpt>
      <trkpt lat="43.26564" lon="6.57615">
        <ele>5.615</ele>
        <time>2020-08-13T10:57:01Z</time>
      </trkpt>
      <trkpt lat="43.26579" lon="6.57595">
        <ele>5.3075</ele>
        <time>2020-08-13T10:57:05Z</time>
      </trkpt>
      <trkpt lat="43.26595" lon="6.57573">
        <ele>5</ele>
        <time>2020-08-13T10:57:09Z</time>
      </trkpt>
      <trkpt lat="43.26609" lon="6.57554">
        <ele>5</ele>
        <time>2020-08-13T10:57:12Z</time>
      </trkpt>
      <trkpt lat="43.26622" lon="6.57536">
        <ele>5</ele>
        <time>2020-08-13T10:57:15Z</time>
      </trkpt>
      <trkpt lat="43.26637" lon="6.57516">
        <ele>5</ele>
        <time>2020-08-13T10:57:19Z</time>
      </trkpt>
      <trkpt lat="43.2665" lon="6.57497">
        <ele>5</ele>
        <time>2020-08-13T10:57:23Z</time>
      </trkpt>
      <trkpt lat="43.26665" lon="6.57479">
        <ele>5</ele>
        <time>2020-08-13T10:57:27Z</time>
      </trkpt>
      <trkpt lat="43.26684" lon="6.57464">
        <ele>5</ele>
        <time>2020-08-13T10:57:31Z</time>
      </trkpt>
      <trkpt lat="43.26701" lon="6.57458">
        <ele>4.7075</ele>
        <time>2020-08-13T10:57:34Z</time>
      </trkpt>
      <trkpt lat="43.26719" lon="6.57451">
        <ele>4.3125</ele>
        <time>2020-08-13T10:57:37Z</time>
      </trkpt>
      <trkpt lat="43.26738" lon="6.57444">
        <ele>4</ele>
        <time>2020-08-13T10:57:40Z</time>
      </trkpt>
      <trkpt lat="43.26756" lon="6.57437">
        <ele>4</ele>
        <time>2020-08-13T10:57:43Z</time>
      </trkpt>
      <trkpt lat="43.26778" lon="6.57426">
        <ele>4</ele>
        <time>2020-08-13T10:57:47Z</time>
      </trkpt>
      <trkpt lat="43.26799" lon="6.57418">
        <ele>4</ele>
        <time>2020-08-13T10:57:51Z</time>
      </trkpt>
      <trkpt lat="43.26821" lon="6.57412">
        <ele>4</ele>
        <time>2020-08-13T10:57:55Z</time>
      </trkpt>
      <trkpt lat="43.26844" lon="6.57408">
        <ele>4</ele>
        <time>2020-08-13T10:57:59Z</time>
      </trkpt>
      <trkpt lat="43.26862" lon="6.574">
        <ele>4</ele>
        <time>2020-08-13T10:58:03Z</time>
      </trkpt>
      <trkpt lat="43.26876" lon="6.57386">
        <ele>4</ele>
        <time>2020-08-13T10:58:10Z</time>
      </trkpt>
      <trkpt lat="43.26896" lon="6.57379">
        <ele>4</ele>
        <time>2020-08-13T10:58:15Z</time>
      </trkpt>
      <trkpt lat="43.26917" lon="6.57371">
        <ele>4</ele>
        <time>2020-08-13T10:58:19Z</time>
      </trkpt>
      <trkpt lat="43.2694" lon="6.57363">
        <ele>4</ele>
        <time>2020-08-13T10:58:23Z</time>
      </trkpt>
      <trkpt lat="43.26964" lon="6.57352">
        <ele>4</ele>
        <time>2020-08-13T10:58:27Z</time>
      </trkpt>
      <trkpt lat="43.26987" lon="6.57345">
        <ele>4</ele>
        <time>2020-08-13T10:58:31Z</time>
      </trkpt>
      <trkpt lat="43.27006" lon="6.57338">
        <ele>4</ele>
        <time>2020-08-13T10:58:35Z</time>
      </trkpt>
      <trkpt lat="43.27025" lon="6.57331">
        <ele>4</ele>
        <time>2020-08-13T10:58:39Z</time>
      </trkpt>
      <trkpt lat="43.27046" lon="6.57327">
        <ele>4</ele>
        <time>2020-08-13T10:58:43Z</time>
      </trkpt>
      <trkpt lat="43.27069" lon="6.57326">
        <ele>4</ele>
        <time>2020-08-13T10:58:47Z</time>
      </trkpt>
      <trkpt lat="43.27093" lon="6.57332">
        <ele>4</ele>
        <time>2020-08-13T10:58:51Z</time>
      </trkpt>
      <trkpt lat="43.27116" lon="6.57341">
        <ele>4</ele>
        <time>2020-08-13T10:58:55Z</time>
      </trkpt>
      <trkpt lat="43.27139" lon="6.5735">
        <ele>4</ele>
        <time>2020-08-13T10:58:59Z</time>
      </trkpt>
      <trkpt lat="43.2716" lon="6.57359">
        <ele>4</ele>
        <time>2020-08-13T10:59:03Z</time>
      </trkpt>
      <trkpt lat="43.27182" lon="6.57367">
        <ele>4</ele>
        <time>2020-08-13T10:59:07Z</time>
      </trkpt>
      <trkpt lat="43.272" lon="6.57373">
        <ele>4</ele>
        <time>2020-08-13T10:59:10Z</time>
      </trkpt>
      <trkpt lat="43.27223" lon="6.57382">
        <ele>4</ele>
        <time>2020-08-13T10:59:14Z</time>
      </trkpt>
      <trkpt lat="43.27244" lon="6.57392">
        <ele>4</ele>
        <time>2020-08-13T10:59:18Z</time>
      </trkpt>
      <trkpt lat="43.27265" lon="6.574">
        <ele>4</ele>
        <time>2020-08-13T10:59:22Z</time>
      </trkpt>
      <trkpt lat="43.2728" lon="6.5741">
        <ele>4</ele>
        <time>2020-08-13T10:59:25Z</time>
      </trkpt>
      <trkpt lat="43.27301" lon="6.57422">
        <ele>4</ele>
        <time>2020-08-13T10:59:29Z</time>
      </trkpt>
      <trkpt lat="43.27319" lon="6.57429">
        <ele>4</ele>
        <time>2020-08-13T10:59:32Z</time>
      </trkpt>
      <trkpt lat="43.27337" lon="6.57437">
        <ele>3.622281</ele>
        <time>2020-08-13T10:59:35Z</time>
      </trkpt>
      <trkpt lat="43.27358" lon="6.57444">
        <ele>3.118906</ele>
        <time>2020-08-13T10:59:39Z</time>
      </trkpt>
      <trkpt lat="43.27377" lon="6.57451">
        <ele>3</ele>
        <time>2020-08-13T10:59:43Z</time>
      </trkpt>
      <trkpt lat="43.27394" lon="6.57459">
        <ele>3</ele>
        <time>2020-08-13T10:59:47Z</time>
      </trkpt>
      <trkpt lat="43.27409" lon="6.57471">
        <ele>3.019819</ele>
        <time>2020-08-13T10:59:51Z</time>
      </trkpt>
      <trkpt lat="43.27424" lon="6.57488">
        <ele>3.121094</ele>
        <time>2020-08-13T10:59:57Z</time>
      </trkpt>
      <trkpt lat="43.27444" lon="6.57485">
        <ele>3.320825</ele>
        <time>2020-08-13T11:00:04Z</time>
      </trkpt>
      <trkpt lat="43.27463" lon="6.57479">
        <ele>3.622563</ele>
        <time>2020-08-13T11:00:08Z</time>
      </trkpt>
      <trkpt lat="43.27483" lon="6.57482">
        <ele>3.837109</ele>
        <time>2020-08-13T11:00:12Z</time>
      </trkpt>
      <trkpt lat="43.27505" lon="6.57489">
        <ele>4.117244</ele>
        <time>2020-08-13T11:00:17Z</time>
      </trkpt>
      <trkpt lat="43.27526" lon="6.57494">
        <ele>4.434728</ele>
        <time>2020-08-13T11:00:21Z</time>
      </trkpt>
      <trkpt lat="43.27546" lon="6.57501">
        <ele>4.755</ele>
        <time>2020-08-13T11:00:25Z</time>
      </trkpt>
      <trkpt lat="43.27566" lon="6.57511">
        <ele>4.89125</ele>
        <time>2020-08-13T11:00:29Z</time>
      </trkpt>
      <trkpt lat="43.27585" lon="6.5752">
        <ele>5.01225</ele>
        <time>2020-08-13T11:00:33Z</time>
      </trkpt>
      <trkpt lat="43.27605" lon="6.57522">
        <ele>5.434344</ele>
        <time>2020-08-13T11:00:37Z</time>
      </trkpt>
      <trkpt lat="43.27624" lon="6.57528">
        <ele>5.878669</ele>
        <time>2020-08-13T11:00:41Z</time>
      </trkpt>
      <trkpt lat="43.27644" lon="6.57537">
        <ele>6.065875</ele>
        <time>2020-08-13T11:00:45Z</time>
      </trkpt>
      <trkpt lat="43.27665" lon="6.57546">
        <ele>6.264172</ele>
        <time>2020-08-13T11:00:49Z</time>
      </trkpt>
      <trkpt lat="43.27685" lon="6.57554">
        <ele>6.4375</ele>
        <time>2020-08-13T11:00:53Z</time>
      </trkpt>
      <trkpt lat="43.27707" lon="6.57562">
        <ele>6.5425</ele>
        <time>2020-08-13T11:00:57Z</time>
      </trkpt>
      <trkpt lat="43.27729" lon="6.57571">
        <ele>6.6675</ele>
        <time>2020-08-13T11:01:01Z</time>
      </trkpt>
      <trkpt lat="43.27751" lon="6.5758">
        <ele>6.7925</ele>
        <time>2020-08-13T11:01:05Z</time>
      </trkpt>
      <trkpt lat="43.2777" lon="6.57588">
        <ele>6.914669</ele>
        <time>2020-08-13T11:01:09Z</time>
      </trkpt>
      <trkpt lat="43.27793" lon="6.57596">
        <ele>6.997525</ele>
        <time>2020-08-13T11:01:13Z</time>
      </trkpt>
      <trkpt lat="43.27815" lon="6.57603">
        <ele>7.244906</ele>
        <time>2020-08-13T11:01:17Z</time>
      </trkpt>
      <trkpt lat="43.27837" lon="6.57616">
        <ele>7.771094</ele>
        <time>2020-08-13T11:01:21Z</time>
      </trkpt>
      <trkpt lat="43.27857" lon="6.57636">
        <ele>8</ele>
        <time>2020-08-13T11:01:25Z</time>
      </trkpt>
      <trkpt lat="43.27872" lon="6.5765">
        <ele>8</ele>
        <time>2020-08-13T11:01:28Z</time>
      </trkpt>
      <trkpt lat="43.27887" lon="6.57665">
        <ele>8.007328</ele>
        <time>2020-08-13T11:01:31Z</time>
      </trkpt>
      <trkpt lat="43.27902" lon="6.57682">
        <ele>8.386616</ele>
        <time>2020-08-13T11:01:34Z</time>
      </trkpt>
      <trkpt lat="43.27914" lon="6.57707">
        <ele>8.814756</ele>
        <time>2020-08-13T11:01:38Z</time>
      </trkpt>
      <trkpt lat="43.27922" lon="6.5773">
        <ele>9</ele>
        <time>2020-08-13T11:01:42Z</time>
      </trkpt>
      <trkpt lat="43.27935" lon="6.57753">
        <ele>9</ele>
        <time>2020-08-13T11:01:46Z</time>
      </trkpt>
      <trkpt lat="43.27945" lon="6.5778">
        <ele>8.818</ele>
        <time>2020-08-13T11:01:50Z</time>
      </trkpt>
      <trkpt lat="43.27956" lon="6.57805">
        <ele>8.414575</ele>
        <time>2020-08-13T11:01:54Z</time>
      </trkpt>
      <trkpt lat="43.27966" lon="6.57832">
        <ele>8.105797</ele>
        <time>2020-08-13T11:01:59Z</time>
      </trkpt>
      <trkpt lat="43.27979" lon="6.57858">
        <ele>7.998831</ele>
        <time>2020-08-13T11:02:03Z</time>
      </trkpt>
      <trkpt lat="43.27995" lon="6.57883">
        <ele>7.824191</ele>
        <time>2020-08-13T11:02:07Z</time>
      </trkpt>
      <trkpt lat="43.28009" lon="6.57909">
        <ele>7.368875</ele>
        <time>2020-08-13T11:02:11Z</time>
      </trkpt>
      <trkpt lat="43.2802" lon="6.57931">
        <ele>7</ele>
        <time>2020-08-13T11:02:17Z</time>
      </trkpt>
      <trkpt lat="43.2803" lon="6.57957">
        <ele>7</ele>
        <time>2020-08-13T11:02:22Z</time>
      </trkpt>
      <trkpt lat="43.28041" lon="6.57982">
        <ele>7</ele>
        <time>2020-08-13T11:02:26Z</time>
      </trkpt>
      <trkpt lat="43.28051" lon="6.58007">
        <ele>6.6325</ele>
        <time>2020-08-13T11:02:30Z</time>
      </trkpt>
      <trkpt lat="43.2806" lon="6.58033">
        <ele>6.235</ele>
        <time>2020-08-13T11:02:34Z</time>
      </trkpt>
      <trkpt lat="43.28066" lon="6.58059">
        <ele>5.837819</ele>
        <time>2020-08-13T11:02:38Z</time>
      </trkpt>
      <trkpt lat="43.28074" lon="6.58091">
        <ele>5.550687</ele>
        <time>2020-08-13T11:02:42Z</time>
      </trkpt>
      <trkpt lat="43.28083" lon="6.58116">
        <ele>5.5175</ele>
        <time>2020-08-13T11:02:46Z</time>
      </trkpt>
      <trkpt lat="43.2809" lon="6.58142">
        <ele>5.383456</ele>
        <time>2020-08-13T11:02:50Z</time>
      </trkpt>
      <trkpt lat="43.28097" lon="6.58173">
        <ele>5.003553</ele>
        <time>2020-08-13T11:02:55Z</time>
      </trkpt>
      <trkpt lat="43.28105" lon="6.58202">
        <ele>5.1575</ele>
        <time>2020-08-13T11:03:00Z</time>
      </trkpt>
      <trkpt lat="43.28112" lon="6.5823">
        <ele>5.33</ele>
        <time>2020-08-13T11:03:05Z</time>
      </trkpt>
      <trkpt lat="43.28116" lon="6.58257">
        <ele>5.4475</ele>
        <time>2020-08-13T11:03:10Z</time>
      </trkpt>
      <trkpt lat="43.28125" lon="6.5828">
        <ele>5.655</ele>
        <time>2020-08-13T11:03:14Z</time>
      </trkpt>
      <trkpt lat="43.28132" lon="6.58305">
        <ele>5.74475</ele>
        <time>2020-08-13T11:03:17Z</time>
      </trkpt>
      <trkpt lat="43.28138" lon="6.58332">
        <ele>5.453016</ele>
        <time>2020-08-13T11:03:20Z</time>
      </trkpt>
      <trkpt lat="43.28146" lon="6.58359">
        <ele>5.224585</ele>
        <time>2020-08-13T11:03:23Z</time>
      </trkpt>
      <trkpt lat="43.28154" lon="6.58385">
        <ele>5.3875</ele>
        <time>2020-08-13T11:03:26Z</time>
      </trkpt>
      <trkpt lat="43.2816" lon="6.58409">
        <ele>5.56</ele>
        <time>2020-08-13T11:03:29Z</time>
      </trkpt>
      <trkpt lat="43.28169" lon="6.58437">
        <ele>5.7675</ele>
        <time>2020-08-13T11:03:33Z</time>
      </trkpt>
      <trkpt lat="43.28176" lon="6.58462">
        <ele>5.9525</ele>
        <time>2020-08-13T11:03:37Z</time>
      </trkpt>
      <trkpt lat="43.28183" lon="6.58491">
        <ele>6.05375</ele>
        <time>2020-08-13T11:03:41Z</time>
      </trkpt>
      <trkpt lat="43.28188" lon="6.5852">
        <ele>5.74875</ele>
        <time>2020-08-13T11:03:45Z</time>
      </trkpt>
      <trkpt lat="43.28192" lon="6.58545">
        <ele>5.47</ele>
        <time>2020-08-13T11:03:49Z</time>
      </trkpt>
      <trkpt lat="43.28199" lon="6.58574">
        <ele>5.5675</ele>
        <time>2020-08-13T11:03:54Z</time>
      </trkpt>
      <trkpt lat="43.28207" lon="6.58598">
        <ele>5.7575</ele>
        <time>2020-08-13T11:03:59Z</time>
      </trkpt>
      <trkpt lat="43.28195" lon="6.58621">
        <ele>5.275144</ele>
        <time>2020-08-13T11:04:05Z</time>
      </trkpt>
      <trkpt lat="43.2819" lon="6.58645">
        <ele>4.570375</ele>
        <time>2020-08-13T11:04:10Z</time>
      </trkpt>
      <trkpt lat="43.28186" lon="6.58669">
        <ele>3.784025</ele>
        <time>2020-08-13T11:04:16Z</time>
      </trkpt>
      <trkpt lat="43.28178" lon="6.58695">
        <ele>3.04875</ele>
        <time>2020-08-13T11:04:24Z</time>
      </trkpt>
      <trkpt lat="43.28174" lon="6.5872">
        <ele>2.47125</ele>
        <time>2020-08-13T11:04:30Z</time>
      </trkpt>
      <trkpt lat="43.28174" lon="6.5874">
        <ele>2.154031</ele>
        <time>2020-08-13T11:04:52Z</time>
      </trkpt>
      <trkpt lat="43.28178" lon="6.58704">
        <ele>2.87125</ele>
        <time>2020-08-13T13:35:28Z</time>
      </trkpt>
    </trkseg>
  </trk>
</gpx>